[[{"header":{"parameterUnit":"m.s-1","parameterCategory":1,"la1":30.6,"la2":29.2853,"lo1":-89.7004,"lo2":-87.6739,"dx":0.0162,"dy":0.0183,"nx":112,"ny":82,"refTime":"2022-12-28T18:00:00:Z","depth":0,"parameterNumber":2,"parameterNumberName":"U-component_of_WINDS"},"data":[0.0,0.0,0.0,0.0,0.0,0.0,0.0,0.0,0.0,0.0,0.0,0.0,0.0,0.0,0.0,0.0,0.0,0.0,0.0,0.0,0.0,0.0,0.0,0.0,0.0,0.0,0.0,0.0,0.0,0.0,0.0,0.0,0.0,0.0,0.0,0.0,0.0,0.0,0.0,0.0,0.0,0.0,0.0,0.0,0.0,0.0,0.0,0.0,0.0,0.0,0.0,0.0,0.0,0.0,0.0,0.0,0.0,0.0,0.0,0.0,0.0,0.0,0.0,0.0,0.0,0.0,0.0,0.0,0.0,0.0,0.0,0.0,0.0,0.0,0.0,0.0,0.0,0.0,0.0,0.0,0.0,0.0,0.0,0.0,0.0,0.0,0.0,0.0,0.0,0.0,-1.9911,-2.192,-2.3904,-2.546,-2.6424,-2.4582,-2.2819,-2.1568,0.0,0.0,0.0,0.0,0.0,0.0,0.0,0.0,0.0,0.0,0.0,0.0,0.0,0.0,0.0,0.0,0.0,0.0,0.0,0.0,0.0,0.0,0.0,0.0,0.0,0.0,0.0,0.0,0.0,0.0,0.0,0.0,0.0,0.0,0.0,0.0,0.0,0.0,0.0,0.0,0.0,0.0,0.0,0.0,0.0,0.0,0.0,0.0,0.0,0.0,0.0,0.0,0.0,0.0,0.0,0.0,0.0,0.0,0.0,0.0,0.0,0.0,0.0,0.0,0.0,0.0,0.0,0.0,0.0,0.0,0.0,0.0,0.0,0.0,0.0,0.0,0.0,0.0,0.0,0.0,0.0,0.0,0.0,0.0,0.0,0.0,0.0,0.0,0.0,0.0,0.0,0.0,0.0,0.0,0.0,0.0,0.0,0.0,0.0,0.0,0.0,0.0,0.0,0.0,-2.1041,-2.4607,-2.5745,-2.6323,-2.6474,-2.531,-2.3678,-2.1619,0.0,0.0,0.0,0.0,0.0,0.0,0.0,0.0,0.0,0.0,0.0,0.0,0.0,0.0,0.0,0.0,0.0,0.0,0.0,0.0,0.0,0.0,0.0,0.0,0.0,0.0,0.0,0.0,0.0,0.0,0.0,0.0,0.0,0.0,0.0,0.0,0.0,0.0,0.0,0.0,0.0,0.0,0.0,0.0,0.0,0.0,0.0,0.0,0.0,0.0,0.0,0.0,0.0,0.0,0.0,0.0,0.0,0.0,0.0,0.0,0.0,0.0,0.0,0.0,0.0,0.0,0.0,0.0,0.0,0.0,0.0,0.0,0.0,0.0,0.0,0.0,0.0,0.0,0.0,0.0,0.0,0.0,0.0,0.0,0.0,0.0,0.0,0.0,0.0,0.0,0.0,0.0,0.0,0.0,0.0,0.0,0.0,0.0,0.0,0.0,0.0,0.0,0.0,-2.1776,-2.3552,-2.6214,-2.7017,-2.7379,-2.7379,-2.6063,-2.4431,-2.2498,-2.0539,0.0,0.0,0.0,0.0,0.0,0.0,0.0,0.0,0.0,0.0,0.0,0.0,0.0,0.0,0.0,0.0,0.0,0.0,0.0,0.0,0.0,0.0,0.0,0.0,0.0,0.0,0.0,0.0,0.0,0.0,0.0,0.0,0.0,0.0,0.0,0.0,0.0,0.0,0.0,0.0,0.0,0.0,0.0,0.0,0.0,0.0,0.0,0.0,0.0,0.0,0.0,0.0,0.0,0.0,0.0,0.0,0.0,0.0,0.0,0.0,0.0,0.0,0.0,0.0,0.0,0.0,0.0,0.0,0.0,0.0,0.0,0.0,0.0,0.0,0.0,0.0,0.0,0.0,0.0,0.0,0.0,0.0,0.0,0.0,0.0,0.0,0.0,0.0,0.0,0.0,0.0,0.0,0.0,0.0,0.0,0.0,0.0,0.0,0.0,0.0,0.0,0.0,-2.3427,-2.546,-2.7118,-2.7896,-2.8247,-2.8122,-2.6691,-2.5034,-2.3221,-2.1014,0.0,0.0,0.0,0.0,0.0,0.0,0.0,0.0,0.0,0.0,0.0,0.0,0.0,0.0,0.0,0.0,0.0,0.0,0.0,0.0,0.0,0.0,0.0,0.0,0.0,0.0,0.0,0.0,0.0,0.0,0.0,0.0,0.0,0.0,0.0,0.0,0.0,0.0,0.0,0.0,0.0,0.0,0.0,0.0,0.0,0.0,0.0,0.0,0.0,0.0,0.0,0.0,0.0,0.0,0.0,0.0,0.0,0.0,0.0,0.0,0.0,0.0,0.0,0.0,0.0,0.0,0.0,0.0,0.0,0.0,0.0,0.0,0.0,0.0,0.0,0.0,0.0,0.0,0.0,0.0,0.0,0.0,0.0,0.0,0.0,0.0,0.0,0.0,0.0,0.0,0.0,0.0,0.0,0.0,0.0,0.0,0.0,0.0,0.0,0.0,0.0,0.0,-2.3427,-2.546,-2.7118,-2.8247,-2.8637,-2.8147,-2.7102,-2.5493,-2.3246,-2.1014,0.0,0.0,0.0,0.0,0.0,0.0,0.0,0.0,0.0,0.0,0.0,0.0,0.0,0.0,0.0,0.0,0.0,0.0,0.0,0.0,0.0,0.0,0.0,0.0,0.0,0.0,0.0,0.0,0.0,0.0,0.0,0.0,0.0,0.0,0.0,0.0,0.0,0.0,0.0,0.0,0.0,0.0,0.0,0.0,0.0,0.0,0.0,0.0,0.0,0.0,0.0,0.0,0.0,0.0,0.0,0.0,0.0,0.0,0.0,0.0,0.0,0.0,0.0,0.0,0.0,0.0,0.0,0.0,0.0,0.0,0.0,0.0,0.0,0.0,0.0,0.0,0.0,0.0,0.0,0.0,0.0,0.0,0.0,0.0,0.0,0.0,0.0,0.0,0.0,0.0,0.0,0.0,0.0,0.0,0.0,0.0,0.0,0.0,0.0,0.0,0.0,0.0,-2.4456,-2.6339,0.0,-2.88,-2.9101,-2.8172,-2.7128,-2.5544,-2.3246,0.0,0.0,0.0,0.0,0.0,0.0,0.0,0.0,0.0,0.0,0.0,0.0,0.0,0.0,0.0,0.0,0.0,0.0,0.0,0.0,0.0,0.0,0.0,0.0,0.0,0.0,0.0,0.0,0.0,0.0,0.0,0.0,0.0,0.0,0.0,0.0,0.0,0.0,0.0,0.0,0.0,0.0,0.0,0.0,0.0,0.0,0.0,0.0,0.0,0.0,0.0,0.0,0.0,0.0,0.0,0.0,0.0,0.0,0.0,0.0,0.0,0.0,0.0,0.0,0.0,0.0,0.0,0.0,0.0,0.0,0.0,0.0,0.0,0.0,0.0,0.0,0.0,0.0,0.0,0.0,0.0,0.0,0.0,0.0,0.0,0.0,0.0,0.0,0.0,0.0,0.0,0.0,0.0,0.0,0.0,0.0,0.0,0.0,0.0,0.0,0.0,0.0,-2.2879,-2.5084,-2.6927,0.0,-2.9126,-2.9402,-2.8448,-2.7344,-2.5837,-2.3772,0.0,0.0,0.0,0.0,0.0,0.0,0.0,0.0,0.0,0.0,0.0,0.0,0.0,0.0,0.0,0.0,0.0,0.0,0.0,0.0,0.0,0.0,0.0,0.0,0.0,0.0,0.0,0.0,0.0,0.0,0.0,0.0,0.0,0.0,0.0,0.0,0.0,0.0,0.0,0.0,0.0,0.0,0.0,0.0,0.0,0.0,0.0,0.0,0.0,0.0,0.0,0.0,0.0,0.0,0.0,0.0,0.0,0.0,0.0,0.0,0.0,0.0,0.0,0.0,0.0,0.0,0.0,0.0,0.0,0.0,0.0,0.0,0.0,0.0,0.0,0.0,0.0,0.0,0.0,0.0,0.0,0.0,0.0,0.0,0.0,0.0,0.0,0.0,0.0,0.0,0.0,0.0,0.0,0.0,0.0,0.0,0.0,0.0,0.0,0.0,0.0,0.0,-2.2908,-2.5084,-2.6927,-2.7996,-2.9126,-2.9553,-2.8938,-2.7921,-2.6565,0.0,0.0,0.0,0.0,0.0,0.0,0.0,0.0,0.0,0.0,0.0,0.0,0.0,0.0,0.0,0.0,0.0,0.0,0.0,0.0,0.0,0.0,0.0,0.0,0.0,0.0,0.0,0.0,0.0,0.0,0.0,0.0,0.0,0.0,0.0,0.0,0.0,0.0,0.0,0.0,0.0,0.0,0.0,0.0,0.0,0.0,0.0,0.0,0.0,0.0,0.0,0.0,0.0,0.0,0.0,0.0,0.0,0.0,0.0,0.0,0.0,0.0,0.0,0.0,0.0,0.0,0.0,0.0,0.0,0.0,0.0,0.0,0.0,0.0,0.0,0.0,0.0,0.0,0.0,0.0,0.0,0.0,0.0,0.0,0.0,0.0,0.0,0.0,0.0,0.0,0.0,0.0,0.0,0.0,0.0,0.0,0.0,0.0,0.0,0.0,0.0,0.0,0.0,-2.3573,-2.5661,-2.7656,-2.9126,-2.9603,-2.9729,-2.9553,-2.8147,-2.6565,-2.4901,0.0,0.0,0.0,0.0,0.0,0.0,0.0,0.0,0.0,0.0,0.0,0.0,0.0,0.0,0.0,0.0,0.0,0.0,0.0,0.0,0.0,0.0,0.0,0.0,0.0,0.0,0.0,0.0,0.0,0.0,0.0,0.0,0.0,0.0,0.0,0.0,0.0,0.0,0.0,0.0,0.0,0.0,0.0,0.0,0.0,0.0,0.0,0.0,0.0,0.0,0.0,0.0,0.0,0.0,0.0,0.0,0.0,0.0,0.0,0.0,0.0,0.0,0.0,0.0,0.0,0.0,0.0,0.0,0.0,0.0,0.0,0.0,0.0,0.0,0.0,0.0,0.0,0.0,0.0,0.0,0.0,0.0,0.0,0.0,0.0,0.0,0.0,0.0,0.0,0.0,0.0,0.0,0.0,0.0,0.0,0.0,0.0,0.0,0.0,0.0,0.0,0.0,-2.4154,-2.6063,-2.7921,-2.9603,-2.998,-3.0131,-3.0131,-2.9001,-2.757,-2.5912,0.0,0.0,0.0,0.0,0.0,0.0,0.0,0.0,0.0,0.0,0.0,0.0,0.0,0.0,0.0,0.0,0.0,0.0,0.0,0.0,0.0,0.0,0.0,0.0,0.0,0.0,0.0,0.0,0.0,0.0,0.0,0.0,0.0,0.0,0.0,0.0,0.0,0.0,0.0,0.0,0.0,0.0,0.0,0.0,0.0,0.0,0.0,0.0,0.0,0.0,0.0,0.0,0.0,0.0,0.0,0.0,0.0,0.0,0.0,0.0,0.0,0.0,0.0,0.0,0.0,0.0,0.0,0.0,0.0,0.0,0.0,0.0,0.0,0.0,0.0,0.0,0.0,0.0,0.0,0.0,0.0,0.0,0.0,0.0,0.0,0.0,0.0,0.0,0.0,0.0,0.0,0.0,0.0,0.0,0.0,0.0,0.0,0.0,0.0,0.0,0.0,0.0,-2.4746,-2.6465,-2.8147,-2.9779,-3.0382,-3.0683,-3.0683,-3.0131,-2.9101,-2.7469,0.0,0.0,0.0,0.0,0.0,0.0,0.0,0.0,0.0,0.0,0.0,0.0,0.0,0.0,0.0,0.0,0.0,0.0,0.0,0.0,0.0,0.0,0.0,0.0,0.0,0.0,0.0,0.0,0.0,0.0,0.0,0.0,0.0,0.0,0.0,0.0,0.0,0.0,0.0,0.0,0.0,0.0,0.0,0.0,0.0,0.0,0.0,0.0,0.0,0.0,0.0,0.0,0.0,0.0,0.0,0.0,0.0,0.0,0.0,0.0,-2.5196,0.0,0.0,0.0,0.0,0.0,0.0,0.0,0.0,0.0,0.0,0.0,0.0,0.0,0.0,0.0,0.0,0.0,0.0,0.0,0.0,0.0,0.0,0.0,0.0,0.0,0.0,0.0,0.0,0.0,0.0,0.0,0.0,0.0,0.0,0.0,0.0,0.0,0.0,0.0,0.0,0.0,-2.5988,-2.7946,-2.9729,-3.0909,-3.116,-3.1235,-3.1235,-3.0357,-2.9252,-2.8021,-2.6364,0.0,0.0,0.0,0.0,0.0,0.0,0.0,0.0,0.0,0.0,0.0,0.0,0.0,0.0,0.0,0.0,0.0,0.0,0.0,0.0,0.0,0.0,0.0,0.0,0.0,0.0,0.0,0.0,0.0,0.0,0.0,0.0,0.0,0.0,0.0,0.0,0.0,0.0,0.0,0.0,0.0,0.0,0.0,0.0,0.0,0.0,0.0,0.0,0.0,0.0,0.0,0.0,0.0,0.0,0.0,0.0,0.0,0.0,0.0,0.0,-2.5518,0.0,0.0,0.0,0.0,0.0,0.0,0.0,0.0,0.0,0.0,0.0,0.0,0.0,0.0,0.0,0.0,0.0,0.0,0.0,0.0,0.0,0.0,0.0,0.0,0.0,0.0,0.0,0.0,0.0,0.0,0.0,0.0,0.0,0.0,0.0,0.0,0.0,0.0,0.0,0.0,-2.7112,-2.875,-3.0306,-3.1637,-3.1788,-3.1888,-3.2164,-3.1185,-3.008,-2.8976,-2.7595,0.0,0.0,0.0,0.0,0.0,0.0,0.0,0.0,0.0,0.0,0.0,0.0,0.0,0.0,0.0,0.0,0.0,0.0,0.0,0.0,0.0,0.0,0.0,0.0,0.0,0.0,0.0,0.0,0.0,0.0,0.0,0.0,0.0,0.0,0.0,0.0,0.0,0.0,0.0,0.0,0.0,0.0,0.0,0.0,0.0,0.0,0.0,0.0,0.0,0.0,0.0,0.0,0.0,-3.13,-3.1899,-3.2019,-3.1899,-3.1899,-3.1899,-2.9594,-2.8513,-2.8244,0.0,0.0,0.0,0.0,0.0,0.0,0.0,0.0,0.0,0.0,0.0,0.0,0.0,0.0,0.0,0.0,0.0,0.0,0.0,0.0,0.0,0.0,0.0,0.0,0.0,-2.8424,-2.7947,0.0,0.0,0.0,0.0,0.0,0.0,0.0,0.0,0.0,0.0,0.0,0.0,-2.8197,-2.9377,-3.0658,-3.219,-3.2441,-3.2692,-3.3194,-3.2265,-3.126,-3.0281,-2.9076,-2.772,0.0,0.0,0.0,0.0,0.0,0.0,0.0,0.0,0.0,0.0,0.0,0.0,0.0,0.0,0.0,0.0,0.0,0.0,0.0,0.0,0.0,0.0,0.0,0.0,0.0,0.0,0.0,0.0,0.0,0.0,0.0,0.0,-2.2343,-2.2433,0.0,0.0,0.0,0.0,0.0,0.0,0.0,0.0,0.0,0.0,0.0,0.0,0.0,-2.9654,-3.0853,-3.169,-3.2138,-3.2138,-3.2886,-3.3544,-3.4053,-3.3484,-3.3544,-3.4023,-3.3095,0.0,-3.0943,-3.0283,0.0,0.0,0.0,0.0,0.0,0.0,0.0,0.0,0.0,0.0,0.0,0.0,0.0,0.0,0.0,0.0,0.0,0.0,0.0,0.0,0.0,0.0,-3.1723,-3.1812,-3.1117,-3.0356,0.0,-2.7152,-2.4514,-2.428,-2.3457,0.0,0.0,0.0,0.0,0.0,0.0,0.0,-2.9402,-3.0507,-3.1637,-3.2842,-3.3395,-3.3696,-3.3796,-3.3219,-3.2591,-3.1938,-3.0432,-2.9252,-2.8487,-2.6414,0.0,0.0,0.0,0.0,0.0,0.0,0.0,0.0,0.0,0.0,0.0,0.0,0.0,0.0,0.0,0.0,0.0,0.0,0.0,0.0,0.0,0.0,0.0,0.0,0.0,0.0,0.0,0.0,0.0,-2.3251,-2.4328,-2.4328,-2.5249,-2.5848,0.0,0.0,0.0,0.0,0.0,0.0,0.0,0.0,0.0,-3.121,-3.124,-3.1869,-3.3185,-3.3844,-3.4382,-3.4771,-3.54,-3.5848,-3.6118,-3.5818,-3.5848,-3.6118,-3.5818,-3.537,-3.468,-3.2916,-3.1809,-3.121,0.0,0.0,0.0,0.0,-2.9804,-2.9804,-2.9804,-2.9804,0.0,-2.9804,0.0,0.0,0.0,0.0,0.0,0.0,0.0,0.0,0.0,0.0,0.0,-3.4974,-3.4261,-3.3512,-3.4158,-3.1729,-2.8779,0.0,-2.5561,-2.5084,-2.5368,0.0,0.0,0.0,0.0,-2.9352,-3.0156,-3.1461,-3.2641,-3.3445,-3.4022,-3.4474,-3.4756,-3.4022,-3.3294,-3.2742,-3.1738,-3.0633,-2.9453,-2.8172,-2.654,0.0,0.0,0.0,0.0,0.0,0.0,0.0,0.0,0.0,0.0,0.0,0.0,0.0,0.0,0.0,0.0,0.0,0.0,0.0,0.0,0.0,0.0,0.0,0.0,0.0,0.0,0.0,0.0,-2.4986,-2.6243,-2.6572,-2.7619,-2.8423,0.0,0.0,0.0,0.0,0.0,0.0,-3.0342,-3.1569,-3.2557,-3.3245,-3.3425,-3.4083,-3.522,-3.5729,-3.6237,-3.6716,-3.7375,-3.7674,-3.7674,-3.7823,-3.7913,-3.7913,-3.7913,-3.7913,-3.7734,-3.5429,-3.4113,-3.3514,-3.3514,-3.3095,-3.2527,-3.2527,-3.2527,-3.2527,-3.2527,-3.2527,-3.2527,-3.2527,0.0,-3.2258,-3.2258,0.0,0.0,0.0,0.0,-3.2857,-3.4135,-3.4886,-3.5678,-3.7267,-3.6808,-3.6192,-3.7049,-3.5485,-3.2889,0.0,-2.8109,-2.7672,-2.7566,0.0,0.0,0.0,0.0,-3.0457,-3.116,-3.2315,-3.3395,-3.4223,-3.47,-3.5107,-3.5658,-3.4876,-3.4148,-3.3746,-3.2918,-3.1888,-3.0683,-2.9679,-2.8298,-2.649,0.0,0.0,0.0,0.0,0.0,0.0,0.0,0.0,0.0,0.0,0.0,0.0,0.0,0.0,0.0,0.0,0.0,0.0,0.0,0.0,0.0,0.0,0.0,0.0,0.0,0.0,0.0,0.0,0.0,-2.9262,-2.9953,0.0,0.0,0.0,0.0,-3.1301,-3.1959,-3.2347,-3.2347,-3.3604,-3.4683,-3.534,-3.5968,-3.6596,-3.7255,-3.7285,-3.7315,-3.7375,-3.8033,-3.8332,-3.8362,-3.902,-3.932,-3.932,-3.932,-3.932,-3.92,-3.7793,-3.6836,-3.6297,-3.6297,-3.5878,-3.531,-3.531,-3.531,-3.531,-3.531,-3.531,-3.531,-3.531,-3.4861,-3.4354,-3.4354,-3.4354,0.0,0.0,-3.5756,-3.6384,-3.7011,-3.7669,-3.8207,-3.8332,-3.8091,-3.7861,-3.7936,-3.7119,-3.5526,0.0,-3.1468,-3.0895,-3.0464,0.0,-3.0633,-3.1135,-3.126,-3.1712,-3.2817,-3.3061,-3.3696,-3.5232,-3.5433,-3.5683,-3.6329,-3.5805,-3.5408,-3.5382,-3.3922,-3.2993,-3.296,-3.0884,-2.9428,-2.8737,-2.659,0.0,0.0,0.0,0.0,0.0,0.0,0.0,0.0,0.0,0.0,0.0,0.0,0.0,0.0,0.0,0.0,0.0,0.0,0.0,0.0,0.0,0.0,0.0,0.0,0.0,0.0,0.0,0.0,-3.136,-3.2048,0.0,-3.2766,-3.2796,-3.2976,-3.3395,-3.4053,-3.4622,-3.504,-3.5878,-3.6656,-3.7345,-3.7584,-3.8242,-3.932,-3.932,-3.9559,-3.9978,-4.0217,-4.0307,-4.0337,-4.0576,-4.0696,-4.0696,-4.0696,-4.0696,-4.0636,-4.0157,-3.9349,-3.8332,-3.7883,-3.7853,-3.8033,-3.8033,-3.8033,-3.8033,-3.8033,-3.8033,-3.8033,-3.8033,-3.7853,-3.7644,-3.7644,-3.7644,-3.7704,-3.7943,-3.8182,-3.8512,-3.917,-3.9499,-3.9888,-4.0793,-4.0294,-3.9894,-4.0654,-3.9934,-3.8757,-3.7366,-3.5162,-3.3275,-3.2348,-3.2829,-3.3127,-3.2567,-3.3418,-3.3988,-3.3676,-3.4223,-3.4856,-3.5433,-3.5855,-3.6157,-3.638,-3.6182,-3.5906,-3.5508,-3.4956,-3.4349,-3.3646,-3.2516,-3.1311,-2.9991,-2.8524,-2.6917,0.0,0.0,0.0,0.0,0.0,0.0,0.0,0.0,0.0,0.0,0.0,0.0,0.0,0.0,0.0,0.0,0.0,0.0,0.0,0.0,0.0,0.0,0.0,0.0,0.0,0.0,-3.2168,-3.3066,-3.3754,-3.4262,-3.4472,-3.4711,-3.5011,-3.5429,-3.6088,-3.6656,-3.7105,-3.7943,-3.8631,-3.905,-3.929,-3.9828,-4.0726,-4.0726,-4.0935,-4.1422,-4.1632,-4.1752,-4.1752,-4.1953,-4.2043,-4.2043,-4.2043,-4.2043,-4.2013,-4.1841,-4.1324,-4.0629,-3.9738,-3.9679,-4.0068,-4.0068,-4.0068,-4.0068,-4.0068,-4.0068,-4.0068,-4.0068,-3.9918,-3.9738,-3.9738,-3.9738,-3.9738,-3.9738,-3.9918,-4.0217,-4.0876,-4.1235,-4.1654,-4.2761,-4.2602,-4.2386,-4.321,-4.2739,-4.1954,-4.1261,-3.8309,-3.5645,-3.4693,-3.5165,-3.5372,-3.4369,-3.553,-3.6149,-3.5158,-3.5655,-3.6135,-3.631,-3.6709,-3.6958,-3.6958,-3.6782,-3.6483,-3.6085,-3.5708,-3.5182,-3.4474,-3.3746,-3.2742,-3.1461,-2.974,-2.8298,-2.7027,0.0,0.0,0.0,0.0,0.0,0.0,0.0,0.0,0.0,0.0,0.0,0.0,0.0,0.0,0.0,0.0,0.0,0.0,0.0,0.0,0.0,0.0,0.0,-3.157,-3.2138,-3.3095,-3.4414,-3.513,-3.5818,-3.6447,-3.7075,-3.7434,-3.7464,-3.8093,-3.8452,-3.8482,-3.9738,-4.0427,-4.0457,-4.1085,-4.1452,-4.1482,-4.1482,-4.1482,-4.1444,-4.2141,-4.247,-4.247,-4.309,-4.3349,-4.3349,-4.3349,-4.3349,-4.3319,-4.2701,-4.2821,-4.323,-4.1923,-4.1414,-4.1482,-4.1482,-4.1482,-4.1482,-4.1482,-4.1444,-4.1474,-4.1474,-4.1055,-4.0546,-4.0546,-4.0546,-4.0546,-4.0546,-4.0995,-4.1692,-4.2321,-4.291,-4.3529,-4.4197,-4.4825,-4.5304,-4.5304,-4.5304,-4.4983,-4.3892,-4.0746,-3.8087,-3.7546,-3.7537,-3.7348,-3.6687,-3.7664,0.0,-3.7425,-3.7308,-3.7461,-3.7939,-3.8015,-3.8015,-3.8015,-3.7513,-3.7211,-3.7211,-3.6182,-3.5558,-3.5558,-3.4525,-3.3671,-3.3136,-3.0407,-2.8712,-2.8172,0.0,0.0,0.0,0.0,0.0,0.0,0.0,0.0,0.0,0.0,0.0,0.0,0.0,0.0,0.0,0.0,0.0,0.0,0.0,0.0,0.0,-3.2377,-3.3514,-3.3036,-3.3963,-3.4981,-3.5848,-3.6507,-3.6956,-3.7135,-3.7734,-3.8332,-3.8841,-3.9469,-4.0068,-4.0546,-4.0905,-4.1324,-4.1841,-4.2021,-4.2312,-4.2751,-4.2791,-4.2791,-4.2821,-4.3479,-4.3778,-4.3808,-4.4466,-4.4766,-4.4766,-4.4766,-4.4766,-4.4736,-4.4556,-4.4586,-4.4586,-4.283,-4.2372,-4.2791,-4.2791,-4.2791,-4.2791,-4.2791,-4.312,-4.3509,-4.3509,-4.3718,-4.3958,-4.3958,-4.3958,-4.3958,-4.3958,-4.4077,-4.4257,-4.4436,-4.4616,-4.4796,-4.4975,-4.5155,-4.5304,-4.5304,-4.5304,-4.5221,-4.4899,-4.3354,-4.1751,-4.0746,-4.129,-4.1523,-4.0477,-4.1363,0.0,-3.9444,-3.9138,-3.8833,-3.8088,-3.8015,-3.8015,-3.8015,-3.7864,-3.7789,-3.7789,-3.7111,-3.6734,-3.6734,-3.568,-3.4449,-3.3136,-3.1913,-3.0859,0.0,0.0,0.0,0.0,0.0,0.0,0.0,0.0,0.0,0.0,0.0,0.0,0.0,0.0,0.0,0.0,0.0,0.0,0.0,0.0,0.0,0.0,-3.3963,-3.507,-3.5489,-3.5968,-3.6537,-3.7195,-3.7853,-3.8362,-3.8631,-3.926,-3.9798,-4.0217,-4.0846,-4.1384,-4.1811,-4.2043,-4.2491,-4.315,-4.318,-4.3509,-4.4137,-4.4167,-4.4167,-4.4167,-4.4556,-4.4736,-4.4736,-4.5125,-4.5304,0.0,-4.5304,-4.5304,-4.5304,-4.5304,-4.5304,0.0,0.0,0.0,0.0,0.0,-4.4167,-4.4167,-4.4167,-4.4407,-4.4736,-4.4736,-4.4975,-4.5304,-4.5304,-4.5304,-4.5304,-4.5304,-4.5304,-4.5364,-4.5663,-4.5723,-4.5783,-4.6082,-4.6142,-4.6142,-4.6142,-4.6142,-4.6142,-4.6142,-4.5602,0.0,-4.4221,-4.4064,-4.3668,-4.2675,-4.3551,-4.3641,-4.1632,-4.1396,-4.1138,-4.0394,-4.0297,-4.0297,-4.0297,-3.9602,0.0,0.0,0.0,-3.8229,-3.7998,-3.6615,0.0,0.0,0.0,0.0,0.0,0.0,0.0,0.0,-2.6942,-2.6615,0.0,0.0,0.0,0.0,0.0,0.0,0.0,0.0,0.0,0.0,0.0,0.0,0.0,0.0,0.0,0.0,-3.54,-3.6537,-3.8272,-3.8123,-3.8033,-3.8542,-3.923,-3.9858,-4.0457,-4.1115,-4.1542,-4.1542,-4.2141,-4.253,-4.262,0.0,0.0,0.0,0.0,-4.4706,-4.5274,-4.5304,-4.5304,-4.5304,-4.5364,-4.5394,-4.5424,-4.5484,-4.5514,-4.5514,-4.5514,-4.5514,-4.5514,-4.5514,-4.5514,-4.5514,-4.5364,-4.5304,-4.5304,-4.5304,-4.5304,-4.5304,-4.5304,0.0,0.0,-4.5394,-4.5454,-4.5514,-4.5514,-4.5514,-4.5514,-4.5514,-4.5514,-4.5663,-4.6262,-4.6399,-4.6591,-4.716,-4.7309,-4.7309,-4.7309,-4.7309,-4.7309,-4.7309,-4.7309,-4.7309,-4.7309,-4.5962,-4.4665,-4.4032,-4.4886,-4.5161,-4.3882,-4.3693,-4.3646,-4.3504,0.0,0.0,-4.3504,-4.2037,-4.1116,-4.1116,-4.0415,-3.9759,-3.9223,-3.7518,-3.6351,-3.5814,-3.4287,-3.3543,-3.3649,-3.2456,-3.1949,-3.1996,-2.9606,-2.8849,0.0,0.0,0.0,0.0,0.0,0.0,0.0,0.0,0.0,0.0,0.0,0.0,0.0,0.0,0.0,-3.5968,-3.7554,-3.8781,-3.917,-4.0038,-4.0457,-4.0068,-4.0606,-4.1055,-4.1175,-4.1811,-4.2201,-4.2201,-4.2791,-4.3359,-4.3898,-4.4047,-4.4436,-4.5095,-4.5095,-4.5155,-4.5304,-4.5304,-4.5304,-4.5304,0.0,0.0,-4.6142,-4.6681,-4.692,-4.692,-4.692,-4.692,-4.692,-4.692,-4.692,-4.68,-4.5723,-4.5304,-4.5304,-4.5304,-4.5304,-4.5304,-4.5304,-4.5663,-4.6142,-4.6142,-4.6471,-4.692,-4.692,-4.692,0.0,-4.692,-4.692,-4.695,-4.707,-4.713,-4.716,-4.7279,-4.7309,-4.7309,-4.7309,-4.7309,-4.7309,-4.7309,-4.7309,-4.7309,-4.7309,-4.7016,-4.6739,-4.6565,-4.677,-4.6462,-4.5207,-4.5024,-4.4627,-4.3598,-4.3504,-4.3504,-4.3504,-4.3156,-4.3006,-4.3006,-4.1507,-4.0346,-3.9785,-3.8418,-3.7667,-3.7612,-3.6366,-3.6225,-3.7206,-3.5588,-3.5311,-3.6129,-3.247,-3.1596,0.0,0.0,0.0,0.0,0.0,0.0,0.0,0.0,0.0,0.0,0.0,-3.3693,-3.4382,0.0,-3.6776,-3.7793,-3.8781,-3.9768,-4.0756,-4.1482,-4.1782,-4.1452,-4.1722,-4.2013,-4.2312,-4.297,-4.3329,-4.3329,-4.3958,-4.4466,-4.4796,-4.4796,-4.5125,-4.5783,-4.5813,-4.5963,-4.6292,-4.6292,-4.6292,-4.6292,-4.6651,-4.68,-4.683,-4.716,-4.7309,-4.7309,-4.7309,-4.7309,-4.7309,-4.7309,-4.7309,-4.7249,-4.6561,-4.6292,-4.6292,-4.6292,-4.6292,-4.6292,-4.6292,-4.6531,-4.68,-4.68,-4.704,-4.7309,-4.7309,-4.7309,-4.7309,-4.7309,-4.7309,-4.7309,-4.7309,-4.7309,-4.7309,-4.7309,-4.7309,-4.7309,-4.7309,-4.7309,-4.7309,-4.7309,-4.7309,-4.7309,-4.7309,-4.7309,-4.7309,-4.7309,-4.7309,-4.7062,-4.6432,-4.6344,-4.6121,-4.5434,-4.5389,-4.5389,-4.5389,-4.484,-4.4442,-4.4442,-4.2991,-4.2174,-4.2242,-4.1032,-4.0227,-3.9961,-3.912,-3.9007,-3.9602,-3.8468,-3.7869,-3.7799,-3.6106,-3.5122,0.0,0.0,0.0,0.0,0.0,0.0,0.0,-3.1689,-3.3065,-3.3065,-3.4592,-3.5908,-3.6058,-3.7015,-3.8182,-3.9409,-3.9828,-4.0546,-4.2171,-4.262,-4.277,-4.277,-4.277,-4.294,-4.3439,-4.4107,-4.4496,-4.4496,-4.5005,-4.5364,-4.5484,-4.5484,-4.5813,-4.6459,-4.6459,-4.677,-4.7309,-4.7309,-4.7309,-4.7309,-4.7309,-4.7309,-4.7309,-4.7309,-4.7309,-4.7309,-4.7309,-4.7309,-4.7309,-4.7309,-4.7309,-4.7309,-4.7309,-4.7309,-4.7309,-4.7309,-4.7309,-4.7309,-4.7309,-4.7309,-4.7309,-4.7309,-4.7309,-4.7309,-4.7309,-4.7309,-4.7309,-4.7309,-4.7309,-4.7309,-4.7309,-4.7309,-4.7309,-4.7309,-4.7309,-4.7309,-4.7309,-4.7309,-4.7309,-4.7309,-4.7309,-4.7309,-4.7309,-4.7309,-4.7309,-4.7309,-4.7309,-4.7309,-4.7309,-4.7309,-4.7309,-4.7309,-4.7309,-4.7309,-4.7309,-4.6344,-4.5779,-4.5779,-4.4581,-4.4124,-4.4713,-4.3526,-4.2667,-4.23,-4.1664,-4.1491,-4.1818,-4.1209,-4.0435,-3.9659,-4.0165,-3.8962,-3.0043,-3.0612,-3.1062,-3.1062,-3.16,-3.2198,0.0,-3.3724,-3.516,-3.516,-3.6237,-3.7375,-3.7973,-3.8691,-3.9439,-4.0157,-4.1265,-4.2141,-4.2381,-4.3359,-4.4107,-4.4107,-4.4107,-4.4137,-4.4197,-4.4796,-4.5185,-4.5185,-4.5244,-4.5574,-4.6172,-4.6202,-4.6501,-4.7189,-4.7189,-4.7219,-4.7309,-4.7309,-4.7309,-4.7309,-4.7309,-4.7309,-4.7309,-4.7309,-4.7309,-4.7309,-4.7309,-4.7309,-4.7309,-4.7309,-4.7309,-4.7309,-4.7309,-4.7309,-4.7309,-4.7309,-4.7309,-4.7309,-4.7309,-4.7309,-4.7309,-4.7309,-4.7309,-4.7309,-4.7309,-4.7309,-4.7309,-4.7309,-4.7309,-4.7309,-4.7309,-4.7309,-4.7309,-4.7309,-4.7309,-4.7309,-4.7309,-4.7309,-4.7309,-4.7309,-4.7309,-4.7309,-4.7309,-4.7309,-4.7309,-4.7309,-4.7309,-4.7309,-4.7309,-4.7309,-4.7309,-4.7309,-4.7309,-4.7309,-4.7309,-4.7149,-4.7062,-4.7062,-4.5869,-4.5223,-4.5302,-4.4097,-4.3631,-4.4085,-4.3069,-4.3255,-4.4822,-4.3732,-4.366,-4.4536,-4.4602,-4.2763,-3.2168,-3.2467,-3.2677,-3.2677,-3.3484,-3.4262,-3.4262,-3.5489,-3.6626,-3.6626,-3.7674,-3.8661,-3.8931,-3.9858,-4.0786,-4.1482,-4.2051,-4.268,-4.3389,-4.3958,-4.4466,-4.4855,-4.5244,-4.5334,-4.4915,-4.5514,-4.5903,-4.5903,-4.6232,-4.6591,-4.689,-4.689,-4.701,-4.7309,-4.7309,-4.7309,-4.7309,-4.7309,-4.7309,-4.7309,-4.7309,-4.7309,-4.7309,-4.7309,-4.7309,-4.7309,-4.7309,-4.7309,-4.7309,-4.7309,-4.7309,-4.7309,-4.7309,-4.7309,-4.7309,-4.7309,-4.7309,-4.7309,-4.7309,-4.7309,-4.7309,-4.7309,-4.7309,-4.7309,-4.7309,-4.7309,-4.7309,-4.7309,-4.7309,-4.7309,-4.7309,-4.7309,-4.7309,-4.7309,-4.7309,-4.7309,-4.7309,-4.7309,-4.7309,-4.7309,-4.7309,-4.7309,-4.7309,-4.7309,-4.7309,-4.7309,-4.7309,-4.7309,-4.7309,-4.7309,-4.7309,-4.7309,-4.7309,-4.7309,-4.7309,-4.7309,-4.7309,-4.7309,-4.677,-4.6506,-4.6506,-4.5958,-4.5842,-4.6094,-4.5624,-4.5727,-4.6471,-4.597,-4.5638,-4.5391,-4.5713,-4.4699,-3.3754,-3.4053,-3.4322,-3.4322,-3.519,-3.6028,-3.6028,-3.6896,-3.7734,-3.7913,-3.8871,-3.9798,-4.0157,-4.0995,-4.1901,-4.2521,-4.283,-4.324,-4.4167,-4.4646,-4.5035,-4.5514,-4.6172,-4.6411,-4.5903,-4.6292,-4.6591,-4.6591,-4.704,-4.7309,-4.7309,-4.7309,-4.7309,-4.7309,-4.7309,-4.7309,-4.7309,-4.7309,-4.7309,-4.7309,-4.7309,-4.7309,-4.7309,-4.7309,-4.7309,-4.7309,-4.7309,-4.7309,-4.7309,-4.7309,-4.7309,-4.7309,-4.7309,-4.7309,-4.7309,-4.7309,-4.7309,-4.7309,-4.7309,-4.7309,-4.7309,-4.7309,-4.7309,-4.7309,-4.7309,-4.7309,-4.7309,-4.7309,-4.7309,-4.7309,-4.7309,-4.7309,-4.7309,-4.7309,-4.7309,-4.7309,-4.7309,-4.7309,-4.7309,-4.7309,-4.7309,-4.7309,-4.7309,-4.7309,-4.7309,-4.7309,-4.7309,-4.7309,-4.7309,-4.7309,-4.7309,-4.7309,-4.7309,-4.7309,-4.7309,-4.7309,-4.7309,-4.7309,-4.7309,-4.7309,-4.7309,-4.7309,-4.7309,-4.7309,-4.7309,-4.7309,-4.7309,-4.7309,-4.6814,-4.5913,-4.6383,-4.6089,-3.4474,-3.5432,-3.6387,-3.6387,-3.6866,-3.7345,-3.7345,-3.7883,-3.8542,-3.923,-3.9888,-4.0756,-4.2081,-4.2351,-4.259,-4.314,-4.3838,-4.4257,-4.4317,-4.5424,-4.6262,-4.6249,-4.686,-4.7279,0.0,-4.7249,-4.7279,-4.7279,-4.7309,-4.7309,-4.7309,-4.7309,-4.7309,-4.7309,-4.7309,-4.7309,-4.7309,-4.7309,-4.7309,-4.7309,-4.7309,-4.7309,-4.7309,-4.7309,-4.7309,-4.7309,-4.7309,-4.7309,-4.7309,-4.7309,-4.7309,-4.7309,-4.7309,-4.7309,-4.7309,-4.7309,-4.7309,-4.7309,-4.7309,-4.7309,-4.7309,-4.7309,-4.7309,-4.7309,-4.7309,-4.7309,-4.7309,-4.7309,-4.7309,-4.7309,-4.7309,-4.7309,-4.7309,-4.7309,-4.7309,-4.7309,-4.7309,-4.7309,-4.7309,-4.7309,-4.7309,-4.7309,-4.7309,-4.7309,-4.7309,-4.7309,-4.7309,-4.7309,-4.7309,-4.7309,-4.7309,-4.7309,-4.7309,-4.7309,-4.7309,-4.7309,-4.7309,-4.7309,-4.7309,-4.7309,-4.7309,-4.7309,-4.7309,-4.7309,-4.7309,-4.7309,-4.7309,-4.7309,-4.7266,-4.7266,-4.7236,-4.7236,-3.5731,-3.6148,-3.6596,-3.6985,-3.7584,-3.8063,-3.8063,-3.8571,-3.914,-3.9343,-3.9948,-4.0666,-4.1602,-4.2111,-4.262,-4.32,-4.3858,-4.4466,-4.4915,-4.5753,-4.6501,-4.692,-4.716,-4.7309,0.0,0.0,0.0,-4.7309,-4.7309,-4.7309,-4.7309,-4.7309,-4.7309,-4.7309,-4.7309,-4.7309,-4.7309,-4.7309,-4.7309,-4.7309,-4.7309,-4.7309,-4.7309,-4.7309,-4.7309,-4.7309,-4.7309,-4.7309,-4.7309,-4.7309,-4.7309,-4.7309,-4.7309,-4.7309,-4.7309,-4.7309,-4.7309,-4.7309,-4.7309,-4.7309,-4.7309,-4.7309,-4.7309,-4.7309,-4.7309,-4.7309,-4.7309,-4.7309,-4.7309,-4.7309,-4.7309,-4.7309,-4.7309,-4.7309,-4.7309,-4.7309,-4.7309,-4.7309,-4.7309,-4.7309,-4.7309,-4.7309,-4.7309,-4.7309,-4.7309,-4.7309,-4.7309,-4.7309,-4.7309,-4.7309,-4.7309,-4.7309,-4.7309,-4.7309,-4.7309,-4.7309,-4.7309,-4.7309,-4.7309,-4.7309,-4.7309,-4.7309,-4.7309,-4.7309,-4.7309,-4.7309,-4.7309,-4.7309,-4.7309,-4.7309,-4.7309,-4.7309,-3.6357,-3.6806,-3.7255,-3.7674,-3.8272,-3.8751,-3.8751,-3.911,-3.9499,-3.9738,-4.0098,-4.0606,-4.1265,-4.1961,-4.253,-4.291,-4.3928,-4.4825,-4.5244,-4.6082,-4.683,-4.7249,-4.7309,-4.7309,-4.7309,-4.7309,0.0,-4.7309,-4.7309,-4.7309,-4.7309,-4.7309,-4.7309,-4.7309,-4.7309,-4.7309,-4.7309,-4.7309,-4.7309,-4.7309,-4.7309,-4.7309,-4.7309,-4.7309,-4.7309,-4.7309,-4.7309,-4.7309,-4.7309,-4.7309,-4.7309,-4.7309,-4.7309,-4.7309,-4.7309,-4.7309,-4.7309,-4.7309,-4.7309,-4.7309,-4.7309,-4.7309,-4.7309,-4.7309,-4.7309,-4.7309,-4.7309,-4.7309,-4.7309,-4.7309,-4.7309,-4.7309,-4.7309,-4.7309,-4.7309,-4.7309,-4.7309,-4.7309,-4.7369,-4.7608,-4.7668,-4.7728,-4.7967,-4.7997,-4.7997,-4.7997,-4.7997,-4.7848,-4.7369,-4.7309,-4.7309,-4.7309,-4.7309,-4.7309,-4.7309,-4.7309,-4.7309,-4.7309,-4.7309,-4.7309,-4.7309,-4.7309,-4.7309,-4.7309,-4.7309,-4.7309,-4.7309,-4.7309,-4.7309,-4.7309,-4.7309,-4.7309,-3.6567,-3.7464,-3.8392,-3.8422,-3.8931,-3.9373,-3.9373,-3.9343,-3.9559,-4.0157,-4.0277,-4.0457,-4.1145,-4.1841,-4.2291,-4.2381,-4.3988,-4.5244,-4.5304,-4.6441,-4.7309,-4.7309,-4.7309,-4.7309,-4.7309,-4.7309,0.0,-4.7309,0.0,-4.7309,-4.7309,-4.7309,-4.7309,-4.7309,-4.7309,-4.7309,-4.7309,-4.7309,-4.7309,-4.7309,-4.7309,-4.7309,-4.7309,-4.7309,-4.7309,-4.7309,-4.7309,-4.7309,-4.7309,-4.7309,-4.7309,-4.7309,-4.7339,-4.7369,-4.7369,-4.7399,-4.7399,-4.7399,-4.7399,-4.7369,-4.7309,-4.7309,-4.7309,-4.7309,-4.7309,-4.7309,-4.7309,-4.7309,-4.7309,-4.7309,-4.7339,-4.7369,-4.7369,-4.7399,-4.7399,-4.7399,-4.7399,-4.7399,-4.7578,-4.8207,-4.8327,-4.8536,-4.9209,-4.9299,-4.9299,-4.9299,-4.9299,-4.885,-4.7519,-4.7369,-4.7339,-4.7309,-4.7309,-4.7309,-4.7309,-4.7309,-4.7309,-4.7309,-4.7309,-4.7309,-4.7309,-4.7309,-4.7309,-4.7309,-4.7309,-4.7309,-4.7309,-4.7309,-4.7309,-4.7309,-4.7309,-4.7309,-3.7644,-3.8153,-3.8512,-3.902,-3.9254,-3.9373,-3.9373,-3.902,-3.8691,-3.8871,-3.8512,-3.8542,-3.9709,-4.0068,-4.0666,-4.2171,-4.3599,-4.4736,-4.5214,-4.6441,-4.7309,-4.7309,-4.7309,-4.7309,-4.7309,-4.7309,-4.7309,0.0,-4.7309,-4.7309,-4.7309,-4.7309,-4.7309,-4.7309,-4.7309,-4.7309,-4.7309,-4.7309,-4.7309,-4.7309,-4.7309,-4.7309,-4.7309,-4.7309,-4.7309,-4.7309,-4.7309,-4.7309,-4.7309,-4.7309,-4.7309,-4.7369,-4.7848,-4.8027,-4.8087,-4.864,-4.882,-4.882,-4.882,-4.8117,-4.7309,-4.7309,-4.7309,-4.7309,-4.7309,-4.7309,-4.7309,-4.7309,-4.7309,-4.7429,-4.7908,-4.8027,-4.8147,-4.8656,-4.882,-4.882,-4.882,-4.882,-4.885,-4.903,-4.906,-4.912,-4.9269,-4.9299,-4.9299,-4.9299,-4.9299,-4.903,-4.8147,-4.8027,-4.7848,-4.7369,-4.7309,-4.7309,-4.7309,-4.7309,-4.7309,-4.7309,-4.7309,-4.7309,-4.7309,-4.7309,-4.7309,-4.7309,-4.7309,-4.7309,-4.7309,-4.7309,-4.7309,-4.7309,-4.7309,-4.7309,-3.8571,-3.8841,-3.899,-3.9679,-3.9619,-3.9313,-3.905,-3.8661,-3.8302,-3.8033,-3.7674,-3.7644,-3.8392,-3.902,-3.9888,-4.1265,-4.2851,-4.4227,-4.5155,-4.6202,-4.698,-4.7279,-4.7309,-4.7309,-4.7309,-4.7309,-4.7309,-4.7309,-4.7309,-4.7309,-4.7309,-4.7309,-4.7309,-4.7309,-4.7309,-4.7309,-4.7309,-4.7309,-4.7309,-4.7309,-4.7309,-4.7309,-4.7309,-4.7608,-4.7728,-4.7758,0.0,-4.8177,-4.8177,-4.8177,-4.8177,-4.8207,-4.8566,-4.876,-4.8745,-4.9179,-4.9299,-4.9299,-4.9299,-4.882,-4.8177,-4.8177,-4.8177,-4.8177,-4.8177,-4.8177,-4.8177,-4.8177,-4.8177,-4.8237,-4.8626,-4.876,-4.8805,-4.9209,-4.9299,-4.9299,-4.9299,-4.9299,-4.9389,-4.9643,-4.9912,-5.0122,-5.0122,-5.0122,-5.0122,-5.0122,-5.0122,-4.9883,-4.9224,-4.8895,-4.8566,-4.8207,-4.7908,-4.7728,-4.7728,-4.7489,-4.7309,-4.7309,-4.7309,-4.7309,-4.7309,-4.7309,-4.7309,-4.7309,-4.7309,-4.7309,-4.7309,-4.7309,-4.7309,-4.7309,-4.7309,-4.7309,-3.9349,-3.9499,-3.9589,-4.0247,-3.9918,-3.923,-3.8542,-3.8332,-3.8063,-3.7434,-3.7225,-3.7195,-3.7255,-3.8242,-3.929,-4.0127,-4.1833,-4.3529,-4.4975,-4.5843,-4.6561,-4.7219,-4.7309,-4.7309,-4.7309,-4.7309,-4.7309,-4.7309,-4.7309,-4.7309,-4.7309,-4.7309,-4.7309,-4.7309,-4.7309,-4.7309,-4.7309,-4.7309,-4.7339,-4.7429,-4.7429,-4.7489,-4.7578,-4.8147,-4.8416,-4.8446,-4.906,0.0,-4.9299,-4.9299,-4.9299,-4.9329,-4.9419,-4.9449,-4.9449,-4.9539,-4.9569,-4.9569,-4.9569,-4.9569,-4.9539,-4.9359,-4.9299,-4.9299,-4.9299,-4.9299,-4.9299,-4.9299,-4.9299,-4.9329,-4.9419,-4.9449,-4.9404,-4.9539,-4.9569,-4.9569,-4.9569,-4.9569,-4.9703,-5.0196,-5.0794,-5.1229,-5.1229,-5.1229,-5.1229,-5.1229,-5.1229,-5.102,-5.0405,-4.9793,-4.9419,-4.9329,-4.879,-4.8416,-4.8416,-4.7818,-4.7429,-4.7429,-4.7369,-4.7309,-4.7309,-4.7309,-4.7309,-4.7309,-4.7309,-4.7309,-4.7309,-4.7309,-4.7309,-4.7309,-4.7309,-4.7309,-3.9888,-3.9828,-3.9589,-4.0247,-3.9918,-3.923,-3.8542,-3.7973,-3.7404,-3.6776,-3.6207,-3.5998,-3.6537,-3.6836,-3.7554,-3.932,-4.0786,-4.2372,-4.4227,-4.5544,-4.6561,-4.7219,-4.7309,-4.7309,-4.7309,-4.7309,-4.7309,0.0,-4.7309,-4.7309,-4.7309,-4.7309,-4.7309,-4.7309,-4.7309,-4.7309,-4.7309,-4.7309,-4.7578,-4.8117,-4.8117,-4.8386,-4.897,-4.909,-4.9149,-4.9149,-4.9269,0.0,-4.9299,-4.9299,-4.9299,-4.9359,-4.9853,-5.0016,-5.0076,-5.069,-5.087,-5.087,-5.087,-5.087,-5.069,-4.9613,-4.9299,-4.9299,-4.9299,-4.9299,-4.9299,-4.9299,-4.9299,-4.9419,-4.9912,-5.0016,-5.0166,-5.075,-5.087,-5.087,-5.087,-5.087,-5.09,-5.102,-5.1139,-5.1229,-5.1229,-5.1229,-5.1229,-5.1229,-5.1229,-5.1169,-5.105,-5.0435,-4.9853,-4.9359,-4.9209,-4.9149,-4.9149,-4.8506,-4.8117,-4.8117,-4.7608,-4.7309,-4.7309,-4.7309,-4.7309,-4.7309,-4.7309,-4.7309,-4.7309,-4.7309,-4.7309,-4.7309,-4.7309,-4.7309,-4.0546,-4.0187,-3.9612,-4.0666,-3.9888,-3.8691,-3.8033,-3.7375,-3.6746,-3.6118,-3.5729,-3.5609,-3.5908,-3.6237,-3.7015,-3.8631,-4.0008,-4.1564,-4.3499,-4.4945,-4.6052,-4.6711,-4.71,-4.7309,-4.7309,-4.7309,-4.7309,-4.7309,-4.7309,-4.7309,-4.7309,-4.7309,-4.7309,-4.7309,-4.7638,-4.7818,-4.7818,-4.8147,-4.8476,-4.8805,-4.8805,-4.9,-4.9329,-4.9613,-4.9763,-4.9793,-5.0122,0.0,-5.0272,-5.0272,-5.0272,-5.0301,-5.0631,-5.0704,-5.0734,-5.1063,-5.1229,-5.1229,-5.1229,-5.1229,-5.1109,-5.0481,-5.0272,-5.0272,-5.0272,-5.0272,-5.0272,-5.0272,-5.0272,-5.0361,-5.0661,-5.0704,-5.0794,-5.1139,-5.1229,-5.1229,-5.1229,-5.1229,-5.1229,-5.1229,-5.1229,-5.1229,-5.1229,-5.1229,-5.1229,-5.1229,-5.1229,-5.1229,-5.1229,-5.0913,-5.0631,-5.0331,-4.9972,-4.9763,-4.9763,-4.9164,-4.8805,-4.8805,-4.8177,-4.7818,-4.7818,-4.7489,-4.7309,-4.7309,-4.7309,-4.7309,-4.7309,-4.7309,-4.7309,-4.7309,-4.7309,-4.7309,-4.0816,-4.0307,-3.9679,-4.0696,-3.9679,-3.8182,-3.7404,-3.6836,-3.6267,-3.5459,-3.528,-3.528,-3.528,-3.5699,-3.6477,-3.7764,-3.911,-4.0666,-4.2641,-4.4167,-4.5394,-4.619,-4.689,-4.7309,-4.7309,-4.7309,0.0,-4.7309,0.0,0.0,-4.7519,-4.7519,-4.7578,-4.7728,-4.8237,-4.8506,-4.8506,-4.906,-4.9389,-4.9464,-4.9464,-4.9553,-4.9703,-5.0212,-5.0405,-5.0435,-5.0943,0.0,0.0,-5.1229,-5.1229,-5.1229,-5.1229,-5.1229,-5.1229,-5.1229,-5.1229,-5.1229,-5.1229,-5.1229,-5.1229,-5.1229,-5.1229,-5.1229,-5.1229,-5.1229,-5.1229,-5.1229,-5.1229,-5.1229,-5.1229,-5.1229,-5.1229,-5.1229,-5.1229,-5.1229,-5.1229,-5.1229,-5.1229,-5.1229,-5.1229,-5.1229,-5.1229,-5.1229,-5.1229,-5.1229,-5.1229,-5.1229,-5.1229,-5.1229,-5.1229,-5.1229,-5.0704,-5.0405,-5.0405,-4.9853,-4.9464,-4.9464,-4.8865,-4.8446,-4.8297,-4.7788,-4.7459,-4.7309,-4.7309,-4.7309,-4.7309,-4.7309,-4.7309,-4.7309,-4.7309,-4.7309,-4.0127,-3.9978,-3.9439,-3.9559,-3.899,-3.8063,-3.6836,-3.6537,-3.6151,-3.4863,-3.4593,-3.4593,-3.4593,-3.4653,-3.5132,-3.6447,-3.7734,-3.926,-4.1265,-4.321,-4.4885,-4.613,-4.689,-4.7309,-4.7309,-4.7309,-4.7309,-4.7309,0.0,0.0,-4.8207,-4.8207,-4.8476,-4.912,-4.9179,-4.9209,-4.9209,-4.9269,-4.9583,-5.0106,-5.0106,-5.0451,-5.105,-5.1109,-5.1139,-5.1139,-5.1199,0.0,0.0,-5.1229,-5.1229,-5.1229,-5.1229,-5.1229,-5.1229,-5.1229,-5.1229,-5.1229,-5.1229,-5.1229,-5.1229,-5.1229,-5.1229,-5.1229,-5.1229,-5.1229,-5.1229,-5.1229,-5.1229,-5.1229,-5.1229,-5.1229,-5.1229,-5.1229,-5.1229,-5.1229,-5.1229,-5.1229,-5.1229,-5.1229,-5.1229,-5.1229,-5.1229,-5.1229,-5.1229,-5.1229,-5.1229,-5.1229,-5.1229,-5.1229,-5.1229,-5.1229,-5.1122,-5.1139,-5.1139,-5.0495,-5.0106,-5.0106,-4.9553,-4.897,-4.8327,-4.8237,-4.7908,-4.7309,-4.7309,-4.7309,-4.7309,-4.7309,-4.7309,-4.7309,-4.7309,-4.7309,-3.9559,-3.932,-3.8901,-3.932,-3.8332,-3.7105,-3.6596,-3.5881,-3.5162,-3.4623,-3.4204,-3.3993,-3.4444,-3.4503,-3.4953,-3.6267,-3.7554,-3.896,-4.0576,-4.2821,-4.4676,-4.5603,-4.6651,-4.7309,-4.7309,0.0,-4.7459,0.0,0.0,0.0,-4.9434,-4.9105,-4.903,-4.9299,-4.9643,-4.9853,-4.9853,-5.0242,-5.0571,-5.0794,-5.0794,-5.096,-5.1229,-5.1229,-5.1229,-5.1229,-5.1229,0.0,0.0,-5.1229,-5.1229,-5.1229,-5.1229,-5.1229,-5.1229,-5.1229,-5.1229,-5.1229,-5.1229,-5.1229,-5.1229,-5.1229,-5.1229,-5.1229,-5.1229,-5.1229,-5.1229,-5.1229,-5.1229,-5.1229,-5.1229,-5.1229,-5.1229,-5.1229,-5.1229,-5.1229,-5.1229,-5.1229,-5.1229,-5.1229,-5.1229,-5.1229,-5.1229,-5.1229,-5.1229,-5.1229,-5.1229,-5.1229,-5.1229,-5.1229,-5.1229,-5.1229,-5.1229,-5.1229,-5.1229,-5.099,-5.0794,-5.0794,-5.0212,-4.9733,-4.9464,-4.8716,-4.8147,-4.7908,-4.7519,-4.7309,-4.7309,-4.7309,-4.7309,-4.7309,-4.7309,-4.7309,-3.8631,-3.8482,-3.8182,-3.8482,-3.7494,-3.6447,-3.6237,-3.5342,-3.4444,-3.4264,-3.3664,-3.3335,-3.3814,-3.4053,-3.4593,-3.5699,-3.7135,-3.8571,-3.9918,-4.2372,-4.4347,-4.5185,-4.6471,-4.7309,-4.7309,-4.7489,-4.7878,0.0,0.0,0.0,-5.0435,-5.0092,-4.9853,-4.9853,-5.0301,-5.0495,-5.0495,-5.0943,-5.1229,-5.1229,-5.1229,-5.1229,-5.1229,-5.1229,-5.1229,-5.1229,0.0,0.0,0.0,-5.1229,-5.1229,-5.1229,-5.1229,-5.1229,-5.1229,-5.1229,-5.1229,-5.1229,-5.1229,-5.1229,-5.1229,-5.1229,-5.1229,-5.1229,-5.1229,-5.1229,-5.1229,-5.1229,-5.1229,-5.1229,-5.1229,-5.1229,-5.1229,-5.1229,-5.1229,-5.1229,-5.1229,-5.1229,-5.1229,-5.1229,-5.1229,-5.1229,-5.1229,-5.1229,-5.1229,-5.1229,-5.1229,-5.1229,-5.1229,-5.1229,-5.1229,-5.1229,-5.1229,-5.1229,-5.1229,-5.1229,-5.1229,-5.1229,-5.0734,-5.0405,-5.0196,-4.9344,-4.8686,-4.8297,-4.7848,-4.7489,-4.7309,-4.7309,-4.7309,-4.7309,-4.7309,-4.7309,-3.7255,-3.7434,-3.7285,-3.6656,-3.6507,-3.6327,-3.5669,-3.4981,-3.4324,-3.3634,-3.2976,-3.2497,-3.2497,-3.3066,-3.3724,-3.4414,-3.6148,-3.7883,-3.9194,-4.1645,-4.3838,-4.5125,-4.6471,-4.7309,-4.7309,-4.7908,0.0,0.0,0.0,0.0,-5.1169,-5.1199,-5.1199,-5.1199,-5.1199,-5.1199,-5.1199,-5.1229,-5.1229,-5.1229,-5.1229,-5.1229,-5.1229,-5.1229,-5.1229,0.0,0.0,0.0,0.0,-5.1229,-5.1229,-5.1229,-5.1229,-5.1229,-5.1229,-5.1229,-5.1229,-5.1229,-5.1229,-5.1229,-5.1229,-5.1229,-5.1229,-5.1229,-5.1229,-5.1229,-5.1229,-5.1229,-5.1229,-5.1229,-5.1229,-5.1229,-5.1229,-5.1229,-5.1229,-5.1229,-5.1229,-5.1229,-5.1229,-5.1229,-5.1229,-5.1229,-5.1229,-5.1229,-5.1229,-5.1229,-5.1229,-5.1229,-5.1229,-5.1229,-5.1229,-5.1229,-5.1229,-5.1229,-5.1229,-5.1229,-5.1229,-5.1229,-5.1199,-5.0853,-5.0226,-5.0196,-4.9613,-4.8297,-4.8267,-4.7967,-4.7309,-4.7309,-4.7309,-4.7309,-4.7309,-4.7309,-3.6716,-3.6776,-3.6716,-3.6537,-3.6148,-3.5639,-3.4951,-3.4292,-3.3634,-3.2946,-3.2258,-3.2079,-3.3006,-3.3365,-3.3873,-3.5011,-3.6447,-3.7883,-3.9194,-4.1713,-4.3838,-4.5155,-4.6471,-4.7309,0.0,0.0,0.0,0.0,0.0,0.0,-5.1169,-5.1229,-5.1229,-5.1229,-5.1229,-5.1229,-5.1229,-5.1229,-5.1229,-5.1229,-5.1229,-5.1229,-5.1229,-5.1229,0.0,0.0,0.0,0.0,0.0,-5.1229,-5.1229,-5.1229,-5.1229,-5.1229,-5.1229,-5.1229,-5.1229,-5.1229,-5.1229,-5.1229,-5.1229,-5.1229,-5.1229,-5.1229,-5.1229,-5.1229,-5.1229,-5.1229,-5.1229,-5.1229,-5.1229,-5.1229,-5.1229,-5.1229,-5.1229,-5.1229,-5.1229,-5.1229,-5.1229,-5.1229,-5.1229,-5.1229,-5.1229,-5.1229,-5.1229,-5.1229,-5.1229,-5.1229,-5.1229,-5.1229,-5.1229,-5.1229,-5.1229,-5.1229,-5.1229,-5.1229,-5.1229,-5.1229,-5.1229,-5.1109,-5.0853,-5.0435,-4.9986,-4.9643,-4.8745,-4.8177,-4.7967,-4.7519,-4.7309,-4.7309,-4.7309,-4.7309,-3.5701,-3.5908,-3.6118,-3.6118,-3.5609,-3.5011,-3.4623,-3.3784,-3.3006,-3.2587,-3.1959,-3.1839,-3.2916,-3.3335,-3.3933,-3.528,-3.6567,-3.7973,-3.9559,-4.1863,-4.4047,-4.5843,-4.68,0.0,0.0,0.0,0.0,0.0,0.0,0.0,-5.1199,-5.1229,-5.1229,-5.1229,-5.1229,-5.1229,-5.1229,-5.1229,-5.1229,-5.1229,-5.1229,-5.1229,-5.1229,-5.1229,0.0,0.0,0.0,0.0,0.0,-5.1229,-5.1229,-5.1229,-5.1229,-5.1229,-5.1229,-5.1229,-5.1229,-5.1229,-5.1229,-5.1229,-5.1229,-5.1229,-5.1229,-5.1229,-5.1229,-5.1229,-5.1229,-5.1229,-5.1229,-5.1229,-5.1229,-5.1229,-5.1229,-5.1229,-5.1229,-5.1229,-5.1229,-5.1229,-5.1229,-5.1229,-5.1229,-5.1229,-5.1229,-5.1229,-5.1229,-5.1229,-5.1229,-5.1229,-5.1229,-5.1229,-5.1229,-5.1229,-5.1229,-5.1229,-5.1229,-5.1229,-5.1229,-5.1229,-5.1229,-5.1229,-5.1229,-5.0794,-5.0435,-5.0196,-4.9434,-4.8775,-4.8297,-4.7638,-4.7309,-4.7309,-4.7309,-4.7309,0.0,-3.4861,-3.5459,-3.5489,-3.5011,-3.4563,-3.4503,-3.3544,0.0,-3.2587,-3.2079,-3.1839,-3.2527,-3.3155,-3.3993,-3.534,-3.6656,-3.8182,-4.0187,-4.2252,-4.4456,-4.701,-4.7309,0.0,-4.7309,0.0,0.0,0.0,0.0,0.0,-5.1229,-5.1229,-5.1229,-5.1229,-5.1229,-5.1229,-5.1229,-5.1229,-5.1229,-5.1229,-5.1229,-5.1229,-5.1229,-5.1229,0.0,0.0,0.0,0.0,0.0,-5.1229,-5.1229,-5.1229,-5.1229,-5.1229,-5.1229,-5.1229,-5.1229,-5.1229,-5.1229,-5.1229,-5.1229,-5.1229,-5.1229,-5.1229,-5.1229,-5.1229,-5.1229,-5.1229,-5.1229,-5.1229,-5.1229,-5.1229,-5.1229,-5.1229,-5.1229,-5.1229,-5.1229,-5.1229,-5.1229,-5.1229,-5.1229,-5.1229,-5.1229,-5.1229,-5.1229,-5.1229,-5.1229,-5.1229,-5.1229,-5.1229,-5.1229,-5.1229,-5.1229,-5.1229,-5.1229,-5.1229,-5.1229,-5.1229,-5.1229,-5.1229,-5.1229,-5.1229,-5.0883,-5.0285,-5.0226,-4.9583,-4.8297,-4.7668,-4.7369,-4.7309,-4.7309,-4.7309,-3.2796,0.0,-3.4831,-3.537,-3.537,-3.513,0.0,-3.4264,-3.3873,-3.3365,-3.3155,-3.3245,-3.3903,-3.4174,-3.4681,-3.6028,-3.7315,-3.8871,-4.0876,-4.3718,-4.601,-4.716,-4.7309,-4.7309,-4.7309,0.0,0.0,0.0,0.0,-5.1229,-5.1229,-5.1229,-5.1229,-5.1229,-5.1229,-5.1229,-5.1229,-5.1229,-5.1229,-5.1229,-5.1229,-5.1229,-5.1229,-5.1229,0.0,0.0,0.0,0.0,-5.1229,-5.1229,-5.1229,-5.1229,-5.1229,-5.1229,-5.1229,-5.1229,-5.1229,-5.1229,-5.1229,-5.1229,-5.1229,-5.1229,-5.1229,-5.1229,-5.1229,-5.1229,-5.1229,-5.1229,-5.1229,-5.1229,-5.1229,-5.1229,-5.1229,-5.1229,-5.1229,-5.1229,-5.1229,-5.1229,-5.1229,-5.1229,-5.1229,-5.1229,-5.1229,-5.1229,-5.1229,-5.1229,-5.1229,-5.1229,-5.1229,-5.1229,-5.1229,-5.1229,-5.1229,-5.1229,-5.1229,-5.1229,-5.1229,-5.1229,-5.1229,-5.1229,-5.1229,-5.1229,-5.1139,-5.099,-5.0435,-4.9583,-4.8297,-4.8117,-4.7788,-4.7309,-4.7309,-4.7309,-3.2228,-3.3484,-3.4593,-3.4951,-3.504,-3.4951,-3.4593,-3.4264,-3.3933,-3.3574,-3.3484,-3.3694,-3.4384,-3.4741,-3.5489,-3.7105,-3.8452,-4.0217,-4.2821,-4.4975,-4.6561,-4.7219,-4.7578,-4.7758,0.0,0.0,0.0,0.0,0.0,-5.1229,-5.1229,-5.1229,-5.1229,-5.1229,-5.1229,-5.1229,-5.1229,-5.1229,-5.1229,-5.1229,-5.1229,-5.1229,-5.1229,-5.1229,-5.1229,0.0,0.0,0.0,-5.1229,-5.1229,-5.1229,-5.1229,-5.1229,-5.1229,-5.1229,-5.1229,-5.1229,-5.1229,-5.1229,-5.1229,-5.1229,-5.1229,-5.1229,-5.1229,-5.1229,-5.1229,-5.1229,-5.1229,-5.1229,-5.1229,-5.1229,-5.1229,-5.1229,-5.1229,-5.1229,-5.1229,-5.1229,-5.1229,-5.1229,-5.1229,-5.1229,-5.1229,-5.1229,-5.1229,-5.1229,-5.1229,-5.1229,-5.1229,-5.1229,-5.1229,-5.1229,-5.1229,-5.1229,-5.1229,-5.1229,-5.1229,-5.1229,-5.1229,-5.1229,-5.1229,-5.1229,-5.1229,-5.1229,-5.1229,-5.0524,-4.9837,-4.9194,-4.8596,-4.8087,-4.7758,-4.7429,-4.7309,-3.2018,-3.3335,-3.4384,-3.4474,-3.4503,-3.4533,-3.4653,-3.4203,-3.3814,-3.3814,-3.3873,-3.4113,-3.4713,-3.5429,-3.6507,-3.8272,-3.9918,-4.2043,-4.5035,-4.6052,-4.6681,-4.7249,-4.7878,0.0,0.0,0.0,0.0,0.0,0.0,-5.1229,-5.1229,-5.1229,-5.1229,-5.1229,-5.1229,-5.1229,-5.1229,-5.1229,-5.1229,-5.1229,-5.1229,-5.1229,-5.1229,-5.1229,-5.1229,0.0,0.0,0.0,-5.1229,-5.1229,-5.1229,-5.1229,-5.1229,-5.1229,-5.1229,-5.1229,-5.1229,-5.1229,-5.1229,-5.1229,-5.1229,-5.1229,-5.1229,-5.1229,-5.1229,-5.1229,-5.1229,-5.1229,-5.1229,-5.1229,-5.1229,-5.1229,-5.1229,-5.1229,-5.1229,-5.1229,-5.1229,-5.1229,-5.1229,-5.1229,-5.1229,-5.1229,-5.1229,-5.1229,-5.1229,-5.1229,-5.1229,-5.1229,-5.1229,-5.1229,-5.1229,-5.1229,-5.1229,-5.1229,-5.1229,-5.1229,-5.1229,-5.1229,-5.1229,-5.1229,-5.1229,-5.1229,-5.1229,-5.1229,-5.0614,-5.0285,-5.0196,-4.9134,-4.8536,-4.8416,-4.7758,-4.7459,-3.1301,-3.2647,-3.3784,-3.4384,-3.4503,-3.4653,-3.522,-3.528,-3.519,-3.519,-3.5639,-3.6058,-3.6148,-3.7135,-3.8242,-3.911,-4.1773,-4.4287,-4.5933,-4.6741,-4.7189,-4.7309,0.0,0.0,0.0,0.0,0.0,0.0,0.0,0.0,-5.1229,-5.1229,-5.1229,-5.1229,-5.1229,-5.1229,-5.1229,-5.1229,-5.1229,-5.1229,-5.1229,-5.1229,-5.1229,-5.1229,-5.1229,0.0,0.0,-5.1229,-5.1229,-5.1229,-5.1229,-5.1229,-5.1229,-5.1229,-5.1229,-5.1229,-5.1229,-5.1229,-5.1229,-5.1229,-5.1229,-5.1229,-5.1229,-5.1229,-5.1229,-5.1229,-5.1229,-5.1229,-5.1229,-5.1229,-5.1229,-5.1229,-5.1229,-5.1229,-5.1229,-5.1229,-5.1229,-5.1229,-5.1229,-5.1229,-5.1229,-5.1229,-5.1229,-5.1229,-5.1229,-5.1229,-5.1229,-5.1229,-5.1229,-5.1229,-5.1229,-5.1229,-5.1229,-5.1229,-5.1229,-5.1229,-5.1229,-5.1229,-5.1229,-5.1229,-5.1229,-5.1229,-5.1229,-5.1229,-5.1109,-5.0734,-5.0196,-4.9986,-4.9673,-4.9149,-4.8446,-4.8147,-3.166,-3.2497,-3.3215,-3.4264,-3.4771,-3.513,-3.5429,-3.5789,-3.6028,-3.6028,-3.6537,-3.7105,-3.7434,-3.8302,-3.9619,-4.1713,-4.3928,-4.5723,-4.6711,-4.713,-4.7309,0.0,0.0,0.0,0.0,0.0,0.0,0.0,0.0,0.0,-5.1229,-5.1229,-5.1229,-5.1229,-5.1229,-5.1229,-5.1229,-5.1229,-5.1229,-5.1229,-5.1229,-5.1229,-5.1229,-5.1229,-5.1229,-5.1229,0.0,-5.1229,-5.1229,-5.1229,-5.1229,-5.1229,-5.1229,-5.1229,-5.1229,-5.1229,-5.1229,-5.1229,-5.1229,-5.1229,-5.1229,-5.1229,-5.1229,-5.1229,-5.1229,-5.1229,-5.1229,-5.1229,-5.1229,-5.1229,-5.1229,-5.1229,-5.1229,-5.1229,-5.1229,-5.1229,-5.1229,-5.1229,-5.1229,-5.1229,-5.1229,-5.1229,-5.1229,-5.1229,-5.1229,-5.1229,-5.1229,-5.1229,-5.1229,-5.1229,-5.1229,-5.1229,-5.1229,-5.1229,-5.1229,-5.1229,-5.1229,-5.1229,-5.1229,-5.1229,-5.1229,-5.1229,-5.1229,-5.1229,-5.1229,-5.1079,-5.0734,-5.0375,-5.0046,-4.9763,-4.9134,-4.885,-3.2198,-3.2736,-3.3245,-3.4412,-3.513,-3.5549,-3.5699,-3.6237,-3.6746,-3.6896,-3.7434,-3.8123,-3.8931,-3.9888,-4.1466,-4.4317,-4.5663,-4.6518,-4.7219,-4.7309,-4.7309,0.0,0.0,0.0,0.0,0.0,0.0,0.0,0.0,0.0,-5.1229,0.0,-5.1229,-5.1229,-5.1229,-5.1229,-5.1229,-5.1229,-5.1229,-5.1229,-5.1229,-5.1229,-5.1229,-5.1229,-5.1229,-5.1229,-5.1229,-5.1229,-5.1229,-5.1229,-5.1229,-5.1229,-5.1229,-5.1229,-5.1229,-5.1229,-5.1229,-5.1229,-5.1229,-5.1229,-5.1229,-5.1229,-5.1229,-5.1229,-5.1229,-5.1229,-5.1229,-5.1229,-5.1229,-5.1229,-5.1229,-5.1229,-5.1229,-5.1229,-5.1229,-5.1229,-5.1229,-5.1229,-5.1229,-5.1229,-5.1229,-5.1229,-5.1229,-5.1229,-5.1229,-5.1229,-5.1229,-5.1229,-5.1229,-5.1229,-5.1229,-5.1229,-5.1229,-5.1229,-5.1229,-5.1229,-5.1229,-5.1229,-5.1229,-5.1229,-5.1229,-5.1229,-5.1229,-5.1229,-5.1229,-5.1229,-5.1229,-5.0674,-5.0435,-5.0405,-4.9793,-4.9494,-3.2288,-3.3395,-3.4533,-3.525,-3.5459,-3.5669,-3.6267,-3.6896,-3.7524,-3.8123,-3.8781,-3.9649,-4.0935,-4.2701,-4.4436,-4.5933,-4.6219,-4.6518,-4.7219,0.0,0.0,0.0,0.0,0.0,0.0,0.0,0.0,0.0,0.0,0.0,0.0,0.0,0.0,-5.1229,-5.1229,-5.1229,-5.1229,-5.1229,-5.1229,-5.1229,-5.1229,-5.1229,-5.1229,-5.1229,-5.1229,-5.1229,-5.1229,-5.1229,-5.1229,-5.1229,-5.1229,-5.1229,-5.1229,-5.1229,-5.1229,-5.1229,-5.1229,-5.1229,-5.1229,-5.1229,-5.1229,-5.1229,-5.1229,-5.1229,-5.1229,-5.1229,-5.1229,-5.1229,-5.1229,-5.1229,-5.1229,-5.1229,-5.1229,-5.1229,-5.1229,-5.1229,-5.1229,-5.1229,-5.1229,-5.1229,-5.1229,-5.1229,-5.1229,-5.1229,-5.1229,-5.1229,-5.1229,-5.1229,-5.1229,-5.1229,-5.1229,-5.1229,-5.1229,-5.1229,-5.1229,-5.1229,-5.1229,-5.1229,-5.1229,-5.1229,-5.1229,-5.1229,-5.1229,-5.1229,-5.1229,-5.1229,-5.1229,-5.1169,-5.1139,-5.1139,-5.0435,-5.0136,-3.2946,-3.4113,-3.528,-3.5938,-3.7045,-3.7883,-3.7704,-3.8182,-3.8841,-3.9499,-4.0487,-4.1654,-4.297,-4.4496,-4.5681,-4.619,-4.6681,-4.701,-4.7279,0.0,0.0,0.0,0.0,0.0,0.0,0.0,0.0,0.0,0.0,0.0,0.0,0.0,0.0,-5.1229,-5.1229,-5.1229,-5.1229,-5.1229,-5.1229,-5.1229,-5.1229,-5.1229,-5.1229,-5.1229,-5.1229,-5.1229,-5.1229,-5.1229,-5.1229,-5.1229,-5.1229,-5.1229,-5.1229,-5.1229,-5.1229,-5.1229,-5.1229,-5.1229,-5.1229,-5.1229,-5.1229,-5.1229,-5.1229,-5.1229,-5.1229,-5.1229,-5.1229,-5.1229,-5.1229,-5.1229,-5.1229,-5.1229,-5.1229,-5.1229,-5.1229,-5.1229,-5.1229,-5.1229,-5.1229,-5.1229,-5.1229,-5.1229,-5.1229,-5.1229,-5.1229,-5.1229,-5.1229,-5.1229,-5.1229,-5.1229,-5.1229,-5.1229,-5.1229,-5.1229,-5.1229,-5.1229,-5.1229,-5.1229,-5.1229,-5.1229,-5.1229,-5.1229,-5.1229,-5.1229,-5.1229,-5.1229,-5.1229,-5.1229,-5.1229,-5.1199,-5.096,-5.0794,-3.3634,-3.4771,-3.6028,-3.6866,-3.8272,-3.9499,-3.9858,-4.0157,-4.0576,-4.1444,-4.2701,-4.3898,-4.4796,-4.5873,-4.6621,-4.6621,-4.701,-4.7309,0.0,0.0,0.0,0.0,0.0,0.0,0.0,0.0,0.0,0.0,0.0,0.0,0.0,0.0,0.0,0.0,-5.1229,-5.1229,-5.1229,-5.1229,-5.1229,-5.1229,-5.1229,-5.1229,-5.1229,-5.1229,-5.1229,-5.1229,-5.1229,-5.1229,-5.1229,-5.1229,-5.1229,-5.1229,-5.1229,-5.1229,-5.1229,-5.1229,-5.1229,-5.1229,-5.1229,-5.1229,-5.1229,-5.1229,-5.1229,-5.1229,-5.1229,-5.1229,-5.1229,-5.1229,-5.1379,-5.1528,-5.1528,-5.1528,-5.1528,-5.1528,-5.1678,-5.1828,-5.1828,-5.1828,-5.1828,-5.1828,-5.1828,-5.1828,-5.1828,-5.1828,-5.1768,-5.1558,-5.1528,-5.1439,-5.1259,-5.1229,-5.1229,-5.1229,-5.1229,-5.1229,-5.1229,-5.1229,-5.1229,-5.1229,-5.1229,-5.1229,-5.1229,-5.1229,-5.1229,-5.1229,-5.1229,-5.1229,-5.1229,-5.1229,-5.1229,-5.1229,-5.1229,-5.1229,-3.4324,-3.5459,-3.6806,-3.8063,-3.8931,-4.0091,-4.2722,-4.2851,-4.277,-4.4077,-4.5394,-4.6279,-4.6279,-4.686,-4.7309,-4.7309,-4.7309,-4.7309,0.0,0.0,0.0,0.0,0.0,0.0,0.0,0.0,0.0,0.0,0.0,0.0,0.0,0.0,0.0,0.0,-5.1229,-5.1229,-5.1229,-5.1229,-5.1229,-5.1229,-5.1229,-5.1229,-5.1229,-5.1229,-5.1229,-5.1229,-5.1229,-5.1229,-5.1229,-5.1229,-5.1229,-5.1229,-5.1229,-5.1229,-5.1229,-5.1229,-5.1229,-5.1229,-5.1229,-5.1229,-5.1229,-5.1229,-5.1229,-5.1229,-5.1229,-5.1229,-5.1229,-5.1229,-5.1708,-5.2217,-5.2217,-5.2217,-5.2217,-5.2217,-5.2695,-5.3174,-5.3174,-5.3174,-5.3174,-5.3174,-5.3174,-5.3174,-5.3174,-5.3174,-5.2965,-5.2306,-5.2217,-5.1977,-5.1319,-5.1229,-5.1229,-5.1229,-5.1229,-5.1229,-5.1229,-5.1229,-5.1229,-5.1229,-5.1229,-5.1229,-5.1229,-5.1229,-5.1229,-5.1229,-5.1229,-5.1229,-5.1229,-5.1229,-5.1229,-5.1229,-5.1229,-5.1229,-3.4324,-3.5789,-3.7345,-3.8182,-3.9984,-4.1923,-4.3629,-4.3509,-4.3539,-4.5364,-4.601,-4.6429,-4.692,-4.7189,0.0,-4.7309,-4.7309,0.0,0.0,0.0,0.0,0.0,0.0,0.0,0.0,0.0,0.0,0.0,0.0,0.0,0.0,0.0,0.0,0.0,-5.1229,-5.1229,-5.1229,-5.1229,-5.1229,-5.1229,-5.1229,-5.1229,-5.1229,-5.1229,-5.1229,-5.1229,-5.1229,-5.1229,-5.1229,-5.1229,-5.1229,-5.1229,-5.1229,-5.1229,-5.1229,-5.1229,-5.1229,-5.1229,-5.1229,-5.1229,-5.1229,-5.1229,-5.1229,-5.1229,-5.1229,-5.1528,-5.1917,-5.1917,-5.2396,-5.2875,-5.2875,-5.3234,-5.3503,-5.2995,-5.3025,-5.3174,-5.3174,-5.3174,-5.3174,-5.3174,-5.3174,-5.3174,-5.3174,-5.3174,-5.3114,-5.2905,-5.2875,-5.2665,-5.2007,-5.1917,-5.1738,-5.1259,-5.1229,-5.1229,-5.1229,-5.1229,-5.1229,-5.1229,-5.1229,-5.1229,-5.1229,-5.1229,-5.1229,-5.1229,-5.1229,-5.1229,-5.1229,-5.1229,-5.1229,-5.1229,-5.1229,-5.1229,-3.4983,-3.6327,-3.7704,-3.8901,-4.0823,-4.289,-4.4676,-4.5005,-4.5203,-4.6471,-4.6711,-4.683,-4.7249,-4.7309,0.0,0.0,0.0,0.0,0.0,0.0,0.0,0.0,0.0,0.0,0.0,0.0,0.0,0.0,0.0,0.0,0.0,0.0,0.0,0.0,-5.1229,-5.1229,-5.1229,-5.1229,-5.1229,-5.1229,-5.1229,-5.1229,-5.1229,-5.1229,-5.1229,-5.1229,-5.1229,-5.1229,-5.1229,-5.1229,-5.1229,-5.1229,-5.1229,-5.1229,-5.1229,-5.1229,-5.1229,-5.1229,-5.1229,-5.1229,-5.1229,-5.1229,-5.1229,-5.1259,-5.1528,-5.1887,-5.2247,-5.2516,-5.3084,-5.3593,-5.3593,-5.4102,-5.4431,-5.3743,-5.3803,-5.3982,-5.3982,-5.3982,-5.3982,-5.3982,-5.3982,-5.3982,-5.3982,-5.3982,-5.3892,-5.3623,-5.3354,-5.3025,-5.2636,-5.2606,-5.2336,-5.1678,-5.1618,-5.1498,-5.1229,-5.1229,-5.1229,-5.1229,-5.1229,-5.1229,-5.1229,-5.1229,-5.1229,-5.1229,-5.1229,-5.1229,-5.1229,-5.1229,-5.1229,-5.1229,-5.1229,-5.1229,-3.5938,-3.6985,-3.7973,-3.9918,-4.1534,-4.3339,-4.5843,-4.686,-4.7309,-4.7309,-4.7309,-4.7309,-4.7309,-4.7309,-4.7309,0.0,0.0,0.0,0.0,0.0,0.0,0.0,0.0,0.0,0.0,0.0,0.0,0.0,0.0,0.0,0.0,0.0,0.0,-5.1229,-5.1229,-5.1229,-5.1229,-5.1229,-5.1229,0.0,-5.1229,-5.1229,-5.1229,-5.1229,-5.1229,-5.1229,-5.1229,-5.1229,-5.1229,-5.1229,-5.1229,-5.1229,-5.1229,-5.1229,-5.1229,-5.1229,-5.1229,-5.1229,-5.1229,-5.1229,-5.1229,-5.1289,-5.1319,-5.1439,-5.2097,-5.2336,-5.2516,-5.3114,-5.3773,-5.4311,-5.4311,-5.473,-5.5029,-5.4431,-5.476,-5.5179,-5.5179,-5.5179,-5.5179,-5.5179,-5.5179,-5.5179,-5.5179,-5.5179,-5.497,-5.4401,-5.3773,-5.3354,-5.3294,-5.3264,-5.3025,-5.2366,-5.2276,-5.2037,-5.1379,-5.1319,-5.1289,-5.1229,-5.1229,-5.1229,-5.1229,-5.1229,-5.1229,-5.1229,-5.1229,-5.1229,-5.1229,-5.1229,-5.1229,-5.1229,-5.1229,-5.1229,-3.5938,-3.7315,-3.8542,-4.0038,-4.2551,-4.5095,-4.6711,-4.7219,-4.7309,-4.7309,-4.7309,-4.7309,-4.7309,-4.7309,0.0,0.0,0.0,0.0,0.0,0.0,0.0,0.0,0.0,0.0,0.0,0.0,0.0,0.0,0.0,0.0,0.0,0.0,0.0,-5.1229,-5.1229,-5.1229,-5.1229,-5.1229,-5.1229,0.0,-5.1229,-5.1229,-5.1229,-5.1229,-5.1229,-5.1229,-5.1229,-5.1229,-5.1229,-5.1229,-5.1229,-5.1229,-5.1229,-5.1229,-5.1229,-5.1229,-5.1229,-5.1229,-5.1229,-5.1229,-5.1319,-5.1828,-5.1977,-5.2127,-5.2785,-5.3354,-5.3803,-5.3952,-5.4461,-5.497,-5.497,-5.5089,-5.5149,-5.5029,-5.5089,-5.5179,-5.5179,-5.5179,-5.5179,-5.5179,-5.5179,-5.5179,-5.5179,-5.5179,-5.5149,-5.4999,-5.485,-5.4581,-5.4042,-5.3982,-5.3713,-5.3054,-5.2965,-5.2695,-5.2037,-5.1977,-5.1768,-5.1259,-5.1229,-5.1229,-5.1229,-5.1229,-5.1229,-5.1229,-5.1229,-5.1229,-5.1229,-5.1229,-5.1229,-5.1229,-5.1229,-5.1229,-3.5589,-3.7228,-3.9035,-4.122,-4.3569,-4.5633,-4.701,-4.7309,-4.7309,-4.7309,-4.7309,-4.7309,-4.7309,0.0,0.0,0.0,0.0,0.0,0.0,0.0,0.0,0.0,0.0,0.0,0.0,0.0,0.0,0.0,0.0,0.0,0.0,-5.1229,-5.1229,-5.1229,-5.1229,-5.1229,-5.1229,-5.1229,-5.1229,-5.1229,-5.1229,-5.1229,-5.1229,-5.1229,-5.1229,-5.1229,-5.1229,-5.1229,-5.1229,-5.1229,-5.1229,-5.1229,-5.1229,-5.1229,-5.1229,-5.1229,-5.1229,-5.1229,-5.1229,-5.1439,-5.1738,-5.2097,-5.2426,-5.2785,-5.3473,-5.3922,-5.4281,-5.4581,-5.491,-5.5179,-5.5179,-5.5179,-5.5179,-5.5179,-5.5179,-5.5179,-5.5179,-5.5179,-5.5179,-5.5179,-5.5179,-5.5179,-5.5179,-5.5179,-5.5179,-5.5179,-5.5179,-5.5059,-5.473,-5.467,-5.4431,-5.3743,-5.3683,-5.3414,-5.2725,-5.2665,-5.2396,-5.1738,-5.1678,-5.1558,-5.1229,-5.1229,-5.1229,-5.1229,-5.1229,-5.1229,-5.1229,-5.1229,-5.1229,-5.1229,-5.1229,-5.1229,-3.5301,-3.7483,-4.0068,-4.3024,-4.469,-4.5894,-4.7087,-4.7349,-4.7309,-4.7309,-4.7309,-4.7309,0.0,0.0,0.0,0.0,0.0,0.0,0.0,0.0,0.0,0.0,0.0,0.0,0.0,0.0,0.0,0.0,0.0,0.0,-5.1229,-5.1229,-5.1229,-5.1229,-5.1229,-5.1229,-5.1229,-5.1229,-5.1229,-5.1229,-5.1229,-5.1229,-5.1229,-5.1229,-5.1229,-5.1229,-5.1229,-5.1229,-5.1229,-5.1229,-5.1229,-5.1229,-5.1229,-5.1229,-5.1229,-5.1229,-5.1229,-5.1229,-5.1349,-5.1738,-5.2247,-5.2486,-5.2905,-5.3503,-5.4162,-5.4371,-5.4491,-5.5029,-5.5179,-5.5179,-5.5179,-5.5179,-5.5179,-5.5179,-5.5179,-5.5179,-5.5179,-5.5179,-5.5179,-5.5179,-5.5179,-5.5179,-5.5179,-5.5179,-5.5179,-5.5179,-5.5179,-5.5179,-5.5179,-5.5179,-5.497,-5.4431,-5.4371,-5.4102,-5.3414,-5.3354,-5.3084,-5.2396,-5.2247,-5.1947,-5.1409,-5.1289,-5.1229,-5.1229,-5.1229,-5.1229,-5.1229,-5.1229,-5.1229,-5.1229,-5.1229,-5.1229,-3.5738,-3.9376,-4.2932,-4.5175,-4.6115,-4.6705,-4.7465,-4.7467,-4.7309,0.0,-4.7309,0.0,0.0,0.0,0.0,0.0,0.0,0.0,0.0,0.0,0.0,0.0,0.0,0.0,0.0,0.0,0.0,0.0,0.0,0.0,-5.1229,-5.1229,-5.1229,-5.1229,-5.1229,-5.1229,-5.1229,-5.1229,-5.1229,-5.1229,-5.1229,-5.1229,-5.1229,-5.1229,-5.1229,-5.1229,-5.1229,-5.1229,-5.1229,-5.1229,-5.1229,-5.1229,-5.1229,-5.1229,-5.1229,-5.1229,-5.1229,-5.1289,-5.1858,-5.2127,-5.2396,-5.3563,-5.4012,-5.4192,-5.485,-5.5059,-5.5089,-5.5149,-5.5179,-5.5179,-5.5179,-5.5179,-5.5179,-5.5179,-5.5179,-5.5179,-5.5179,-5.5179,-5.5179,-5.5179,-5.5179,-5.5179,-5.5179,-5.5179,-5.5179,-5.5179,-5.5179,-5.5179,-5.5179,-5.5179,-5.5149,-5.5059,-5.5059,-5.479,-5.4132,-5.4072,-5.3773,-5.3084,-5.2516,-5.2157,-5.2067,-5.1528,-5.1229,-5.1229,-5.1229,-5.1229,-5.1229,-5.1229,-5.1229,-5.1229,-5.1229,-5.1229,-3.6418,-3.9499,-4.2333,-4.4375,-4.5936,-4.7101,-4.7579,-4.7896,-4.7988,-4.7409,0.0,0.0,0.0,0.0,0.0,0.0,0.0,0.0,0.0,0.0,0.0,0.0,0.0,0.0,0.0,0.0,0.0,0.0,0.0,-5.1229,-5.1229,-5.1229,-5.1229,-5.1229,-5.1229,-5.1229,-5.1229,-5.1229,-5.1229,-5.1229,-5.1229,-5.1229,-5.1229,-5.1229,-5.1229,-5.1229,-5.1229,-5.1229,-5.1229,-5.1229,-5.1229,-5.1229,-5.1229,-5.1229,-5.1229,-5.1229,-5.1439,-5.1798,-5.2097,-5.2695,-5.3414,-5.4012,-5.4461,-5.482,-5.5089,-5.5179,-5.5179,-5.5179,-5.5179,-5.5179,-5.5179,-5.5179,-5.5179,-5.5179,-5.5179,-5.5179,-5.5179,-5.5179,-5.5179,-5.5179,-5.5179,-5.5179,-5.5179,-5.5179,-5.5179,-5.5179,-5.5179,-5.5179,-5.5179,-5.5179,-5.5179,-5.5179,-5.5179,-5.5059,-5.479,-5.476,-5.4461,-5.3803,-5.3473,-5.3144,-5.2755,-5.2127,-5.1768,-5.1768,-5.1409,-5.1229,-5.1229,-5.1229,-5.1229,-5.1229,-5.1229,-5.1229,-3.6416,-3.8974,-4.1237,-4.3331,-4.5423,-4.7109,-4.7542,-4.8334,-4.8643,0.0,0.0,0.0,0.0,0.0,0.0,0.0,0.0,0.0,0.0,0.0,0.0,0.0,0.0,0.0,0.0,0.0,0.0,0.0,0.0,-5.1229,-5.1229,-5.1229,-5.1229,-5.1229,-5.1229,-5.1229,-5.1229,-5.1229,-5.1229,-5.1229,-5.1229,-5.1229,-5.1229,-5.1229,-5.1229,-5.1229,-5.1229,-5.1229,-5.1229,-5.1229,-5.1229,-5.1229,-5.1229,-5.1229,-5.1229,-5.1409,-5.1768,-5.2247,-5.2606,-5.3354,-5.4251,-5.4401,-5.479,-5.5179,-5.5179,-5.5179,-5.5179,-5.5179,-5.5179,-5.5179,-5.5179,-5.5179,-5.5179,-5.5179,-5.5179,-5.5179,-5.5179,-5.5179,-5.5179,-5.5179,-5.5179,-5.5179,-5.5179,-5.5179,-5.5179,-5.5179,-5.5179,-5.5179,-5.5179,-5.5179,-5.5179,-5.5179,-5.5179,-5.5179,-5.5179,-5.5179,-5.497,-5.4491,-5.4311,-5.3982,-5.3473,-5.2815,-5.2456,-5.2456,-5.1798,-5.1379,-5.1229,-5.1229,-5.1229,-5.1229,-5.1229,-5.1229,-3.5346,-3.7998,-4.0743,-4.2921,-4.4942,-4.6618,-4.7372,-4.8404,-4.8955,0.0,0.0,0.0,0.0,0.0,0.0,0.0,0.0,0.0,0.0,0.0,0.0,0.0,0.0,0.0,0.0,0.0,0.0,0.0,0.0,-5.1229,-5.1229,-5.1229,-5.1229,-5.1229,-5.1229,-5.1229,-5.1229,-5.1229,-5.1229,-5.1229,-5.1229,-5.1229,-5.1229,-5.1229,-5.1229,-5.1229,-5.1229,-5.1229,-5.1229,-5.1229,-5.1229,-5.1229,-5.1229,-5.1229,-5.1289,-5.1917,-5.2187,-5.2366,-5.3653,-5.4162,-5.4311,-5.494,-5.5149,-5.5179,-5.5179,-5.5179,-5.5179,-5.5179,-5.5179,-5.5179,-5.5179,-5.5179,-5.5179,-5.5179,-5.5179,-5.5179,-5.5179,-5.5179,-5.5179,-5.5179,-5.5179,-5.5179,-5.5179,-5.5179,-5.5179,-5.5179,-5.5179,-5.5179,-5.5179,-5.5179,-5.5179,-5.5179,-5.5179,-5.5179,-5.5179,-5.5179,-5.5179,-5.5149,-5.4551,-5.4192,-5.4162,-5.3503,-5.3144,-5.3144,-5.2486,-5.1858,-5.1229,-5.1229,-5.1229,-5.1229,-5.1229,-5.1229,-3.3623,-3.6218,-3.9158,-4.0913,-4.3281,-4.5431,-4.6552,-4.7699,-4.8352,-4.7814,0.0,0.0,0.0,0.0,0.0,0.0,0.0,0.0,0.0,0.0,0.0,0.0,0.0,0.0,0.0,0.0,0.0,0.0,0.0,0.0,-5.1229,-5.1229,-5.1229,-5.1229,-5.1229,-5.1229,-5.1229,-5.1229,-5.1229,-5.1229,-5.1229,-5.1229,-5.1229,-5.1229,-5.1229,-5.1229,-5.1229,-5.1229,-5.1229,-5.1229,-5.1229,-5.1229,-5.1229,-5.1468,-5.1887,-5.2127,-5.2755,-5.3563,-5.4042,-5.4491,-5.488,-5.5119,-5.5179,-5.5179,-5.5179,-5.5179,-5.5179,-5.5179,-5.5179,-5.5179,-5.5179,-5.5179,-5.5179,-5.5179,-5.5179,-5.5179,-5.5179,-5.5179,-5.5179,-5.5179,-5.5179,-5.5179,-5.5179,-5.5179,-5.5179,-5.5179,-5.5179,-5.5179,-5.5179,-5.5179,-5.5179,-5.5179,-5.5179,-5.5179,-5.5179,-5.5179,-5.5179,-5.5179,-5.497,-5.485,-5.485,-5.4192,-5.3832,-5.3832,-5.3174,-5.2516,-5.1858,-5.1439,-5.1229,-5.1229,-5.1229,-5.1229,-3.2604,-3.5053,-3.7898,-3.9408,-4.1962,-4.4401,-4.5543,-4.6911,-4.7923,0.0,0.0,0.0,0.0,0.0,0.0,0.0,0.0,0.0,0.0,0.0,0.0,0.0,0.0,0.0,0.0,0.0,0.0,0.0,0.0,0.0,-5.1229,-5.1542,-5.1773,-5.1773,-5.1773,-5.1588,-5.1199,-5.1229,-5.1229,-5.1229,-5.1229,-5.1229,-5.1229,-5.1229,-5.1229,-5.1229,-5.1229,-5.1229,-5.1229,-5.1229,-5.1229,-5.1229,-5.1468,-5.1828,-5.2247,-5.2725,-5.3443,-5.4251,-5.4461,-5.482,-5.5179,-5.5179,-5.5179,-5.5179,-5.5179,-5.5179,-5.5179,-5.5179,-5.5179,-5.5179,-5.5179,-5.5179,-5.5179,-5.5179,-5.5179,-5.5179,-5.5179,-5.5179,-5.5179,-5.5179,-5.5179,-5.5179,-5.5179,-5.5179,-5.5179,-5.5179,-5.5179,-5.5179,-5.5179,-5.5179,-5.5179,-5.5179,-5.5179,-5.5179,-5.5179,-5.5179,-5.5179,-5.5179,-5.5179,-5.5179,-5.5179,-5.476,-5.4551,-5.4551,-5.3862,-5.3324,-5.2875,-5.1977,-5.1558,-5.1528,-5.1319,-5.1229,0.0,0.0,0.0,-3.848,-4.1076,-4.3511,-4.4316,0.0,-4.7704,0.0,0.0,0.0,0.0,0.0,0.0,0.0,0.0,0.0,0.0,0.0,0.0,0.0,0.0,0.0,0.0,0.0,0.0,0.0,0.0,-5.1229,-5.1229,-5.226,-5.29,-5.2945,-5.29,-5.235,-5.1246,-5.1229,-5.1229,-5.1229,-5.1229,-5.1229,-5.1229,-5.1229,-5.1229,-5.1229,-5.1229,-5.1229,-5.1229,-5.1229,-5.1229,-5.1319,-5.1947,-5.2217,-5.2426,-5.3713,-5.4221,-5.4341,-5.497,-5.5179,-5.5179,-5.5179,-5.5179,-5.5179,-5.5179,-5.5179,-5.5179,-5.5179,-5.5179,-5.5179,-5.5179,-5.5179,-5.5179,-5.5179,-5.5179,-5.5179,-5.5179,-5.5179,-5.5179,-5.5179,-5.5179,-5.5179,-5.5179,-5.5179,-5.5179,-5.5179,-5.5179,-5.5179,-5.5179,-5.5179,-5.5179,-5.5179,-5.5179,-5.5179,-5.5179,-5.5179,-5.5179,-5.5179,-5.5179,-5.5179,-5.5179,-5.5179,-5.5179,-5.5179,-5.4551,-5.4251,-5.4251,-5.2875,-5.2217,-5.2217,-5.1558,-5.1229,-3.2442,0.0,0.0,0.0,0.0,0.0,0.0,0.0,0.0,0.0,0.0,0.0,0.0,0.0,0.0,0.0,0.0,0.0,0.0,0.0,0.0,0.0,0.0,0.0,0.0,0.0,0.0,0.0,-5.1972,-5.2063,-5.1246,-5.226,-5.3296,-5.4126,-5.3309,-5.2723,-5.244,-5.1588,-5.1229,-5.1229,-5.1229,-5.1229,-5.1229,-5.1229,-5.1229,-5.1229,-5.1229,-5.1229,-5.1229,-5.1229,-5.1498,-5.1947,-5.2127,-5.2785,-5.3713,-5.4072,-5.4521,-5.494,-5.5119,-5.5179,-5.5179,-5.5179,-5.5179,-5.5179,-5.5179,-5.5179,-5.5179,-5.5179,-5.5179,-5.5179,-5.5179,-5.5179,-5.5179,-5.5179,-5.5179,-5.5179,-5.5179,-5.5179,-5.5179,-5.5179,-5.5179,-5.5179,-5.5179,-5.5179,-5.5179,-5.5179,-5.5179,-5.5179,-5.5179,-5.5179,-5.5179,-5.5179,-5.5179,-5.5179,-5.5179,-5.5179,-5.5179,-5.5179,-5.5179,-5.5179,-5.5179,-5.5179,-5.5179,-5.5179,-5.4999,-5.491,-5.491,-5.3563,-5.2905,-5.2905,-5.2247,-5.1678,-3.3457,-3.412,-3.5253,-3.6854,0.0,0.0,0.0,0.0,0.0,0.0,0.0,0.0,0.0,0.0,0.0,0.0,0.0,0.0,0.0,0.0,0.0,0.0,0.0,0.0,0.0,0.0,0.0,-5.1015,-5.2355,-5.3201,-5.3278,-5.3483,-5.4126,-5.5215,-5.464,-5.3839,-5.29,-5.2215,-5.1681,-5.1229,-5.1229,-5.1229,-5.1229,-5.1229,-5.1229,-5.1229,-5.1229,-5.1229,-5.1229,-5.1498,-5.1858,-5.2247,-5.2815,-5.3533,-5.4251,-5.4521,-5.485,-5.5179,-5.5179,-5.5179,-5.5179,-5.5179,-5.5179,-5.5179,-5.5179,-5.5179,-5.5179,-5.5179,-5.5179,-5.5179,-5.5179,-5.5179,-5.5179,-5.5179,-5.5179,-5.5179,-5.5179,-5.5179,-5.5179,-5.5179,-5.5179,-5.5179,-5.5179,-5.5179,-5.5179,-5.5179,-5.5179,-5.5179,-5.5179,-5.5179,-5.5179,-5.5179,-5.5179,-5.5179,-5.5179,-5.5179,-5.5179,-5.5179,-5.5179,-5.5179,-5.5179,-5.5179,-5.5179,-5.5179,-5.5179,-5.5179,-5.5179,-5.4132,-5.3473,-5.3174,-5.2785,-5.2247,-3.525,-3.5814,-3.7006,-3.7831,-3.9005,0.0,0.0,0.0,0.0,0.0,0.0,0.0,0.0,0.0,0.0,0.0,0.0,0.0,0.0,0.0,0.0,0.0,0.0,0.0,0.0,-4.9304,-5.0069,-5.0751,-5.2303,-5.4051,-5.5961,-5.5077,-5.5069,-5.636,-5.6282,-5.5256,-5.3265,-5.3033,-5.2395,-5.1386,-5.1246,-5.1229,-5.1229,-5.1229,-5.1229,-5.1229,-5.1229,-5.1259,-5.1379,-5.2037,-5.2306,-5.2426,-5.3713,-5.4251,-5.4401,-5.497,-5.5179,-5.5179,-5.5179,-5.5179,-5.5179,-5.5179,-5.5179,-5.5179,-5.5179,-5.5179,-5.5179,-5.5179,-5.5179,-5.5179,-5.5179,-5.5179,-5.5179,-5.5179,-5.5179,-5.5179,-5.5179,-5.5179,-5.5179,-5.5179,-5.5179,-5.5179,-5.5179,-5.5179,-5.5179,-5.5179,-5.5179,-5.5179,-5.5179,-5.5179,-5.5179,-5.5179,-5.5179,-5.5179,-5.5179,-5.5179,-5.5179,-5.5179,-5.5179,-5.5179,-5.5179,-5.5179,-5.5179,-5.5179,-5.5179,-5.5179,-5.5179,-5.461,-5.3952,-5.3294,-5.3294,-5.2935,-3.7138,-3.7023,-3.7112,-3.8443,-3.9005,0.0,0.0,-4.0837,0.0,0.0,0.0,0.0,0.0,0.0,0.0,0.0,0.0,0.0,0.0,0.0,0.0,0.0,0.0,0.0,0.0,-4.9749,-5.0153,-5.0751,-5.1149,-5.2499,-5.5199,-5.4333,-5.4944,-5.7483,-5.6663,-5.5975,-5.5578,-5.3785,-5.2767,-5.2575,-5.1635,-5.1229,-5.1229,-5.1229,-5.1229,-5.1229,-5.1229,-5.1528,-5.2067,-5.2725,-5.2995,-5.3054,-5.3892,-5.4521,-5.5029,-5.5149,-5.5179,-5.5179,-5.5179,-5.5179,-5.5179,-5.5179,-5.5179,-5.5179,-5.5179,-5.5179,-5.5179,-5.5179,-5.5179,-5.5179,-5.5179,-5.5179,-5.5179,-5.5179,-5.5179,-5.5179,-5.5179,-5.5179,-5.5179,-5.5179,-5.5179,-5.5179,-5.5179,-5.5179,-5.5179,-5.5179,-5.5179,-5.5179,-5.5179,-5.5179,-5.5179,-5.5179,-5.5179,-5.5179,-5.5179,-5.5179,-5.5179,-5.5179,-5.5179,-5.5179,-5.5179,-5.5179,-5.5179,-5.5179,-5.5179,-5.5179,-5.5179,-5.5059,-5.467,-5.4012,-5.4012,-5.3653,-3.7403,-3.702,-3.6931,-3.7689,-3.8438,0.0,0.0,0.0,-4.0865,-4.161,0.0,0.0,0.0,0.0,0.0,0.0,0.0,0.0,0.0,0.0,0.0,0.0,0.0,0.0,0.0,-5.0278,-5.0974,-5.2572,-5.217,-5.2883,-5.5292,-5.4722,-5.5276,-5.7304,-5.7133,-5.6778,-5.6204,-5.4557,-5.3439,-5.29,-5.1727,-5.1229,-5.1229,-5.1229,-5.1229,-5.1229,-5.1558,-5.1887,-5.2276,-5.3264,-5.3683,-5.3773,-5.4431,-5.491,-5.5179,-5.5179,-5.5179,-5.5179,-5.5179,-5.5179,-5.5179,-5.5179,-5.5179,-5.5179,-5.5179,-5.5179,-5.5179,-5.5179,-5.5179,-5.5179,-5.5179,-5.5179,-5.5179,-5.5179,-5.5179,-5.5179,-5.5179,-5.5179,-5.5179,-5.5179,-5.5179,-5.5179,-5.5179,-5.5179,-5.5179,-5.5179,-5.5179,-5.5179,-5.5179,-5.5179,-5.5179,-5.5179,-5.5179,-5.5179,-5.5179,-5.5179,-5.5179,-5.5179,-5.5179,-5.5179,-5.5179,-5.5179,-5.5179,-5.5179,-5.5179,-5.5179,-5.5179,-5.5179,-5.5029,-5.47,-5.47,-5.4341,-3.8136,-3.7673,-3.7517,-3.7384,0.0,-3.9219,0.0,0.0,0.0,0.0,0.0,0.0,0.0,0.0,0.0,0.0,0.0,0.0,0.0,0.0,0.0,0.0,0.0,0.0,0.0,-5.0533,-5.1713,-5.3918,-5.3211,-5.3506,-5.5376,-5.5114,-5.5505,-5.6763,-5.7509,-5.7446,-5.6547,-5.545,-5.4337,-5.3209,-5.2063,-5.1433,-5.1229,-5.1229,-5.1229,-5.1259,-5.1917,-5.2276,-5.2486,-5.3713,-5.4281,-5.4461,-5.497,-5.5179,-5.5179,-5.5179,-5.5179,-5.5179,-5.5179,-5.5179,-5.5179,-5.5179,-5.5179,-5.5179,-5.5179,-5.5179,-5.5179,-5.5179,-5.5179,-5.5179,-5.5179,-5.5179,-5.5179,-5.5179,-5.5179,-5.5179,-5.5179,-5.5179,-5.5179,-5.5179,-5.5179,-5.5179,-5.5179,-5.5179,-5.5179,-5.5179,-5.5179,-5.5179,-5.5179,-5.5179,-5.5179,-5.5179,-5.5179,-5.5179,-5.5179,-5.5179,-5.5179,-5.5179,-5.5179,-5.5179,-5.5179,-5.5179,-5.5179,-5.5179,-5.5179,-5.5179,-5.5179,-5.5179,-5.5179,-5.5179,-5.5179,-5.491,-4.1909,-4.1201,0.0,0.0,-3.9851,0.0,0.0,0.0,-4.0113,-4.0214,0.0,0.0,0.0,0.0,0.0,0.0,0.0,0.0,0.0,0.0,0.0,0.0,0.0,0.0,0.0,0.0,-5.1199,-5.2131,-5.2089,-5.2779,-5.4633,-5.4419,-5.5011,-5.6763,-5.7509,-5.7845,-5.7701,-5.6586,-5.5458,-5.4379,-5.3221,-5.22,-5.1229,-5.1229,-5.1229,-5.1259,-5.1917,-5.2546,-5.3114,-5.3892,-5.4551,-5.5089,-5.5149,-5.5179,-5.5179,-5.5179,-5.5179,-5.5179,-5.5179,-5.5179,-5.5179,-5.5179,-5.5179,-5.5179,-5.5179,-5.5179,-5.5179,-5.5179,-5.5179,-5.5179,-5.5179,-5.5179,-5.5179,-5.5179,-5.5179,-5.5179,-5.5179,-5.5179,-5.5179,-5.5179,-5.5179,-5.5179,-5.5179,-5.5179,-5.5179,-5.5179,-5.5179,-5.5179,-5.5179,-5.5179,-5.5179,-5.5179,-5.5179,-5.5179,-5.5179,-5.5179,-5.5179,-5.5179,-5.5179,-5.5179,-5.5179,-5.5179,-5.5179,-5.5179,-5.5179,-5.5179,-5.5179,-5.5179,-5.5179,-5.5179,-5.5179,-5.5149,0.0,0.0,0.0,0.0,0.0,0.0,-3.9633,0.0,-4.0113,0.0,0.0,0.0,0.0,0.0,0.0,0.0,-3.9614,0.0,0.0,0.0,0.0,0.0,0.0,0.0,0.0,0.0,0.0,0.0,0.0,-5.3176,-5.3923,-5.4621,-5.5358,-5.6121,-5.7273,-5.7881,-5.7881,-5.6778,-5.5658,-5.4589,-5.3439,-5.2664,-5.2154,-5.1526,-5.1753,-5.2765,-5.2791,-5.3144,-5.3832,-5.4491,-5.494,-5.5179,-5.5179,-5.5179,-5.5179,-5.5179,-5.5179,-5.5179,-5.5179,-5.5179,-5.5179,-5.5179,-5.5179,-5.5179,-5.5179,-5.5179,-5.5179,-5.5179,-5.5179,-5.5179,-5.5179,-5.5179,-5.5179,-5.5179,-5.5179,-5.5179,-5.5179,-5.5179,-5.5179,-5.5179,-5.5179,-5.5179,-5.5179,-5.5179,-5.5179,-5.5179,-5.5179,-5.5179,-5.5179,-5.5179,-5.5179,-5.5179,-5.5179,-5.5179,-5.5179,-5.5179,-5.5179,-5.5179,-5.5179,-5.5179,-5.5179,-5.5179,-5.5179,-5.5179,-5.5179,-5.5179,-5.5179,-5.5179,-5.5179,-5.5179,-5.5179,-5.5179,-4.5932,0.0,0.0,0.0,0.0,0.0,0.0,0.0,0.0,0.0,0.0,0.0,0.0,0.0,0.0,0.0,0.0,-3.8125,0.0,0.0,0.0,0.0,0.0,0.0,0.0,0.0,0.0,0.0,0.0,0.0,-5.3484,-5.4905,-5.5681,-5.5681,-5.7137,-5.7881,-5.7881,-5.7076,-5.6126,-5.5043,-5.4179,-5.3656,-5.3309,-5.253,-5.2763,-5.3864,-5.3722,-5.3905,-5.4251,-5.491,-5.5179,-5.5179,-5.5179,-5.5179,-5.5179,-5.5179,-5.5179,-5.5179,-5.5179,-5.5179,-5.5179,-5.5179,-5.5179,-5.5179,-5.5179,-5.5179,-5.5179,-5.5179,-5.5179,-5.5179,-5.5179,-5.5179,-5.5179,-5.5179,-5.5179,-5.5179,-5.5179,-5.5179,-5.5179,-5.5179,-5.5179,-5.5179,-5.5179,-5.5179,-5.5179,-5.5179,-5.5179,-5.5179,-5.5179,-5.5179,-5.5179,-5.5179,-5.5179,-5.5179,-5.5179,-5.5179,-5.5179,-5.5179,-5.5179,-5.5179,-5.5179,-5.5179,-5.5179,-5.5179,-5.5179,-5.5179,-5.5179,-5.5179,-5.5179,-5.5179,-5.5179,-5.5179,0.0,0.0,0.0,-4.4829,0.0,0.0,0.0,0.0,-4.0967,0.0,0.0,0.0,0.0,0.0,0.0,0.0,0.0,0.0,0.0,0.0,0.0,0.0,0.0,0.0,0.0,0.0,0.0,0.0,0.0,0.0,-5.345,-5.4905,-5.5681,-5.5681,-5.7137,-5.7881,-5.7881,-5.7845,-5.7297,-5.6165,-5.6126,-5.5538,-5.4547,-5.4505,-5.4292,-5.3909,-5.4575,-5.4613,-5.4251,-5.491,-5.5179,-5.5179,-5.5179,-5.5179,-5.5179,-5.5179,-5.5179,-5.5179,-5.5179,-5.5179,-5.5179,-5.5179,-5.5179,-5.5179,-5.5179,-5.5179,-5.5179,-5.5179,-5.5179,-5.5179,-5.5179,-5.5179,-5.5179,-5.5179,-5.5179,-5.5179,-5.5179,-5.5179,-5.5179,-5.5179,-5.5179,-5.5179,-5.5179,-5.5179,-5.5179,-5.5179,-5.5179,-5.5179,-5.5179,-5.5179,-5.5179,-5.5179,-5.5179,-5.5179,-5.5179,-5.5179,-5.5179,-5.5179,-5.5179,-5.5179,-5.5179,-5.5179,-5.5179,-5.5179,-5.5179,-5.5179,-5.5179,-5.5179,-5.5179,-5.5179,-5.5179,-5.5179,0.0,0.0,-4.8612,-4.7158,0.0,0.0,0.0,0.0,0.0,0.0,0.0,0.0,0.0,0.0,0.0,0.0,0.0,0.0,0.0,0.0,0.0,0.0,0.0,0.0,0.0,0.0,0.0,0.0,0.0,0.0,0.0,-5.416,-5.5209,-5.5647,-5.6664,-5.7408,-5.7881,-5.7881,-5.7335,-5.6204,-5.6204,-5.6008,-5.5651,-5.5445,-5.5856,-5.6776,-5.5973,-5.5795,-5.5993,-5.546,-5.5179,-5.528,-5.6085,-5.5918,-5.5179,-5.5179,-5.5179,-5.5179,-5.5179,-5.5179,-5.5179,-5.5179,-5.5179,-5.5179,-5.5179,-5.5179,-5.5179,-5.5179,-5.5179,-5.5179,-5.5179,-5.5179,-5.5179,-5.5179,-5.5179,-5.5179,-5.5179,-5.5179,-5.5179,-5.5179,-5.5179,-5.5179,-5.5179,-5.5179,-5.5179,-5.5179,-5.5179,-5.5179,-5.5179,-5.5179,-5.5179,-5.5179,-5.5179,-5.5179,-5.5179,-5.5179,-5.5179,-5.5179,-5.5179,-5.5179,-5.5179,-5.5179,-5.5179,-5.5179,-5.5179,-5.5179,-5.5179,-5.5179,-5.5179,-5.5179,-5.5179,-5.5179,-5.3315,-5.2232,0.0,-4.9458,-4.8511,0.0,-4.5438,0.0,0.0,0.0,0.0,0.0,0.0,0.0,0.0,0.0,0.0,0.0,0.0,-3.6299,0.0,0.0,0.0,0.0,0.0,0.0,0.0,0.0,0.0,0.0,0.0,0.0,-5.4803,-5.531,-5.6292,-5.7036,-5.7476,-5.7746,-5.7554,-5.6778,-5.6778,-5.6778,-5.6811,-5.6876,-5.7404,-5.8248,-5.7096,-5.6762,-5.6943,-5.6183,-5.5601,-5.5381,-5.6991,-5.6638,-5.5229,-5.567,-5.5551,-5.5179,-5.5179,-5.5179,-5.5179,-5.5179,-5.5179,-5.5179,-5.5179,-5.5179,-5.5149,-5.491,-5.4999,-5.5149,-5.491,-5.5029,-5.5179,-5.5179,-5.5179,-5.5179,-5.5179,-5.5179,-5.5179,-5.5179,-5.5179,-5.5179,-5.5179,-5.5179,-5.5179,-5.5179,-5.5179,-5.5179,-5.5179,-5.5179,-5.5179,-5.5179,-5.5179,-5.5179,-5.5179,-5.5179,-5.5179,-5.5179,-5.5179,-5.5179,-5.5179,-5.5179,-5.5431,-5.5819,-5.5819,-5.6035,-5.6475,-5.6035,-5.5819,-5.5819,-5.5431,-5.5179]},{"header":{"parameterUnit":"m.s-1","parameterCategory":1,"la1":30.6,"la2":29.2853,"lo1":-89.7004,"lo2":-87.6739,"dx":0.0162,"dy":0.0183,"nx":112,"ny":82,"refTime":"2022-12-28T18:00:00:Z","depth":0,"parameterNumber":3,"parameterNumberName":"V-component_of_WINDS"},"data":[0.0,0.0,0.0,0.0,0.0,0.0,0.0,0.0,0.0,0.0,0.0,0.0,0.0,0.0,0.0,0.0,0.0,0.0,0.0,0.0,0.0,0.0,0.0,0.0,0.0,0.0,0.0,0.0,0.0,0.0,0.0,0.0,0.0,0.0,0.0,0.0,0.0,0.0,0.0,0.0,0.0,0.0,0.0,0.0,0.0,0.0,0.0,0.0,0.0,0.0,0.0,0.0,0.0,0.0,0.0,0.0,0.0,0.0,0.0,0.0,0.0,0.0,0.0,0.0,0.0,0.0,0.0,0.0,0.0,0.0,0.0,0.0,0.0,0.0,0.0,0.0,0.0,0.0,0.0,0.0,0.0,0.0,0.0,0.0,0.0,0.0,0.0,0.0,0.0,0.0,2.3729,2.6123,2.8487,3.0342,3.1421,2.9295,2.7255,2.5704,0.0,0.0,0.0,0.0,0.0,0.0,0.0,0.0,0.0,0.0,0.0,0.0,0.0,0.0,0.0,0.0,0.0,0.0,0.0,0.0,0.0,0.0,0.0,0.0,0.0,0.0,0.0,0.0,0.0,0.0,0.0,0.0,0.0,0.0,0.0,0.0,0.0,0.0,0.0,0.0,0.0,0.0,0.0,0.0,0.0,0.0,0.0,0.0,0.0,0.0,0.0,0.0,0.0,0.0,0.0,0.0,0.0,0.0,0.0,0.0,0.0,0.0,0.0,0.0,0.0,0.0,0.0,0.0,0.0,0.0,0.0,0.0,0.0,0.0,0.0,0.0,0.0,0.0,0.0,0.0,0.0,0.0,0.0,0.0,0.0,0.0,0.0,0.0,0.0,0.0,0.0,0.0,0.0,0.0,0.0,0.0,0.0,0.0,0.0,0.0,0.0,0.0,0.0,0.0,2.5076,2.9325,3.0614,3.1301,3.1481,3.0163,2.8218,2.5764,0.0,0.0,0.0,0.0,0.0,0.0,0.0,0.0,0.0,0.0,0.0,0.0,0.0,0.0,0.0,0.0,0.0,0.0,0.0,0.0,0.0,0.0,0.0,0.0,0.0,0.0,0.0,0.0,0.0,0.0,0.0,0.0,0.0,0.0,0.0,0.0,0.0,0.0,0.0,0.0,0.0,0.0,0.0,0.0,0.0,0.0,0.0,0.0,0.0,0.0,0.0,0.0,0.0,0.0,0.0,0.0,0.0,0.0,0.0,0.0,0.0,0.0,0.0,0.0,0.0,0.0,0.0,0.0,0.0,0.0,0.0,0.0,0.0,0.0,0.0,0.0,0.0,0.0,0.0,0.0,0.0,0.0,0.0,0.0,0.0,0.0,0.0,0.0,0.0,0.0,0.0,0.0,0.0,0.0,0.0,0.0,0.0,0.0,0.0,0.0,0.0,0.0,0.0,2.5272,2.8068,3.124,3.2198,3.2557,3.2557,3.1061,2.9116,2.6811,2.4477,0.0,0.0,0.0,0.0,0.0,0.0,0.0,0.0,0.0,0.0,0.0,0.0,0.0,0.0,0.0,0.0,0.0,0.0,0.0,0.0,0.0,0.0,0.0,0.0,0.0,0.0,0.0,0.0,0.0,0.0,0.0,0.0,0.0,0.0,0.0,0.0,0.0,0.0,0.0,0.0,0.0,0.0,0.0,0.0,0.0,0.0,0.0,0.0,0.0,0.0,0.0,0.0,0.0,0.0,0.0,0.0,0.0,0.0,0.0,0.0,0.0,0.0,0.0,0.0,0.0,0.0,0.0,0.0,0.0,0.0,0.0,0.0,0.0,0.0,0.0,0.0,0.0,0.0,0.0,0.0,0.0,0.0,0.0,0.0,0.0,0.0,0.0,0.0,0.0,0.0,0.0,0.0,0.0,0.0,0.0,0.0,0.0,0.0,0.0,0.0,0.0,0.0,2.7919,3.0342,3.2317,3.3245,3.3664,3.3514,3.1809,2.9834,2.7735,2.5099,0.0,0.0,0.0,0.0,0.0,0.0,0.0,0.0,0.0,0.0,0.0,0.0,0.0,0.0,0.0,0.0,0.0,0.0,0.0,0.0,0.0,0.0,0.0,0.0,0.0,0.0,0.0,0.0,0.0,0.0,0.0,0.0,0.0,0.0,0.0,0.0,0.0,0.0,0.0,0.0,0.0,0.0,0.0,0.0,0.0,0.0,0.0,0.0,0.0,0.0,0.0,0.0,0.0,0.0,0.0,0.0,0.0,0.0,0.0,0.0,0.0,0.0,0.0,0.0,0.0,0.0,0.0,0.0,0.0,0.0,0.0,0.0,0.0,0.0,0.0,0.0,0.0,0.0,0.0,0.0,0.0,0.0,0.0,0.0,0.0,0.0,0.0,0.0,0.0,0.0,0.0,0.0,0.0,0.0,0.0,0.0,0.0,0.0,0.0,0.0,0.0,0.0,2.7919,3.0342,3.2317,3.3664,3.4204,3.3544,3.2228,3.0315,2.7764,2.5099,0.0,0.0,0.0,0.0,0.0,0.0,0.0,0.0,0.0,0.0,0.0,0.0,0.0,0.0,0.0,0.0,0.0,0.0,0.0,0.0,0.0,0.0,0.0,0.0,0.0,0.0,0.0,0.0,0.0,0.0,0.0,0.0,0.0,0.0,0.0,0.0,0.0,0.0,0.0,0.0,0.0,0.0,0.0,0.0,0.0,0.0,0.0,0.0,0.0,0.0,0.0,0.0,0.0,0.0,0.0,0.0,0.0,0.0,0.0,0.0,0.0,0.0,0.0,0.0,0.0,0.0,0.0,0.0,0.0,0.0,0.0,0.0,0.0,0.0,0.0,0.0,0.0,0.0,0.0,0.0,0.0,0.0,0.0,0.0,0.0,0.0,0.0,0.0,0.0,0.0,0.0,0.0,0.0,0.0,0.0,0.0,0.0,0.0,0.0,0.0,0.0,0.0,2.9146,3.139,0.0,3.4322,3.4681,3.3574,3.2258,3.0374,2.7764,0.0,0.0,0.0,0.0,0.0,0.0,0.0,0.0,0.0,0.0,0.0,0.0,0.0,0.0,0.0,0.0,0.0,0.0,0.0,0.0,0.0,0.0,0.0,0.0,0.0,0.0,0.0,0.0,0.0,0.0,0.0,0.0,0.0,0.0,0.0,0.0,0.0,0.0,0.0,0.0,0.0,0.0,0.0,0.0,0.0,0.0,0.0,0.0,0.0,0.0,0.0,0.0,0.0,0.0,0.0,0.0,0.0,0.0,0.0,0.0,0.0,0.0,0.0,0.0,0.0,0.0,0.0,0.0,0.0,0.0,0.0,0.0,0.0,0.0,0.0,0.0,0.0,0.0,0.0,0.0,0.0,0.0,0.0,0.0,0.0,0.0,0.0,0.0,0.0,0.0,0.0,0.0,0.0,0.0,0.0,0.0,0.0,0.0,0.0,0.0,0.0,0.0,2.7205,2.9894,3.2019,0.0,3.4711,3.504,3.3903,3.2587,3.0791,2.8393,0.0,0.0,0.0,0.0,0.0,0.0,0.0,0.0,0.0,0.0,0.0,0.0,0.0,0.0,0.0,0.0,0.0,0.0,0.0,0.0,0.0,0.0,0.0,0.0,0.0,0.0,0.0,0.0,0.0,0.0,0.0,0.0,0.0,0.0,0.0,0.0,0.0,0.0,0.0,0.0,0.0,0.0,0.0,0.0,0.0,0.0,0.0,0.0,0.0,0.0,0.0,0.0,0.0,0.0,0.0,0.0,0.0,0.0,0.0,0.0,0.0,0.0,0.0,0.0,0.0,0.0,0.0,0.0,0.0,0.0,0.0,0.0,0.0,0.0,0.0,0.0,0.0,0.0,0.0,0.0,0.0,0.0,0.0,0.0,0.0,0.0,0.0,0.0,0.0,0.0,0.0,0.0,0.0,0.0,0.0,0.0,0.0,0.0,0.0,0.0,0.0,0.0,2.7181,2.9894,3.2019,3.3365,3.4711,3.522,3.4563,3.3275,3.1659,0.0,0.0,0.0,0.0,0.0,0.0,0.0,0.0,0.0,0.0,0.0,0.0,0.0,0.0,0.0,0.0,0.0,0.0,0.0,0.0,0.0,0.0,0.0,0.0,0.0,0.0,0.0,0.0,0.0,0.0,0.0,0.0,0.0,0.0,0.0,0.0,0.0,0.0,0.0,0.0,0.0,0.0,0.0,0.0,0.0,0.0,0.0,0.0,0.0,0.0,0.0,0.0,0.0,0.0,0.0,0.0,0.0,0.0,0.0,0.0,0.0,0.0,0.0,0.0,0.0,0.0,0.0,0.0,0.0,0.0,0.0,0.0,0.0,0.0,0.0,0.0,0.0,0.0,0.0,0.0,0.0,0.0,0.0,0.0,0.0,0.0,0.0,0.0,0.0,0.0,0.0,0.0,0.0,0.0,0.0,0.0,0.0,0.0,0.0,0.0,0.0,0.0,0.0,2.7846,3.0582,3.2886,3.4711,3.528,3.5429,3.522,3.3544,3.1659,2.9741,0.0,0.0,0.0,0.0,0.0,0.0,0.0,0.0,0.0,0.0,0.0,0.0,0.0,0.0,0.0,0.0,0.0,0.0,0.0,0.0,0.0,0.0,0.0,0.0,0.0,0.0,0.0,0.0,0.0,0.0,0.0,0.0,0.0,0.0,0.0,0.0,0.0,0.0,0.0,0.0,0.0,0.0,0.0,0.0,0.0,0.0,0.0,0.0,0.0,0.0,0.0,0.0,0.0,0.0,0.0,0.0,0.0,0.0,0.0,0.0,0.0,0.0,0.0,0.0,0.0,0.0,0.0,0.0,0.0,0.0,0.0,0.0,0.0,0.0,0.0,0.0,0.0,0.0,0.0,0.0,0.0,0.0,0.0,0.0,0.0,0.0,0.0,0.0,0.0,0.0,0.0,0.0,0.0,0.0,0.0,0.0,0.0,0.0,0.0,0.0,0.0,0.0,2.8532,3.1061,3.3275,3.528,3.5729,3.5908,3.5908,3.4562,3.2856,3.0881,0.0,0.0,0.0,0.0,0.0,0.0,0.0,0.0,0.0,0.0,0.0,0.0,0.0,0.0,0.0,0.0,0.0,0.0,0.0,0.0,0.0,0.0,0.0,0.0,0.0,0.0,0.0,0.0,0.0,0.0,0.0,0.0,0.0,0.0,0.0,0.0,0.0,0.0,0.0,0.0,0.0,0.0,0.0,0.0,0.0,0.0,0.0,0.0,0.0,0.0,0.0,0.0,0.0,0.0,0.0,0.0,0.0,0.0,0.0,0.0,0.0,0.0,0.0,0.0,0.0,0.0,0.0,0.0,0.0,0.0,0.0,0.0,0.0,0.0,0.0,0.0,0.0,0.0,0.0,0.0,0.0,0.0,0.0,0.0,0.0,0.0,0.0,0.0,0.0,0.0,0.0,0.0,0.0,0.0,0.0,0.0,0.0,0.0,0.0,0.0,0.0,0.0,2.9361,3.1539,3.3544,3.5489,3.6207,3.6567,3.6567,3.5908,3.4681,3.2736,0.0,0.0,0.0,0.0,0.0,0.0,0.0,0.0,0.0,0.0,0.0,0.0,0.0,0.0,0.0,0.0,0.0,0.0,0.0,0.0,0.0,0.0,0.0,0.0,0.0,0.0,0.0,0.0,0.0,0.0,0.0,0.0,0.0,0.0,0.0,0.0,0.0,0.0,0.0,0.0,0.0,0.0,0.0,0.0,0.0,0.0,0.0,0.0,0.0,0.0,0.0,0.0,0.0,0.0,0.0,0.0,0.0,0.0,0.0,0.0,2.1142,0.0,0.0,0.0,0.0,0.0,0.0,0.0,0.0,0.0,0.0,0.0,0.0,0.0,0.0,0.0,0.0,0.0,0.0,0.0,0.0,0.0,0.0,0.0,0.0,0.0,0.0,0.0,0.0,0.0,0.0,0.0,0.0,0.0,0.0,0.0,0.0,0.0,0.0,0.0,0.0,0.0,3.0766,3.3305,3.5429,3.6836,3.7135,3.7225,3.7225,3.6178,3.4861,3.3395,3.142,0.0,0.0,0.0,0.0,0.0,0.0,0.0,0.0,0.0,0.0,0.0,0.0,0.0,0.0,0.0,0.0,0.0,0.0,0.0,0.0,0.0,0.0,0.0,0.0,0.0,0.0,0.0,0.0,0.0,0.0,0.0,0.0,0.0,0.0,0.0,0.0,0.0,0.0,0.0,0.0,0.0,0.0,0.0,0.0,0.0,0.0,0.0,0.0,0.0,0.0,0.0,0.0,0.0,0.0,0.0,0.0,0.0,0.0,0.0,0.0,2.1365,0.0,0.0,0.0,0.0,0.0,0.0,0.0,0.0,0.0,0.0,0.0,0.0,0.0,0.0,0.0,0.0,0.0,0.0,0.0,0.0,0.0,0.0,0.0,0.0,0.0,0.0,0.0,0.0,0.0,0.0,0.0,0.0,0.0,0.0,0.0,0.0,0.0,0.0,0.0,0.0,3.2169,3.4262,3.6118,3.7704,3.7883,3.8003,3.8332,3.7165,3.5848,3.4532,3.2886,0.0,0.0,0.0,0.0,0.0,0.0,0.0,0.0,0.0,0.0,0.0,0.0,0.0,0.0,0.0,0.0,0.0,0.0,0.0,0.0,0.0,0.0,0.0,0.0,0.0,0.0,0.0,0.0,0.0,0.0,0.0,0.0,0.0,0.0,0.0,0.0,0.0,0.0,0.0,0.0,0.0,0.0,0.0,0.0,0.0,0.0,0.0,0.0,0.0,0.0,0.0,0.0,0.0,2.6264,2.6826,2.6927,2.6826,2.6826,2.6826,2.4833,2.3873,2.3647,0.0,0.0,0.0,0.0,0.0,0.0,0.0,0.0,0.0,0.0,0.0,0.0,0.0,0.0,0.0,0.0,0.0,0.0,0.0,0.0,0.0,0.0,0.0,0.0,0.0,2.781,2.8069,0.0,0.0,0.0,0.0,0.0,0.0,0.0,0.0,0.0,0.0,0.0,0.0,3.3604,3.5011,3.6537,3.8362,3.8661,3.896,3.9559,3.8452,3.7255,3.6088,3.4651,3.3036,0.0,0.0,0.0,0.0,0.0,0.0,0.0,0.0,0.0,0.0,0.0,0.0,0.0,0.0,0.0,0.0,0.0,0.0,0.0,0.0,0.0,0.0,0.0,0.0,0.0,0.0,0.0,0.0,0.0,0.0,0.0,0.0,1.8707,1.8782,0.0,0.0,0.0,0.0,0.0,0.0,0.0,0.0,0.0,0.0,0.0,0.0,0.0,2.4883,2.5946,2.665,2.6967,2.6967,2.7595,2.8147,2.8574,2.8097,2.8147,2.8549,2.777,0.0,2.6021,2.541,0.0,0.0,0.0,0.0,0.0,0.0,0.0,0.0,0.0,0.0,0.0,0.0,0.0,0.0,0.0,0.0,0.0,0.0,0.0,0.0,0.0,0.0,2.6974,2.717,2.889,3.0356,0.0,2.9373,2.8893,2.8936,2.7893,0.0,0.0,0.0,0.0,0.0,0.0,0.0,3.504,3.6357,3.7704,3.914,3.9798,4.0157,4.0277,3.9589,3.8841,3.8063,3.6267,3.4861,3.4024,3.148,0.0,0.0,0.0,0.0,0.0,0.0,0.0,0.0,0.0,0.0,0.0,0.0,0.0,0.0,0.0,0.0,0.0,0.0,0.0,0.0,0.0,0.0,0.0,0.0,0.0,0.0,0.0,0.0,0.0,1.951,2.0413,2.0413,2.1139,2.1641,0.0,0.0,0.0,0.0,0.0,0.0,0.0,0.0,0.0,2.6189,2.6214,2.6741,2.7846,2.8398,2.885,2.9176,2.9704,3.008,3.0306,3.0055,3.008,3.0306,3.0055,2.9679,2.9164,2.762,2.6691,2.6189,0.0,0.0,0.0,0.0,2.5008,2.5008,2.5008,2.5008,0.0,2.5008,0.0,0.0,0.0,0.0,0.0,0.0,0.0,0.0,0.0,0.0,0.0,2.9542,3.1532,3.3221,3.2556,3.2785,3.2744,0.0,3.0462,2.9894,3.0165,0.0,0.0,0.0,0.0,3.4981,3.5938,3.7494,3.8901,3.9858,4.0546,4.1085,4.1512,4.0546,3.9679,3.902,3.7823,3.6507,3.51,3.3574,3.1629,0.0,0.0,0.0,0.0,0.0,0.0,0.0,0.0,0.0,0.0,0.0,0.0,0.0,0.0,0.0,0.0,0.0,0.0,0.0,0.0,0.0,0.0,0.0,0.0,0.0,0.0,0.0,0.0,2.0966,2.202,2.2297,2.3175,2.3797,0.0,0.0,0.0,0.0,0.0,0.0,2.546,2.649,2.7379,2.7896,2.8047,2.8599,2.9553,2.998,3.0407,3.0809,3.1361,3.1612,3.1612,3.1738,3.1813,3.1813,3.1813,3.1813,3.1662,2.9729,2.8624,2.8122,2.8122,2.7832,2.7354,2.7354,2.7354,2.7354,2.7354,2.7354,2.7354,2.7354,0.0,2.7128,2.7128,0.0,0.0,0.0,0.0,2.9006,2.8961,3.0126,3.1358,3.1549,3.3434,3.495,3.4098,3.4947,3.5346,0.0,3.255,3.2257,3.2706,0.0,0.0,0.0,0.0,3.6297,3.7135,3.8512,3.9798,4.0786,4.1354,4.1931,4.259,4.1564,4.0696,4.0217,3.923,3.8003,3.6567,3.537,3.3724,3.1569,0.0,0.0,0.0,0.0,0.0,0.0,0.0,0.0,0.0,0.0,0.0,0.0,0.0,0.0,0.0,0.0,0.0,0.0,0.0,0.0,0.0,0.0,0.0,0.0,0.0,0.0,0.0,0.0,0.0,2.4499,2.5134,0.0,0.0,0.0,0.0,2.6323,2.6876,2.7143,2.7143,2.8197,2.9038,2.9654,3.0181,3.0708,3.126,3.1286,3.1311,3.1361,3.1913,3.2164,3.219,3.2742,3.2993,3.2993,3.2993,3.2993,3.2893,3.1712,3.0909,3.0457,3.0457,3.0105,2.9628,2.9628,2.9628,2.9628,2.9628,2.9628,2.9628,2.9628,2.9252,2.8762,2.8762,2.8762,0.0,0.0,3.0069,3.0597,3.1125,3.1678,3.2131,3.2164,3.3405,3.4541,3.4459,3.5224,3.5681,0.0,3.4266,3.4312,3.5985,0.0,3.6507,3.7105,3.7255,3.7793,3.911,3.9313,4.0157,4.2081,4.2321,4.262,4.32,4.2671,4.2291,4.2261,4.0427,3.932,3.9194,3.6806,3.507,3.4324,3.1689,0.0,0.0,0.0,0.0,0.0,0.0,0.0,0.0,0.0,0.0,0.0,0.0,0.0,0.0,0.0,0.0,0.0,0.0,0.0,0.0,0.0,0.0,0.0,0.0,0.0,0.0,0.0,0.0,2.6314,2.6892,0.0,2.7494,2.7519,2.767,2.8021,2.8574,2.9051,2.9402,3.0105,3.0758,3.1336,3.1537,3.2089,3.2993,3.2993,3.3194,3.3545,3.3746,3.3822,3.3847,3.4048,3.4148,3.4148,3.4148,3.4148,3.4098,3.3696,3.3018,3.2164,3.1788,3.1763,3.1913,3.1913,3.1913,3.1913,3.1913,3.1913,3.1913,3.1913,3.1763,3.1587,3.1587,3.1587,3.1637,3.1838,3.2039,3.2315,3.2867,3.3144,3.347,3.4154,3.5337,3.6079,3.534,3.6035,3.6619,3.5927,3.6095,3.6794,3.8126,3.7765,3.7608,3.8555,3.8443,3.8671,3.9868,4.0786,4.1632,4.2321,4.2731,4.309,4.326,4.312,4.2791,4.241,4.1752,4.0935,4.0098,3.8751,3.7315,3.5821,3.3993,3.2078,0.0,0.0,0.0,0.0,0.0,0.0,0.0,0.0,0.0,0.0,0.0,0.0,0.0,0.0,0.0,0.0,0.0,0.0,0.0,0.0,0.0,0.0,0.0,0.0,0.0,0.0,2.7052,2.7745,2.8323,2.875,2.8925,2.9126,2.9377,2.9729,3.0281,3.0758,3.1135,3.1838,3.2416,3.2767,3.2968,3.342,3.4173,3.4173,3.4349,3.468,3.4856,3.4956,3.4956,3.5203,3.5278,3.5278,3.5278,3.5278,3.5253,3.5031,3.4675,3.4167,3.3345,3.3294,3.3621,3.3621,3.3621,3.3621,3.3621,3.3621,3.3621,3.3621,3.3495,3.3345,3.3345,3.3345,3.3345,3.3345,3.3495,3.3746,3.4299,3.46,3.4951,3.5881,3.679,3.7335,3.6499,3.6989,3.7528,3.7479,3.7646,3.8225,3.956,3.914,3.9112,4.0509,4.0071,4.0147,4.153,4.2491,4.3159,4.3369,4.3748,4.3947,4.3947,4.3738,4.3479,4.3099,4.265,4.2021,4.1085,4.0217,3.902,3.7494,3.5522,3.3724,3.2138,0.0,0.0,0.0,0.0,0.0,0.0,0.0,0.0,0.0,0.0,0.0,0.0,0.0,0.0,0.0,0.0,0.0,0.0,0.0,0.0,0.0,0.0,0.0,2.6549,2.7027,2.777,2.8813,2.9478,3.0055,3.0583,3.111,3.1411,3.1436,3.1964,3.2265,3.229,3.3345,3.3922,3.3947,3.4474,3.4705,3.4731,3.4731,3.4731,3.4776,3.5282,3.5558,3.5558,3.6157,3.6455,3.6455,3.6455,3.6455,3.643,3.583,3.5931,3.6355,3.5177,3.4751,3.4731,3.4731,3.4731,3.4731,3.4731,3.4776,3.4801,3.4801,3.4449,3.4022,3.4022,3.4022,3.4022,3.4022,3.4399,3.4906,3.5433,3.6006,3.6606,3.7086,3.7613,3.8015,3.8015,3.8015,3.8334,3.952,3.8836,3.8588,4.0351,4.0519,4.1117,4.305,4.2199,0.0,4.4013,4.4265,4.4545,4.5214,4.5304,4.5304,4.5304,4.4706,4.4347,4.4347,4.312,4.247,4.247,4.1145,4.0127,3.9403,3.6237,3.4294,3.3574,0.0,0.0,0.0,0.0,0.0,0.0,0.0,0.0,0.0,0.0,0.0,0.0,0.0,0.0,0.0,0.0,0.0,0.0,0.0,0.0,0.0,2.7168,2.8122,2.772,2.8499,2.9352,3.008,3.0633,3.1009,3.116,3.1662,3.2164,3.2591,3.3119,3.3621,3.4022,3.4324,3.4675,3.5031,3.5182,3.5504,3.5952,3.5906,3.5906,3.5931,3.6483,3.6734,3.6759,3.7312,3.7563,3.7563,3.7563,3.7563,3.7538,3.7387,3.7412,3.7412,3.5859,3.5554,3.5906,3.5906,3.5906,3.5906,3.5906,3.6182,3.6508,3.6508,3.6684,3.6885,3.6885,3.6885,3.6885,3.6885,3.6985,3.7136,3.7287,3.7437,3.7588,3.7739,3.7889,3.8015,3.8015,3.8015,3.8114,3.8432,3.895,3.9707,4.1013,4.0576,4.045,4.1824,4.1003,0.0,4.3329,4.3658,4.4086,4.5191,4.5304,4.5304,4.5304,4.5125,4.5035,4.5035,4.4227,4.3778,4.3778,4.2521,4.1055,3.9403,3.8033,3.6776,0.0,0.0,0.0,0.0,0.0,0.0,0.0,0.0,0.0,0.0,0.0,0.0,0.0,0.0,0.0,0.0,0.0,0.0,0.0,0.0,0.0,0.0,2.8499,2.9428,2.9779,3.0181,3.0658,3.121,3.1763,3.219,3.2416,3.2943,3.3395,3.3746,3.4274,3.4726,3.5006,3.5278,3.5655,3.6207,3.6232,3.6508,3.7036,3.7061,3.7061,3.7061,3.7387,3.7538,3.7538,3.7864,3.8015,0.0,3.8015,3.8015,3.8015,3.8015,3.8015,0.0,0.0,0.0,0.0,0.0,3.7061,3.7061,3.7061,3.7262,3.7538,3.7538,3.7739,3.8015,3.8015,3.8015,3.8015,3.8015,3.8015,3.8065,3.8316,3.8366,3.8417,3.8668,3.8718,3.8718,3.8718,3.8718,3.8718,3.8718,3.9293,0.0,4.061,4.0377,4.0632,4.212,4.1328,4.1233,4.3206,4.3432,4.3731,4.4471,4.4559,4.4559,4.4559,4.4762,0.0,0.0,0.0,4.3784,4.3519,4.3061,0.0,0.0,0.0,0.0,0.0,0.0,0.0,0.0,3.2108,3.1719,0.0,0.0,0.0,0.0,0.0,0.0,0.0,0.0,0.0,0.0,0.0,0.0,0.0,0.0,0.0,0.0,2.9704,3.0658,3.2114,3.1989,3.1913,3.234,3.2918,3.3445,3.3947,3.45,3.4781,3.4781,3.5282,3.5608,3.5683,0.0,0.0,0.0,0.0,3.7513,3.799,3.8015,3.8015,3.8015,3.8065,3.809,3.8115,3.8165,3.8191,3.8191,3.8191,3.8191,3.8191,3.8191,3.8191,3.8191,3.8065,3.8015,3.8015,3.8015,3.8015,3.8015,3.8015,0.0,0.0,3.809,3.814,3.8191,3.8191,3.8191,3.8191,3.8191,3.8191,3.8316,3.8818,3.902,3.9094,3.9572,3.9697,3.9697,3.9697,3.9697,3.9697,3.9697,3.9697,3.9697,3.9697,4.013,4.1108,4.2801,4.2133,4.1838,4.3122,4.3313,4.3361,4.3504,0.0,0.0,4.3504,4.4008,4.4285,4.4285,4.3817,4.32,4.2524,4.316,4.313,4.2306,4.0681,3.9622,3.9224,3.8085,3.7491,3.7297,3.4971,3.423,0.0,0.0,0.0,0.0,0.0,0.0,0.0,0.0,0.0,0.0,0.0,0.0,0.0,0.0,0.0,3.0181,3.1512,3.2541,3.2867,3.3596,3.3947,3.3621,3.4073,3.4449,3.455,3.5006,3.5332,3.5332,3.5906,3.6383,3.6835,3.696,3.7287,3.7839,3.7839,3.7889,3.8015,3.8015,3.8015,3.8015,0.0,0.0,3.8718,3.917,3.9371,3.9371,3.9371,3.9371,3.9371,3.9371,3.9371,3.927,3.8366,3.8015,3.8015,3.8015,3.8015,3.8015,3.8015,3.8316,3.8718,3.8718,3.8994,3.9371,3.9371,3.9371,0.0,3.9371,3.9371,3.9396,3.9496,3.9546,3.9572,3.9672,3.9697,3.9697,3.9697,3.9697,3.9697,3.9697,3.9697,3.9697,3.9697,3.9802,4.0007,4.0389,4.0211,4.0567,4.1789,4.1985,4.235,4.3409,4.3504,4.3504,4.3504,4.3629,4.3667,4.3667,4.4027,4.3933,4.3228,4.4293,4.3908,4.1773,4.2298,4.1125,3.8193,3.8331,3.7949,3.7007,3.6781,3.6507,0.0,0.0,0.0,0.0,0.0,0.0,0.0,0.0,0.0,0.0,0.0,2.8334,2.885,0.0,3.0859,3.1712,3.2541,3.337,3.4198,3.4731,3.4981,3.4705,3.4931,3.5253,3.5504,3.6056,3.6358,3.6358,3.6885,3.7312,3.7588,3.7588,3.7864,3.8417,3.8442,3.8567,3.8843,3.8843,3.8843,3.8843,3.9145,3.927,3.9295,3.9572,3.9697,3.9697,3.9697,3.9697,3.9697,3.9697,3.9697,3.9647,3.9069,3.8843,3.8843,3.8843,3.8843,3.8843,3.8843,3.9044,3.927,3.927,3.9471,3.9697,3.9697,3.9697,3.9697,3.9697,3.9697,3.9697,3.9697,3.9697,3.9697,3.9697,3.9697,3.9697,3.9697,3.9697,3.9697,3.9697,3.9697,3.9697,3.9697,3.9697,3.9697,3.9697,3.9697,3.9929,4.0541,4.0642,4.0895,4.1541,4.1591,4.1591,4.1591,4.2181,4.2544,4.2544,4.3462,4.3388,4.2058,4.3239,4.3138,4.1562,4.1768,4.1015,3.9173,3.9145,3.9129,3.9142,3.8382,3.7911,0.0,0.0,0.0,0.0,0.0,0.0,0.0,2.659,2.7806,2.7806,2.9026,3.0131,3.0256,3.106,3.2039,3.3068,3.342,3.4022,3.5307,3.5683,3.5809,3.5809,3.5809,3.6031,3.6531,3.701,3.7337,3.7337,3.7764,3.8065,3.8165,3.8165,3.8442,3.907,3.907,3.9245,3.9697,3.9697,3.9697,3.9697,3.9697,3.9697,3.9697,3.9697,3.9697,3.9697,3.9697,3.9697,3.9697,3.9697,3.9697,3.9697,3.9697,3.9697,3.9697,3.9697,3.9697,3.9697,3.9697,3.9697,3.9697,3.9697,3.9697,3.9697,3.9697,3.9697,3.9697,3.9697,3.9697,3.9697,3.9697,3.9697,3.9697,3.9697,3.9697,3.9697,3.9697,3.9697,3.9697,3.9697,3.9697,3.9697,3.9697,3.9697,3.9697,3.9697,3.9697,3.9697,3.9697,3.9697,3.9697,3.9697,3.9697,3.9697,3.9697,4.0642,4.1219,4.1219,4.2398,4.2424,4.0882,4.2032,4.2296,4.1387,4.1032,4.0595,4.0032,3.9708,3.9997,4.0712,3.9213,3.8708,2.5209,2.5686,2.6122,2.6122,2.6575,2.7017,0.0,2.8298,2.9503,2.9503,3.0407,3.1361,3.1863,3.2466,3.3093,3.3696,3.4625,3.5282,3.5483,3.6383,3.701,3.701,3.701,3.7036,3.7086,3.7588,3.7914,3.7914,3.7965,3.8241,3.8743,3.8768,3.9019,3.9597,3.9597,3.9622,3.9697,3.9697,3.9697,3.9697,3.9697,3.9697,3.9697,3.9697,3.9697,3.9697,3.9697,3.9697,3.9697,3.9697,3.9697,3.9697,3.9697,3.9697,3.9697,3.9697,3.9697,3.9697,3.9697,3.9697,3.9697,3.9697,3.9697,3.9697,3.9697,3.9697,3.9697,3.9697,3.9697,3.9697,3.9697,3.9697,3.9697,3.9697,3.9697,3.9697,3.9697,3.9697,3.9697,3.9697,3.9697,3.9697,3.9697,3.9697,3.9697,3.9697,3.9697,3.9697,3.9697,3.9697,3.9697,3.9697,3.9697,3.9697,3.9697,3.9826,3.9929,3.9929,4.1119,4.1713,4.1512,4.2677,4.2596,4.093,4.1773,4.0958,3.8282,3.929,3.9311,3.8375,3.8178,3.8673,2.6992,2.7243,2.7419,2.7419,2.8097,2.875,2.875,2.9779,3.0733,3.0733,3.1612,3.2441,3.2667,3.3445,3.4223,3.4731,3.5207,3.5734,3.6408,3.6885,3.7312,3.7638,3.7965,3.804,3.7688,3.8191,3.8517,3.8517,3.8793,3.9094,3.9346,3.9346,3.9446,3.9697,3.9697,3.9697,3.9697,3.9697,3.9697,3.9697,3.9697,3.9697,3.9697,3.9697,3.9697,3.9697,3.9697,3.9697,3.9697,3.9697,3.9697,3.9697,3.9697,3.9697,3.9697,3.9697,3.9697,3.9697,3.9697,3.9697,3.9697,3.9697,3.9697,3.9697,3.9697,3.9697,3.9697,3.9697,3.9697,3.9697,3.9697,3.9697,3.9697,3.9697,3.9697,3.9697,3.9697,3.9697,3.9697,3.9697,3.9697,3.9697,3.9697,3.9697,3.9697,3.9697,3.9697,3.9697,3.9697,3.9697,3.9697,3.9697,3.9697,3.9697,3.9697,3.9697,3.9697,3.9697,4.0211,4.0516,4.0516,4.1019,4.0915,4.0157,4.0631,4.0279,3.8994,3.9523,3.9848,4.007,3.9043,3.92,2.8323,2.8574,2.88,2.88,2.9528,3.0231,3.0231,3.0959,3.1662,3.1813,3.2616,3.3395,3.3696,3.4399,3.5082,3.568,3.5859,3.6282,3.7061,3.7462,3.7789,3.8191,3.8743,3.8944,3.8517,3.8843,3.9094,3.9094,3.9471,3.9697,3.9697,3.9697,3.9697,3.9697,3.9697,3.9697,3.9697,3.9697,3.9697,3.9697,3.9697,3.9697,3.9697,3.9697,3.9697,3.9697,3.9697,3.9697,3.9697,3.9697,3.9697,3.9697,3.9697,3.9697,3.9697,3.9697,3.9697,3.9697,3.9697,3.9697,3.9697,3.9697,3.9697,3.9697,3.9697,3.9697,3.9697,3.9697,3.9697,3.9697,3.9697,3.9697,3.9697,3.9697,3.9697,3.9697,3.9697,3.9697,3.9697,3.9697,3.9697,3.9697,3.9697,3.9697,3.9697,3.9697,3.9697,3.9697,3.9697,3.9697,3.9697,3.9697,3.9697,3.9697,3.9697,3.9697,3.9697,3.9697,3.9697,3.9697,3.9697,3.9697,3.9697,3.9697,3.9697,3.9697,3.9697,3.9697,4.016,4.1069,3.9702,3.9625,2.8863,2.9665,3.0532,3.0532,3.0934,3.1336,3.1336,3.1788,3.234,3.2918,3.347,3.4198,3.5232,3.5458,3.5658,3.6279,3.6784,3.7136,3.7186,3.8115,3.8818,3.8894,3.932,3.9672,0.0,3.9647,3.9672,3.9672,3.9697,3.9697,3.9697,3.9697,3.9697,3.9697,3.9697,3.9697,3.9697,3.9697,3.9697,3.9697,3.9697,3.9697,3.9697,3.9697,3.9697,3.9697,3.9697,3.9697,3.9697,3.9697,3.9697,3.9697,3.9697,3.9697,3.9697,3.9697,3.9697,3.9697,3.9697,3.9697,3.9697,3.9697,3.9697,3.9697,3.9697,3.9697,3.9697,3.9697,3.9697,3.9697,3.9697,3.9697,3.9697,3.9697,3.9697,3.9697,3.9697,3.9697,3.9697,3.9697,3.9697,3.9697,3.9697,3.9697,3.9697,3.9697,3.9697,3.9697,3.9697,3.9697,3.9697,3.9697,3.9697,3.9697,3.9697,3.9697,3.9697,3.9697,3.9697,3.9697,3.9697,3.9697,3.9697,3.9697,3.9697,3.9697,3.9697,3.9697,3.9749,3.9749,3.9724,3.9724,2.9916,3.0331,3.0708,3.1035,3.1537,3.1938,3.1938,3.2365,3.2842,3.3086,3.352,3.4123,3.4831,3.5257,3.5683,3.6329,3.6883,3.7312,3.7688,3.8391,3.9019,3.9371,3.9572,3.9697,0.0,0.0,0.0,3.9697,3.9697,3.9697,3.9697,3.9697,3.9697,3.9697,3.9697,3.9697,3.9697,3.9697,3.9697,3.9697,3.9697,3.9697,3.9697,3.9697,3.9697,3.9697,3.9697,3.9697,3.9697,3.9697,3.9697,3.9697,3.9697,3.9697,3.9697,3.9697,3.9697,3.9697,3.9697,3.9697,3.9697,3.9697,3.9697,3.9697,3.9697,3.9697,3.9697,3.9697,3.9697,3.9697,3.9697,3.9697,3.9697,3.9697,3.9697,3.9697,3.9697,3.9697,3.9697,3.9697,3.9697,3.9697,3.9697,3.9697,3.9697,3.9697,3.9697,3.9697,3.9697,3.9697,3.9697,3.9697,3.9697,3.9697,3.9697,3.9697,3.9697,3.9697,3.9697,3.9697,3.9697,3.9697,3.9697,3.9697,3.9697,3.9697,3.9697,3.9697,3.9697,3.9697,3.9697,3.9697,3.0507,3.0884,3.126,3.1612,3.2114,3.2516,3.2516,3.2817,3.3144,3.3345,3.3646,3.4073,3.4625,3.5132,3.5608,3.6006,3.686,3.7613,3.7965,3.8668,3.9295,3.9647,3.9697,3.9697,3.9697,3.9697,0.0,3.9697,3.9697,3.9697,3.9697,3.9697,3.9697,3.9697,3.9697,3.9697,3.9697,3.9697,3.9697,3.9697,3.9697,3.9697,3.9697,3.9697,3.9697,3.9697,3.9697,3.9697,3.9697,3.9697,3.9697,3.9697,3.9697,3.9697,3.9697,3.9697,3.9697,3.9697,3.9697,3.9697,3.9697,3.9697,3.9697,3.9697,3.9697,3.9697,3.9697,3.9697,3.9697,3.9697,3.9697,3.9697,3.9697,3.9697,3.9697,3.9697,3.9697,3.9697,3.9747,3.9948,3.9998,4.0049,4.0249,4.0275,4.0275,4.0275,4.0275,4.0149,3.9747,3.9697,3.9697,3.9697,3.9697,3.9697,3.9697,3.9697,3.9697,3.9697,3.9697,3.9697,3.9697,3.9697,3.9697,3.9697,3.9697,3.9697,3.9697,3.9697,3.9697,3.9697,3.9697,3.9697,3.0683,3.1436,3.2215,3.224,3.2667,3.3111,3.3111,3.3086,3.3194,3.3696,3.3796,3.3947,3.4525,3.5031,3.5408,3.5483,3.691,3.7965,3.8015,3.8969,3.9697,3.9697,3.9697,3.9697,3.9697,3.9697,0.0,3.9697,0.0,3.9697,3.9697,3.9697,3.9697,3.9697,3.9697,3.9697,3.9697,3.9697,3.9697,3.9697,3.9697,3.9697,3.9697,3.9697,3.9697,3.9697,3.9697,3.9697,3.9697,3.9697,3.9697,3.9697,3.9722,3.9747,3.9747,3.9772,3.9772,3.9772,3.9772,3.9747,3.9697,3.9697,3.9697,3.9697,3.9697,3.9697,3.9697,3.9697,3.9697,3.9697,3.9722,3.9747,3.9747,3.9772,3.9772,3.9772,3.9772,3.9772,3.9923,4.045,4.0551,4.0727,4.12,4.1275,4.1275,4.1275,4.1275,4.0899,3.9873,3.9747,3.9722,3.9697,3.9697,3.9697,3.9697,3.9697,3.9697,3.9697,3.9697,3.9697,3.9697,3.9697,3.9697,3.9697,3.9697,3.9697,3.9697,3.9697,3.9697,3.9697,3.9697,3.9697,3.1587,3.2014,3.2315,3.2742,3.3011,3.3111,3.3111,3.2742,3.2466,3.2616,3.2315,3.234,3.3319,3.3621,3.4123,3.5307,3.6584,3.7538,3.7939,3.8969,3.9697,3.9697,3.9697,3.9697,3.9697,3.9697,3.9697,0.0,3.9697,3.9697,3.9697,3.9697,3.9697,3.9697,3.9697,3.9697,3.9697,3.9697,3.9697,3.9697,3.9697,3.9697,3.9697,3.9697,3.9697,3.9697,3.9697,3.9697,3.9697,3.9697,3.9697,3.9747,4.0149,4.03,4.035,4.0724,4.0874,4.0874,4.0874,4.0375,3.9697,3.9697,3.9697,3.9697,3.9697,3.9697,3.9697,3.9697,3.9697,3.9798,4.0199,4.03,4.04,4.0827,4.0874,4.0874,4.0874,4.0874,4.0899,4.105,4.1075,4.1125,4.125,4.1275,4.1275,4.1275,4.1275,4.105,4.04,4.03,4.0149,3.9747,3.9697,3.9697,3.9697,3.9697,3.9697,3.9697,3.9697,3.9697,3.9697,3.9697,3.9697,3.9697,3.9697,3.9697,3.9697,3.9697,3.9697,3.9697,3.9697,3.9697,3.2365,3.2591,3.2717,3.3294,3.3244,3.3061,3.2767,3.2441,3.2139,3.1913,3.1612,3.1587,3.2215,3.2742,3.347,3.4625,3.5956,3.7111,3.7889,3.8768,3.9421,3.9672,3.9697,3.9697,3.9697,3.9697,3.9697,3.9697,3.9697,3.9697,3.9697,3.9697,3.9697,3.9697,3.9697,3.9697,3.9697,3.9697,3.9697,3.9697,3.9697,3.9697,3.9697,3.9948,4.0049,4.0074,0.0,4.0425,4.0425,4.0425,4.0425,4.045,4.0752,4.0824,4.0902,4.1175,4.1275,4.1275,4.1275,4.0874,4.0425,4.0425,4.0425,4.0425,4.0425,4.0425,4.0425,4.0425,4.0425,4.0475,4.0802,4.0824,4.0953,4.12,4.1275,4.1275,4.1275,4.1275,4.1351,4.1656,4.1882,4.2057,4.2057,4.2057,4.2057,4.2057,4.2057,4.1856,4.1304,4.1028,4.0752,4.045,4.0199,4.0049,4.0049,3.9848,3.9697,3.9697,3.9697,3.9697,3.9697,3.9697,3.9697,3.9697,3.9697,3.9697,3.9697,3.9697,3.9697,3.9697,3.9697,3.9697,3.3018,3.3144,3.3219,3.3771,3.3495,3.2918,3.234,3.2164,3.1938,3.1411,3.1235,3.121,3.126,3.2089,3.2968,3.3671,3.5102,3.6606,3.7739,3.8467,3.9069,3.9622,3.9697,3.9697,3.9697,3.9697,3.9697,3.9697,3.9697,3.9697,3.9697,3.9697,3.9697,3.9697,3.9697,3.9697,3.9697,3.9697,3.9722,3.9798,3.9798,3.9848,3.9923,4.04,4.0626,4.0651,4.1075,0.0,4.1275,4.1275,4.1275,4.13,4.1376,4.1401,4.1401,4.1476,4.1501,4.1501,4.1501,4.1501,4.1476,4.1326,4.1275,4.1275,4.1275,4.1275,4.1275,4.1275,4.1275,4.13,4.1376,4.1401,4.1455,4.1476,4.1501,4.1501,4.1501,4.1501,4.1706,4.2213,4.2715,4.2986,4.2986,4.2986,4.2986,4.2986,4.2986,4.2811,4.2389,4.1781,4.1376,4.13,4.0849,4.0626,4.0626,4.0124,3.9798,3.9798,3.9747,3.9697,3.9697,3.9697,3.9697,3.9697,3.9697,3.9697,3.9697,3.9697,3.9697,3.9697,3.9697,3.9697,3.347,3.342,3.3219,3.3771,3.3495,3.2918,3.234,3.1863,3.1386,3.0859,3.0382,3.0206,3.0658,3.0909,3.1512,3.2993,3.4223,3.5554,3.7111,3.8216,3.9069,3.9622,3.9697,3.9697,3.9697,3.9697,3.9697,0.0,3.9697,3.9697,3.9697,3.9697,3.9697,3.9697,3.9697,3.9697,3.9697,3.9697,3.9923,4.0375,4.0375,4.0601,4.1,4.11,4.115,4.115,4.125,0.0,4.1275,4.1275,4.1275,4.1326,4.1831,4.2062,4.2112,4.2534,4.2685,4.2685,4.2685,4.2685,4.2534,4.163,4.1275,4.1275,4.1275,4.1275,4.1275,4.1275,4.1275,4.1376,4.1882,4.2062,4.2187,4.2585,4.2685,4.2685,4.2685,4.2685,4.271,4.2811,4.2911,4.2986,4.2986,4.2986,4.2986,4.2986,4.2986,4.2936,4.2836,4.2414,4.1831,4.1326,4.12,4.115,4.115,4.0701,4.0375,4.0375,3.9948,3.9697,3.9697,3.9697,3.9697,3.9697,3.9697,3.9697,3.9697,3.9697,3.9697,3.9697,3.9697,3.9697,3.4022,3.3721,3.3312,3.4123,3.347,3.2466,3.1913,3.1361,3.0834,3.0306,2.998,2.988,3.0131,3.0407,3.106,3.2416,3.3571,3.4876,3.6581,3.7713,3.8642,3.9195,3.9521,3.9697,3.9697,3.9697,3.9697,3.9697,3.9697,3.9697,3.9697,3.9697,3.9697,3.9697,3.9973,4.0124,4.0124,4.04,4.0676,4.0953,4.0953,4.1025,4.13,4.163,4.1756,4.1781,4.2057,0.0,4.2183,4.2183,4.2183,4.2208,4.2484,4.264,4.2665,4.2942,4.2986,4.2986,4.2986,4.2986,4.2886,4.2359,4.2183,4.2183,4.2183,4.2183,4.2183,4.2183,4.2183,4.2258,4.2509,4.264,4.2715,4.2911,4.2986,4.2986,4.2986,4.2986,4.2986,4.2986,4.2986,4.2986,4.2986,4.2986,4.2986,4.2986,4.2986,4.2986,4.2986,4.2816,4.2484,4.2233,4.1932,4.1756,4.1756,4.1254,4.0953,4.0953,4.0425,4.0124,4.0124,3.9848,3.9697,3.9697,3.9697,3.9697,3.9697,3.9697,3.9697,3.9697,3.9697,3.9697,3.4248,3.3822,3.3294,3.4148,3.3294,3.2039,3.1386,3.0909,3.0432,2.9754,2.9603,2.9603,2.9603,2.9955,3.0608,3.1687,3.2817,3.4123,3.578,3.7061,3.809,3.8844,3.9346,3.9697,3.9697,3.9697,0.0,3.9697,0.0,0.0,3.9873,3.9873,3.9923,4.0049,4.0475,4.0701,4.0701,4.1075,4.1351,4.1505,4.1505,4.158,4.1706,4.2133,4.2389,4.2414,4.2841,0.0,0.0,4.2986,4.2986,4.2986,4.2986,4.2986,4.2986,4.2986,4.2986,4.2986,4.2986,4.2986,4.2986,4.2986,4.2986,4.2986,4.2986,4.2986,4.2986,4.2986,4.2986,4.2986,4.2986,4.2986,4.2986,4.2986,4.2986,4.2986,4.2986,4.2986,4.2986,4.2986,4.2986,4.2986,4.2986,4.2986,4.2986,4.2986,4.2986,4.2986,4.2986,4.2986,4.2986,4.2986,4.264,4.2389,4.2389,4.1831,4.1505,4.1505,4.1003,4.0651,4.0526,4.0099,3.9823,3.9697,3.9697,3.9697,3.9697,3.9697,3.9697,3.9697,3.9697,3.9697,3.3671,3.3545,3.3093,3.3194,3.2717,3.1938,3.0909,3.0658,3.0267,2.9189,2.8963,2.8963,2.8963,2.9013,2.9414,3.0583,3.1662,3.2943,3.4625,3.6257,3.7663,3.8793,3.9346,3.9697,3.9697,3.9697,3.9697,3.9697,0.0,0.0,4.045,4.045,4.0676,4.1125,4.1175,4.12,4.12,4.125,4.1605,4.2137,4.2137,4.2333,4.2836,4.2886,4.2911,4.2911,4.2961,0.0,0.0,4.2986,4.2986,4.2986,4.2986,4.2986,4.2986,4.2986,4.2986,4.2986,4.2986,4.2986,4.2986,4.2986,4.2986,4.2986,4.2986,4.2986,4.2986,4.2986,4.2986,4.2986,4.2986,4.2986,4.2986,4.2986,4.2986,4.2986,4.2986,4.2986,4.2986,4.2986,4.2986,4.2986,4.2986,4.2986,4.2986,4.2986,4.2986,4.2986,4.2986,4.2986,4.2986,4.2986,4.2992,4.2911,4.2911,4.2464,4.2137,4.2137,4.158,4.1,4.0551,4.0475,4.0199,3.9697,3.9697,3.9697,3.9697,3.9697,3.9697,3.9697,3.9697,3.9697,3.3194,3.2993,3.2641,3.2993,3.2164,3.1135,3.0708,3.0041,2.9439,2.8988,2.8637,2.8524,2.8838,2.8888,2.9264,3.0432,3.1512,3.2692,3.4048,3.5931,3.7487,3.8266,3.9145,3.9697,3.9697,0.0,3.9823,0.0,0.0,0.0,4.148,4.1204,4.105,4.1275,4.1656,4.1831,4.1831,4.2158,4.2434,4.2715,4.2715,4.276,4.2986,4.2986,4.2986,4.2986,4.2986,0.0,0.0,4.2986,4.2986,4.2986,4.2986,4.2986,4.2986,4.2986,4.2986,4.2986,4.2986,4.2986,4.2986,4.2986,4.2986,4.2986,4.2986,4.2986,4.2986,4.2986,4.2986,4.2986,4.2986,4.2986,4.2986,4.2986,4.2986,4.2986,4.2986,4.2986,4.2986,4.2986,4.2986,4.2986,4.2986,4.2986,4.2986,4.2986,4.2986,4.2986,4.2986,4.2986,4.2986,4.2986,4.2986,4.2986,4.2986,4.2785,4.2715,4.2715,4.2133,4.1731,4.1505,4.0877,4.04,4.0199,3.9873,3.9697,3.9697,3.9697,3.9697,3.9697,3.9697,3.9697,3.2416,3.229,3.2039,3.229,3.1461,3.0583,3.0407,2.959,2.8838,2.8687,2.8247,2.7971,2.8373,2.8574,2.8963,2.9955,3.116,3.2365,3.3495,3.5554,3.7211,3.7914,3.8994,3.9697,3.9697,3.9848,4.0174,0.0,0.0,0.0,4.2414,4.2032,4.1831,4.1831,4.2208,4.2464,4.2464,4.2841,4.2986,4.2986,4.2986,4.2986,4.2986,4.2986,4.2986,4.2986,0.0,0.0,0.0,4.2986,4.2986,4.2986,4.2986,4.2986,4.2986,4.2986,4.2986,4.2986,4.2986,4.2986,4.2986,4.2986,4.2986,4.2986,4.2986,4.2986,4.2986,4.2986,4.2986,4.2986,4.2986,4.2986,4.2986,4.2986,4.2986,4.2986,4.2986,4.2986,4.2986,4.2986,4.2986,4.2986,4.2986,4.2986,4.2986,4.2986,4.2986,4.2986,4.2986,4.2986,4.2986,4.2986,4.2986,4.2986,4.2986,4.2986,4.2986,4.2986,4.2665,4.2389,4.2213,4.1404,4.0852,4.0526,4.0149,3.9848,3.9697,3.9697,3.9697,3.9697,3.9697,3.9697,3.126,3.1411,3.1286,3.0758,3.0633,3.0482,2.993,2.9352,2.8737,2.8222,2.767,2.7329,2.7329,2.7745,2.8298,2.8813,3.0331,3.1788,3.296,3.5022,3.6784,3.7864,3.8994,3.9697,3.9697,4.0199,0.0,0.0,0.0,0.0,4.2936,4.2961,4.2961,4.2961,4.2961,4.2961,4.2961,4.2986,4.2986,4.2986,4.2986,4.2986,4.2986,4.2986,4.2986,0.0,0.0,0.0,0.0,4.2986,4.2986,4.2986,4.2986,4.2986,4.2986,4.2986,4.2986,4.2986,4.2986,4.2986,4.2986,4.2986,4.2986,4.2986,4.2986,4.2986,4.2986,4.2986,4.2986,4.2986,4.2986,4.2986,4.2986,4.2986,4.2986,4.2986,4.2986,4.2986,4.2986,4.2986,4.2986,4.2986,4.2986,4.2986,4.2986,4.2986,4.2986,4.2986,4.2986,4.2986,4.2986,4.2986,4.2986,4.2986,4.2986,4.2986,4.2986,4.2986,4.2961,4.2766,4.2238,4.2213,4.163,4.0526,4.0501,4.0249,3.9697,3.9697,3.9697,3.9697,3.9697,3.9697,3.0809,3.0859,3.0809,3.0658,3.0331,2.9905,2.9327,2.8775,2.8222,2.7645,2.7128,2.6977,2.7695,2.7996,2.8423,2.9377,3.0583,3.1788,3.296,3.5002,3.6784,3.7889,3.8994,3.9697,0.0,0.0,0.0,0.0,0.0,0.0,4.2936,4.2986,4.2986,4.2986,4.2986,4.2986,4.2986,4.2986,4.2986,4.2986,4.2986,4.2986,4.2986,4.2986,0.0,0.0,0.0,0.0,0.0,4.2986,4.2986,4.2986,4.2986,4.2986,4.2986,4.2986,4.2986,4.2986,4.2986,4.2986,4.2986,4.2986,4.2986,4.2986,4.2986,4.2986,4.2986,4.2986,4.2986,4.2986,4.2986,4.2986,4.2986,4.2986,4.2986,4.2986,4.2986,4.2986,4.2986,4.2986,4.2986,4.2986,4.2986,4.2986,4.2986,4.2986,4.2986,4.2986,4.2986,4.2986,4.2986,4.2986,4.2986,4.2986,4.2986,4.2986,4.2986,4.2986,4.2986,4.2886,4.2766,4.2414,4.2037,4.1656,4.0902,4.0425,4.0249,3.9873,3.9697,3.9697,3.9697,3.9697,2.9891,3.0131,3.0306,3.0306,2.988,2.9377,2.8988,2.8348,2.7695,2.7344,2.6876,2.6776,2.762,2.7971,2.8473,2.9603,3.0683,3.1863,3.3194,3.5127,3.696,3.8467,3.927,0.0,0.0,0.0,0.0,0.0,0.0,0.0,4.2961,4.2986,4.2986,4.2986,4.2986,4.2986,4.2986,4.2986,4.2986,4.2986,4.2986,4.2986,4.2986,4.2986,0.0,0.0,0.0,0.0,0.0,4.2986,4.2986,4.2986,4.2986,4.2986,4.2986,4.2986,4.2986,4.2986,4.2986,4.2986,4.2986,4.2986,4.2986,4.2986,4.2986,4.2986,4.2986,4.2986,4.2986,4.2986,4.2986,4.2986,4.2986,4.2986,4.2986,4.2986,4.2986,4.2986,4.2986,4.2986,4.2986,4.2986,4.2986,4.2986,4.2986,4.2986,4.2986,4.2986,4.2986,4.2986,4.2986,4.2986,4.2986,4.2986,4.2986,4.2986,4.2986,4.2986,4.2986,4.2986,4.2986,4.2715,4.2414,4.2213,4.148,4.0927,4.0526,3.9973,3.9697,3.9697,3.9697,3.9697,0.0,2.9252,2.9754,2.9779,2.9377,2.8938,2.8888,2.8147,0.0,2.7344,2.6977,2.6776,2.7293,2.7821,2.8524,2.9654,3.0758,3.2039,3.3721,3.5454,3.7385,3.9446,3.9697,0.0,3.9697,0.0,0.0,0.0,0.0,0.0,4.2986,4.2986,4.2986,4.2986,4.2986,4.2986,4.2986,4.2986,4.2986,4.2986,4.2986,4.2986,4.2986,4.2986,0.0,0.0,0.0,0.0,0.0,4.2986,4.2986,4.2986,4.2986,4.2986,4.2986,4.2986,4.2986,4.2986,4.2986,4.2986,4.2986,4.2986,4.2986,4.2986,4.2986,4.2986,4.2986,4.2986,4.2986,4.2986,4.2986,4.2986,4.2986,4.2986,4.2986,4.2986,4.2986,4.2986,4.2986,4.2986,4.2986,4.2986,4.2986,4.2986,4.2986,4.2986,4.2986,4.2986,4.2986,4.2986,4.2986,4.2986,4.2986,4.2986,4.2986,4.2986,4.2986,4.2986,4.2986,4.2986,4.2986,4.2986,4.2791,4.2288,4.2238,4.1605,4.0526,3.9998,3.9747,3.9697,3.9697,3.9697,2.7519,0.0,2.9227,2.9679,2.9679,2.9478,0.0,2.8687,2.8423,2.7996,2.7821,2.7896,2.8448,2.8612,2.9101,3.0231,3.1311,3.2616,3.4299,3.6684,3.8693,3.9572,3.9697,3.9697,3.9697,0.0,0.0,0.0,0.0,4.2986,4.2986,4.2986,4.2986,4.2986,4.2986,4.2986,4.2986,4.2986,4.2986,4.2986,4.2986,4.2986,4.2986,4.2986,0.0,0.0,0.0,0.0,4.2986,4.2986,4.2986,4.2986,4.2986,4.2986,4.2986,4.2986,4.2986,4.2986,4.2986,4.2986,4.2986,4.2986,4.2986,4.2986,4.2986,4.2986,4.2986,4.2986,4.2986,4.2986,4.2986,4.2986,4.2986,4.2986,4.2986,4.2986,4.2986,4.2986,4.2986,4.2986,4.2986,4.2986,4.2986,4.2986,4.2986,4.2986,4.2986,4.2986,4.2986,4.2986,4.2986,4.2986,4.2986,4.2986,4.2986,4.2986,4.2986,4.2986,4.2986,4.2986,4.2986,4.2986,4.2911,4.2785,4.2414,4.1605,4.0526,4.0375,4.0099,3.9697,3.9697,3.9697,2.7102,2.8097,2.8963,2.9327,2.9402,2.9327,2.8963,2.8687,2.8473,2.8172,2.8097,2.8273,2.8787,2.9151,2.9779,3.1135,3.2265,3.3746,3.5931,3.7739,3.9069,3.9622,3.9923,4.0074,0.0,0.0,0.0,0.0,0.0,4.2986,4.2986,4.2986,4.2986,4.2986,4.2986,4.2986,4.2986,4.2986,4.2986,4.2986,4.2986,4.2986,4.2986,4.2986,4.2986,0.0,0.0,0.0,4.2986,4.2986,4.2986,4.2986,4.2986,4.2986,4.2986,4.2986,4.2986,4.2986,4.2986,4.2986,4.2986,4.2986,4.2986,4.2986,4.2986,4.2986,4.2986,4.2986,4.2986,4.2986,4.2986,4.2986,4.2986,4.2986,4.2986,4.2986,4.2986,4.2986,4.2986,4.2986,4.2986,4.2986,4.2986,4.2986,4.2986,4.2986,4.2986,4.2986,4.2986,4.2986,4.2986,4.2986,4.2986,4.2986,4.2986,4.2986,4.2986,4.2986,4.2986,4.2986,4.2986,4.2986,4.2986,4.2986,4.2489,4.1911,4.1279,4.0777,4.035,4.0074,3.9798,3.9697,2.6866,2.7971,2.8787,2.8863,2.8888,2.8913,2.9013,2.8699,2.8373,2.8373,2.8423,2.8624,2.9063,2.9729,3.0633,3.2114,3.3495,3.5278,3.7789,3.8642,3.917,3.9647,4.0174,0.0,0.0,0.0,0.0,0.0,0.0,4.2986,4.2986,4.2986,4.2986,4.2986,4.2986,4.2986,4.2986,4.2986,4.2986,4.2986,4.2986,4.2986,4.2986,4.2986,4.2986,0.0,0.0,0.0,4.2986,4.2986,4.2986,4.2986,4.2986,4.2986,4.2986,4.2986,4.2986,4.2986,4.2986,4.2986,4.2986,4.2986,4.2986,4.2986,4.2986,4.2986,4.2986,4.2986,4.2986,4.2986,4.2986,4.2986,4.2986,4.2986,4.2986,4.2986,4.2986,4.2986,4.2986,4.2986,4.2986,4.2986,4.2986,4.2986,4.2986,4.2986,4.2986,4.2986,4.2986,4.2986,4.2986,4.2986,4.2986,4.2986,4.2986,4.2986,4.2986,4.2986,4.2986,4.2986,4.2986,4.2986,4.2986,4.2986,4.2564,4.2288,4.2213,4.1229,4.0727,4.0626,4.0074,3.9823,2.6323,2.7394,2.8348,2.8787,2.8888,2.9013,2.9553,2.9603,2.9528,2.9528,2.9905,3.0256,3.0331,3.116,3.2089,3.2817,3.5052,3.7161,3.8542,3.922,3.9597,3.9697,0.0,0.0,0.0,0.0,0.0,0.0,0.0,0.0,4.2986,4.2986,4.2986,4.2986,4.2986,4.2986,4.2986,4.2986,4.2986,4.2986,4.2986,4.2986,4.2986,4.2986,4.2986,0.0,0.0,4.2986,4.2986,4.2986,4.2986,4.2986,4.2986,4.2986,4.2986,4.2986,4.2986,4.2986,4.2986,4.2986,4.2986,4.2986,4.2986,4.2986,4.2986,4.2986,4.2986,4.2986,4.2986,4.2986,4.2986,4.2986,4.2986,4.2986,4.2986,4.2986,4.2986,4.2986,4.2986,4.2986,4.2986,4.2986,4.2986,4.2986,4.2986,4.2986,4.2986,4.2986,4.2986,4.2986,4.2986,4.2986,4.2986,4.2986,4.2986,4.2986,4.2986,4.2986,4.2986,4.2986,4.2986,4.2986,4.2986,4.2986,4.2886,4.2665,4.2213,4.2037,4.1681,4.115,4.0651,4.04,2.6625,2.7268,2.7871,2.8687,2.9176,2.9478,2.9729,3.003,3.0231,3.0231,3.0658,3.1135,3.1411,3.2139,3.3244,3.5002,3.686,3.8366,3.9195,3.9546,3.9697,0.0,0.0,0.0,0.0,0.0,0.0,0.0,0.0,0.0,4.2986,4.2986,4.2986,4.2986,4.2986,4.2986,4.2986,4.2986,4.2986,4.2986,4.2986,4.2986,4.2986,4.2986,4.2986,4.2986,0.0,4.2986,4.2986,4.2986,4.2986,4.2986,4.2986,4.2986,4.2986,4.2986,4.2986,4.2986,4.2986,4.2986,4.2986,4.2986,4.2986,4.2986,4.2986,4.2986,4.2986,4.2986,4.2986,4.2986,4.2986,4.2986,4.2986,4.2986,4.2986,4.2986,4.2986,4.2986,4.2986,4.2986,4.2986,4.2986,4.2986,4.2986,4.2986,4.2986,4.2986,4.2986,4.2986,4.2986,4.2986,4.2986,4.2986,4.2986,4.2986,4.2986,4.2986,4.2986,4.2986,4.2986,4.2986,4.2986,4.2986,4.2986,4.2986,4.2861,4.2665,4.2363,4.2087,4.1756,4.1229,4.0899,2.7017,2.7469,2.7896,2.8875,2.9478,2.9829,2.9955,3.0407,3.0834,3.0959,3.1411,3.1989,3.2667,3.347,3.4871,3.7186,3.8316,3.912,3.9622,3.9697,3.9697,0.0,0.0,0.0,0.0,0.0,0.0,0.0,0.0,0.0,4.2986,0.0,4.2986,4.2986,4.2986,4.2986,4.2986,4.2986,4.2986,4.2986,4.2986,4.2986,4.2986,4.2986,4.2986,4.2986,4.2986,4.2986,4.2986,4.2986,4.2986,4.2986,4.2986,4.2986,4.2986,4.2986,4.2986,4.2986,4.2986,4.2986,4.2986,4.2986,4.2986,4.2986,4.2986,4.2986,4.2986,4.2986,4.2986,4.2986,4.2986,4.2986,4.2986,4.2986,4.2986,4.2986,4.2986,4.2986,4.2986,4.2986,4.2986,4.2986,4.2986,4.2986,4.2986,4.2986,4.2986,4.2986,4.2986,4.2986,4.2986,4.2986,4.2986,4.2986,4.2986,4.2986,4.2986,4.2986,4.2986,4.2986,4.2986,4.2986,4.2986,4.2986,4.2986,4.2986,4.2986,4.2615,4.2414,4.2389,4.1781,4.153,2.7153,2.8021,2.8913,2.9578,2.9754,2.993,3.0432,3.0959,3.1486,3.1989,3.2541,3.3269,3.4349,3.583,3.7287,3.8542,3.8869,3.912,3.9622,0.0,0.0,0.0,0.0,0.0,0.0,0.0,0.0,0.0,0.0,0.0,0.0,0.0,0.0,4.2986,4.2986,4.2986,4.2986,4.2986,4.2986,4.2986,4.2986,4.2986,4.2986,4.2986,4.2986,4.2986,4.2986,4.2986,4.2986,4.2986,4.2986,4.2986,4.2986,4.2986,4.2986,4.2986,4.2986,4.2986,4.2986,4.2986,4.2986,4.2986,4.2986,4.2986,4.2986,4.2986,4.2986,4.2986,4.2986,4.2986,4.2986,4.2986,4.2986,4.2986,4.2986,4.2986,4.2986,4.2986,4.2986,4.2986,4.2986,4.2986,4.2986,4.2986,4.2986,4.2986,4.2986,4.2986,4.2986,4.2986,4.2986,4.2986,4.2986,4.2986,4.2986,4.2986,4.2986,4.2986,4.2986,4.2986,4.2986,4.2986,4.2986,4.2986,4.2986,4.2986,4.2986,4.2936,4.2911,4.2911,4.2414,4.2162,2.7645,2.8624,2.9603,3.0156,3.1085,3.1788,3.1637,3.2039,3.2591,3.3144,3.3972,3.4951,3.6056,3.7337,3.8416,3.8844,3.917,3.9446,3.9672,0.0,0.0,0.0,0.0,0.0,0.0,0.0,0.0,0.0,0.0,0.0,0.0,0.0,0.0,4.2986,4.2986,4.2986,4.2986,4.2986,4.2986,4.2986,4.2986,4.2986,4.2986,4.2986,4.2986,4.2986,4.2986,4.2986,4.2986,4.2986,4.2986,4.2986,4.2986,4.2986,4.2986,4.2986,4.2986,4.2986,4.2986,4.2986,4.2986,4.2986,4.2986,4.2986,4.2986,4.2986,4.2986,4.2986,4.2986,4.2986,4.2986,4.2986,4.2986,4.2986,4.2986,4.2986,4.2986,4.2986,4.2986,4.2986,4.2986,4.2986,4.2986,4.2986,4.2986,4.2986,4.2986,4.2986,4.2986,4.2986,4.2986,4.2986,4.2986,4.2986,4.2986,4.2986,4.2986,4.2986,4.2986,4.2986,4.2986,4.2986,4.2986,4.2986,4.2986,4.2986,4.2986,4.2986,4.2986,4.2961,4.276,4.2715,2.8222,2.9176,3.0231,3.0934,3.2114,3.3144,3.3445,3.3696,3.4048,3.4776,3.583,3.6835,3.7588,3.8492,3.912,3.912,3.9446,3.9697,0.0,0.0,0.0,0.0,0.0,0.0,0.0,0.0,0.0,0.0,0.0,0.0,0.0,0.0,0.0,0.0,4.2986,4.2986,4.2986,4.2986,4.2986,4.2986,4.2986,4.2986,4.2986,4.2986,4.2986,4.2986,4.2986,4.2986,4.2986,4.2986,4.2986,4.2986,4.2986,4.2986,4.2986,4.2986,4.2986,4.2986,4.2986,4.2986,4.2986,4.2986,4.2986,4.2986,4.2986,4.2986,4.2986,4.2986,4.3112,4.3237,4.3237,4.3237,4.3237,4.3237,4.3363,4.3489,4.3489,4.3489,4.3489,4.3489,4.3489,4.3489,4.3489,4.3489,4.3438,4.3263,4.3237,4.3162,4.3011,4.2986,4.2986,4.2986,4.2986,4.2986,4.2986,4.2986,4.2986,4.2986,4.2986,4.2986,4.2986,4.2986,4.2986,4.2986,4.2986,4.2986,4.2986,4.2986,4.2986,4.2986,4.2986,4.2986,2.8737,2.9754,3.0884,3.1938,3.2667,3.3715,3.5927,3.5956,3.5809,3.6985,3.809,3.8919,3.8919,3.932,3.9697,3.9697,3.9697,3.9697,0.0,0.0,0.0,0.0,0.0,0.0,0.0,0.0,0.0,0.0,0.0,0.0,0.0,0.0,0.0,0.0,4.2986,4.2986,4.2986,4.2986,4.2986,4.2986,4.2986,4.2986,4.2986,4.2986,4.2986,4.2986,4.2986,4.2986,4.2986,4.2986,4.2986,4.2986,4.2986,4.2986,4.2986,4.2986,4.2986,4.2986,4.2986,4.2986,4.2986,4.2986,4.2986,4.2986,4.2986,4.2986,4.2986,4.2986,4.3388,4.3815,4.3815,4.3815,4.3815,4.3815,4.4217,4.4618,4.4618,4.4618,4.4618,4.4618,4.4618,4.4618,4.4618,4.4618,4.4443,4.389,4.3815,4.3614,4.3062,4.2986,4.2986,4.2986,4.2986,4.2986,4.2986,4.2986,4.2986,4.2986,4.2986,4.2986,4.2986,4.2986,4.2986,4.2986,4.2986,4.2986,4.2986,4.2986,4.2986,4.2986,4.2986,4.2986,2.8737,3.003,3.1336,3.2039,3.3477,3.5177,3.6609,3.6508,3.6533,3.8065,3.8693,3.9045,3.9371,3.9597,0.0,3.9697,3.9697,0.0,0.0,0.0,0.0,0.0,0.0,0.0,0.0,0.0,0.0,0.0,0.0,0.0,0.0,0.0,0.0,0.0,4.2986,4.2986,4.2986,4.2986,4.2986,4.2986,4.2986,4.2986,4.2986,4.2986,4.2986,4.2986,4.2986,4.2986,4.2986,4.2986,4.2986,4.2986,4.2986,4.2986,4.2986,4.2986,4.2986,4.2986,4.2986,4.2986,4.2986,4.2986,4.2986,4.2986,4.2986,4.3237,4.3564,4.3564,4.3966,4.4367,4.4367,4.4669,4.4895,4.4468,4.4493,4.4618,4.4618,4.4618,4.4618,4.4618,4.4618,4.4618,4.4618,4.4618,4.4568,4.4392,4.4367,4.4192,4.3639,4.3564,4.3413,4.3011,4.2986,4.2986,4.2986,4.2986,4.2986,4.2986,4.2986,4.2986,4.2986,4.2986,4.2986,4.2986,4.2986,4.2986,4.2986,4.2986,4.2986,4.2986,4.2986,4.2986,2.9289,3.0482,3.1637,3.2641,3.4179,3.5909,3.7487,3.7764,3.8014,3.8994,3.9195,3.9295,3.9647,3.9697,0.0,0.0,0.0,0.0,0.0,0.0,0.0,0.0,0.0,0.0,0.0,0.0,0.0,0.0,0.0,0.0,0.0,0.0,0.0,0.0,4.2986,4.2986,4.2986,4.2986,4.2986,4.2986,4.2986,4.2986,4.2986,4.2986,4.2986,4.2986,4.2986,4.2986,4.2986,4.2986,4.2986,4.2986,4.2986,4.2986,4.2986,4.2986,4.2986,4.2986,4.2986,4.2986,4.2986,4.2986,4.2986,4.3011,4.3237,4.3539,4.384,4.4066,4.4543,4.497,4.497,4.5397,4.5673,4.5095,4.5146,4.5296,4.5296,4.5296,4.5296,4.5296,4.5296,4.5296,4.5296,4.5296,4.5221,4.4995,4.4769,4.4493,4.4166,4.4141,4.3915,4.3363,4.3313,4.3212,4.2986,4.2986,4.2986,4.2986,4.2986,4.2986,4.2986,4.2986,4.2986,4.2986,4.2986,4.2986,4.2986,4.2986,4.2986,4.2986,4.2986,4.2986,3.0156,3.1035,3.1863,3.3495,3.4851,3.6285,3.8467,3.932,3.9697,3.9697,3.9697,3.9697,3.9697,3.9697,3.9697,0.0,0.0,0.0,0.0,0.0,0.0,0.0,0.0,0.0,0.0,0.0,0.0,0.0,0.0,0.0,0.0,0.0,0.0,4.2986,4.2986,4.2986,4.2986,4.2986,4.2986,0.0,4.2986,4.2986,4.2986,4.2986,4.2986,4.2986,4.2986,4.2986,4.2986,4.2986,4.2986,4.2986,4.2986,4.2986,4.2986,4.2986,4.2986,4.2986,4.2986,4.2986,4.2986,4.3037,4.3062,4.3162,4.3714,4.3915,4.4066,4.4568,4.5121,4.5573,4.5573,4.5924,4.6175,4.5673,4.5949,4.6301,4.6301,4.6301,4.6301,4.6301,4.6301,4.6301,4.6301,4.6301,4.6125,4.5648,4.5121,4.4769,4.4719,4.4694,4.4493,4.394,4.3865,4.3664,4.3112,4.3062,4.3037,4.2986,4.2986,4.2986,4.2986,4.2986,4.2986,4.2986,4.2986,4.2986,4.2986,4.2986,4.2986,4.2986,4.2986,4.2986,3.0156,3.1311,3.234,3.3596,3.5705,3.7839,3.9195,3.9622,3.9697,3.9697,3.9697,3.9697,3.9697,3.9697,0.0,0.0,0.0,0.0,0.0,0.0,0.0,0.0,0.0,0.0,0.0,0.0,0.0,0.0,0.0,0.0,0.0,0.0,0.0,4.2986,4.2986,4.2986,4.2986,4.2986,4.2986,0.0,4.2986,4.2986,4.2986,4.2986,4.2986,4.2986,4.2986,4.2986,4.2986,4.2986,4.2986,4.2986,4.2986,4.2986,4.2986,4.2986,4.2986,4.2986,4.2986,4.2986,4.3062,4.3489,4.3614,4.374,4.4292,4.4769,4.5146,4.5271,4.5698,4.6125,4.6125,4.6225,4.6276,4.6175,4.6225,4.6301,4.6301,4.6301,4.6301,4.6301,4.6301,4.6301,4.6301,4.6301,4.6276,4.615,4.6024,4.5799,4.5347,4.5296,4.507,4.4518,4.4443,4.4217,4.3664,4.3614,4.3438,4.3011,4.2986,4.2986,4.2986,4.2986,4.2986,4.2986,4.2986,4.2986,4.2986,4.2986,4.2986,4.2986,4.2986,4.2986,2.9599,3.062,3.1681,3.4435,3.6558,3.8291,3.9446,3.9697,3.9697,3.9697,3.9697,3.9697,3.9697,0.0,0.0,0.0,0.0,0.0,0.0,0.0,0.0,0.0,0.0,0.0,0.0,0.0,0.0,0.0,0.0,0.0,0.0,4.2986,4.2986,4.2986,4.2986,4.2986,4.2986,4.2986,4.2986,4.2986,4.2986,4.2986,4.2986,4.2986,4.2986,4.2986,4.2986,4.2986,4.2986,4.2986,4.2986,4.2986,4.2986,4.2986,4.2986,4.2986,4.2986,4.2986,4.2986,4.3162,4.3413,4.3714,4.3991,4.4292,4.4869,4.5246,4.5547,4.5799,4.6075,4.6301,4.6301,4.6301,4.6301,4.6301,4.6301,4.6301,4.6301,4.6301,4.6301,4.6301,4.6301,4.6301,4.6301,4.6301,4.6301,4.6301,4.6301,4.62,4.5924,4.5874,4.5673,4.5095,4.5045,4.4819,4.4242,4.4192,4.3966,4.3413,4.3363,4.3263,4.2986,4.2986,4.2986,4.2986,4.2986,4.2986,4.2986,4.2986,4.2986,4.2986,4.2986,4.2986,2.8842,2.9682,3.0815,3.4762,3.6676,3.7917,3.8988,3.9467,3.9697,3.9697,3.9697,3.9697,0.0,0.0,0.0,0.0,0.0,0.0,0.0,0.0,0.0,0.0,0.0,0.0,0.0,0.0,0.0,0.0,0.0,0.0,4.2986,4.2986,4.2986,4.2986,4.2986,4.2986,4.2986,4.2986,4.2986,4.2986,4.2986,4.2986,4.2986,4.2986,4.2986,4.2986,4.2986,4.2986,4.2986,4.2986,4.2986,4.2986,4.2986,4.2986,4.2986,4.2986,4.2986,4.2986,4.3087,4.3413,4.384,4.4041,4.4392,4.4895,4.5447,4.5623,4.5723,4.6175,4.6301,4.6301,4.6301,4.6301,4.6301,4.6301,4.6301,4.6301,4.6301,4.6301,4.6301,4.6301,4.6301,4.6301,4.6301,4.6301,4.6301,4.6301,4.6301,4.6301,4.6301,4.6301,4.6125,4.5673,4.5623,4.5397,4.4819,4.4769,4.4543,4.3966,4.384,4.3589,4.3137,4.3037,4.2986,4.2986,4.2986,4.2986,4.2986,4.2986,4.2986,4.2986,4.2986,4.2986,2.811,2.9203,3.0623,3.2522,3.4672,3.6408,3.7084,3.8524,3.9697,0.0,3.9697,0.0,0.0,0.0,0.0,0.0,0.0,0.0,0.0,0.0,0.0,0.0,0.0,0.0,0.0,0.0,0.0,0.0,0.0,0.0,4.2986,4.2986,4.2986,4.2986,4.2986,4.2986,4.2986,4.2986,4.2986,4.2986,4.2986,4.2986,4.2986,4.2986,4.2986,4.2986,4.2986,4.2986,4.2986,4.2986,4.2986,4.2986,4.2986,4.2986,4.2986,4.2986,4.2986,4.3037,4.3514,4.374,4.3966,4.4945,4.5321,4.5472,4.6024,4.62,4.6225,4.6276,4.6301,4.6301,4.6301,4.6301,4.6301,4.6301,4.6301,4.6301,4.6301,4.6301,4.6301,4.6301,4.6301,4.6301,4.6301,4.6301,4.6301,4.6301,4.6301,4.6301,4.6301,4.6301,4.6276,4.62,4.62,4.5974,4.5422,4.5372,4.5121,4.4543,4.4066,4.3765,4.3689,4.3237,4.2986,4.2986,4.2986,4.2986,4.2986,4.2986,4.2986,4.2986,4.2986,4.2986,2.6764,2.8305,2.9779,3.1289,3.3069,3.4853,3.6426,3.7674,3.8687,3.9517,0.0,0.0,0.0,0.0,0.0,0.0,0.0,0.0,0.0,0.0,0.0,0.0,0.0,0.0,0.0,0.0,0.0,0.0,0.0,4.2986,4.2986,4.2986,4.2986,4.2986,4.2986,4.2986,4.2986,4.2986,4.2986,4.2986,4.2986,4.2986,4.2986,4.2986,4.2986,4.2986,4.2986,4.2986,4.2986,4.2986,4.2986,4.2986,4.2986,4.2986,4.2986,4.2986,4.3162,4.3463,4.3714,4.4217,4.4819,4.5321,4.5698,4.5999,4.6225,4.6301,4.6301,4.6301,4.6301,4.6301,4.6301,4.6301,4.6301,4.6301,4.6301,4.6301,4.6301,4.6301,4.6301,4.6301,4.6301,4.6301,4.6301,4.6301,4.6301,4.6301,4.6301,4.6301,4.6301,4.6301,4.6301,4.6301,4.6301,4.62,4.5974,4.5949,4.5698,4.5146,4.4869,4.4593,4.4267,4.374,4.3438,4.3438,4.3137,4.2986,4.2986,4.2986,4.2986,4.2986,4.2986,4.2986,2.6035,2.729,2.8275,2.9711,3.1219,3.2833,3.478,3.601,3.7157,0.0,0.0,0.0,0.0,0.0,0.0,0.0,0.0,0.0,0.0,0.0,0.0,0.0,0.0,0.0,0.0,0.0,0.0,0.0,0.0,4.2986,4.2986,4.2986,4.2986,4.2986,4.2986,4.2986,4.2986,4.2986,4.2986,4.2986,4.2986,4.2986,4.2986,4.2986,4.2986,4.2986,4.2986,4.2986,4.2986,4.2986,4.2986,4.2986,4.2986,4.2986,4.2986,4.3137,4.3438,4.384,4.4141,4.4769,4.5522,4.5648,4.5974,4.6301,4.6301,4.6301,4.6301,4.6301,4.6301,4.6301,4.6301,4.6301,4.6301,4.6301,4.6301,4.6301,4.6301,4.6301,4.6301,4.6301,4.6301,4.6301,4.6301,4.6301,4.6301,4.6301,4.6301,4.6301,4.6301,4.6301,4.6301,4.6301,4.6301,4.6301,4.6301,4.6301,4.6125,4.5723,4.5573,4.5296,4.4869,4.4317,4.4016,4.4016,4.3463,4.3112,4.2986,4.2986,4.2986,4.2986,4.2986,4.2986,2.6635,2.6299,2.5832,2.7212,2.8838,3.0202,3.0691,3.288,3.5161,0.0,0.0,0.0,0.0,0.0,0.0,0.0,0.0,0.0,0.0,0.0,0.0,0.0,0.0,0.0,0.0,0.0,0.0,0.0,0.0,4.2986,4.2986,4.2986,4.2986,4.2986,4.2986,4.2986,4.2986,4.2986,4.2986,4.2986,4.2986,4.2986,4.2986,4.2986,4.2986,4.2986,4.2986,4.2986,4.2986,4.2986,4.2986,4.2986,4.2986,4.2986,4.3037,4.3564,4.379,4.394,4.502,4.5447,4.5573,4.61,4.6276,4.6301,4.6301,4.6301,4.6301,4.6301,4.6301,4.6301,4.6301,4.6301,4.6301,4.6301,4.6301,4.6301,4.6301,4.6301,4.6301,4.6301,4.6301,4.6301,4.6301,4.6301,4.6301,4.6301,4.6301,4.6301,4.6301,4.6301,4.6301,4.6301,4.6301,4.6301,4.6301,4.6301,4.6301,4.6276,4.5773,4.5472,4.5447,4.4895,4.4593,4.4593,4.4041,4.3514,4.2986,4.2986,4.2986,4.2986,4.2986,4.2986,2.5222,2.5775,2.5979,2.6002,2.7374,2.8943,2.9872,3.2249,3.4728,3.6441,0.0,0.0,0.0,0.0,0.0,0.0,0.0,0.0,0.0,0.0,0.0,0.0,0.0,0.0,0.0,0.0,0.0,0.0,0.0,0.0,4.2986,4.2986,4.2986,4.2986,4.2986,4.2986,4.2986,4.2986,4.2986,4.2986,4.2986,4.2986,4.2986,4.2986,4.2986,4.2986,4.2986,4.2986,4.2986,4.2986,4.2986,4.2986,4.2986,4.3187,4.3539,4.374,4.4267,4.4945,4.5347,4.5723,4.605,4.625,4.6301,4.6301,4.6301,4.6301,4.6301,4.6301,4.6301,4.6301,4.6301,4.6301,4.6301,4.6301,4.6301,4.6301,4.6301,4.6301,4.6301,4.6301,4.6301,4.6301,4.6301,4.6301,4.6301,4.6301,4.6301,4.6301,4.6301,4.6301,4.6301,4.6301,4.6301,4.6301,4.6301,4.6301,4.6301,4.6301,4.6125,4.6024,4.6024,4.5472,4.5171,4.5171,4.4618,4.4066,4.3514,4.3162,4.2986,4.2986,4.2986,4.2986,2.3906,2.4716,2.5263,2.5166,2.6094,2.7275,2.8251,3.0683,3.3168,0.0,0.0,0.0,0.0,0.0,0.0,0.0,0.0,0.0,0.0,0.0,0.0,0.0,0.0,0.0,0.0,0.0,0.0,0.0,0.0,0.0,4.2986,4.2488,4.2206,4.2206,4.2206,4.2432,4.2961,4.2986,4.2986,4.2986,4.2986,4.2986,4.2986,4.2986,4.2986,4.2986,4.2986,4.2986,4.2986,4.2986,4.2986,4.2986,4.3187,4.3489,4.384,4.4242,4.4844,4.5522,4.5698,4.5999,4.6301,4.6301,4.6301,4.6301,4.6301,4.6301,4.6301,4.6301,4.6301,4.6301,4.6301,4.6301,4.6301,4.6301,4.6301,4.6301,4.6301,4.6301,4.6301,4.6301,4.6301,4.6301,4.6301,4.6301,4.6301,4.6301,4.6301,4.6301,4.6301,4.6301,4.6301,4.6301,4.6301,4.6301,4.6301,4.6301,4.6301,4.6301,4.6301,4.6301,4.6301,4.5949,4.5773,4.5773,4.5196,4.4744,4.4367,4.3614,4.3263,4.3237,4.3062,4.2986,0.0,0.0,0.0,2.4514,2.4925,2.5184,2.5586,0.0,3.0391,0.0,0.0,0.0,0.0,0.0,0.0,0.0,0.0,0.0,0.0,0.0,0.0,0.0,0.0,0.0,0.0,0.0,0.0,0.0,0.0,4.2986,4.2986,4.1476,4.0592,4.0534,4.0592,4.1362,4.2905,4.2986,4.2986,4.2986,4.2986,4.2986,4.2986,4.2986,4.2986,4.2986,4.2986,4.2986,4.2986,4.2986,4.2986,4.3062,4.3589,4.3815,4.3991,4.507,4.5497,4.5598,4.6125,4.6301,4.6301,4.6301,4.6301,4.6301,4.6301,4.6301,4.6301,4.6301,4.6301,4.6301,4.6301,4.6301,4.6301,4.6301,4.6301,4.6301,4.6301,4.6301,4.6301,4.6301,4.6301,4.6301,4.6301,4.6301,4.6301,4.6301,4.6301,4.6301,4.6301,4.6301,4.6301,4.6301,4.6301,4.6301,4.6301,4.6301,4.6301,4.6301,4.6301,4.6301,4.6301,4.6301,4.6301,4.6301,4.5773,4.5522,4.5522,4.4367,4.3815,4.3815,4.3263,4.2986,2.2928,0.0,0.0,0.0,0.0,0.0,0.0,0.0,0.0,0.0,0.0,0.0,0.0,0.0,0.0,0.0,0.0,0.0,0.0,0.0,0.0,0.0,0.0,0.0,0.0,0.0,0.0,0.0,4.1899,4.1785,4.2905,4.1476,4.0071,3.8876,3.9989,4.0822,4.1248,4.2432,4.2986,4.2986,4.2986,4.2986,4.2986,4.2986,4.2986,4.2986,4.2986,4.2986,4.2986,4.2986,4.3212,4.3589,4.374,4.4292,4.507,4.5372,4.5748,4.61,4.625,4.6301,4.6301,4.6301,4.6301,4.6301,4.6301,4.6301,4.6301,4.6301,4.6301,4.6301,4.6301,4.6301,4.6301,4.6301,4.6301,4.6301,4.6301,4.6301,4.6301,4.6301,4.6301,4.6301,4.6301,4.6301,4.6301,4.6301,4.6301,4.6301,4.6301,4.6301,4.6301,4.6301,4.6301,4.6301,4.6301,4.6301,4.6301,4.6301,4.6301,4.6301,4.6301,4.6301,4.6301,4.6301,4.615,4.6075,4.6075,4.4945,4.4392,4.4392,4.384,4.3363,2.1779,2.2691,2.3667,2.2917,0.0,0.0,0.0,0.0,0.0,0.0,0.0,0.0,0.0,0.0,0.0,0.0,0.0,0.0,0.0,0.0,0.0,0.0,0.0,0.0,0.0,0.0,0.0,4.1219,4.0083,3.9546,3.9966,3.9756,3.8876,3.7243,3.8082,3.9206,4.0592,4.1533,4.2319,4.2986,4.2986,4.2986,4.2986,4.2986,4.2986,4.2986,4.2986,4.2986,4.2986,4.3212,4.3514,4.384,4.4317,4.492,4.5522,4.5748,4.6024,4.6301,4.6301,4.6301,4.6301,4.6301,4.6301,4.6301,4.6301,4.6301,4.6301,4.6301,4.6301,4.6301,4.6301,4.6301,4.6301,4.6301,4.6301,4.6301,4.6301,4.6301,4.6301,4.6301,4.6301,4.6301,4.6301,4.6301,4.6301,4.6301,4.6301,4.6301,4.6301,4.6301,4.6301,4.6301,4.6301,4.6301,4.6301,4.6301,4.6301,4.6301,4.6301,4.6301,4.6301,4.6301,4.6301,4.6301,4.6301,4.6301,4.6301,4.5422,4.4869,4.4618,4.4292,4.384,2.0352,2.0781,2.1527,2.1897,2.2519,0.0,0.0,0.0,0.0,0.0,0.0,0.0,0.0,0.0,0.0,0.0,0.0,0.0,0.0,0.0,0.0,0.0,0.0,0.0,0.0,3.9043,3.8506,3.903,3.8263,3.7148,3.5823,3.7238,3.732,3.556,3.5683,3.7183,4.0047,4.0419,4.1305,4.2737,4.2905,4.2986,4.2986,4.2986,4.2986,4.2986,4.2986,4.3011,4.3112,4.3664,4.389,4.3991,4.507,4.5522,4.5648,4.6125,4.6301,4.6301,4.6301,4.6301,4.6301,4.6301,4.6301,4.6301,4.6301,4.6301,4.6301,4.6301,4.6301,4.6301,4.6301,4.6301,4.6301,4.6301,4.6301,4.6301,4.6301,4.6301,4.6301,4.6301,4.6301,4.6301,4.6301,4.6301,4.6301,4.6301,4.6301,4.6301,4.6301,4.6301,4.6301,4.6301,4.6301,4.6301,4.6301,4.6301,4.6301,4.6301,4.6301,4.6301,4.6301,4.6301,4.6301,4.6301,4.6301,4.6301,4.6301,4.5824,4.5271,4.4719,4.4719,4.4418,2.1767,2.2191,2.2798,2.2476,2.2519,0.0,0.0,2.3875,0.0,0.0,0.0,0.0,0.0,0.0,0.0,0.0,0.0,0.0,0.0,0.0,0.0,0.0,0.0,0.0,0.0,3.8346,3.8397,3.903,3.8895,3.7794,3.542,3.6734,3.6453,3.3945,3.515,3.6091,3.6699,3.9347,4.0765,4.1076,4.2375,4.2986,4.2986,4.2986,4.2986,4.2986,4.2986,4.3237,4.3689,4.4242,4.4468,4.4518,4.5221,4.5748,4.6175,4.6276,4.6301,4.6301,4.6301,4.6301,4.6301,4.6301,4.6301,4.6301,4.6301,4.6301,4.6301,4.6301,4.6301,4.6301,4.6301,4.6301,4.6301,4.6301,4.6301,4.6301,4.6301,4.6301,4.6301,4.6301,4.6301,4.6301,4.6301,4.6301,4.6301,4.6301,4.6301,4.6301,4.6301,4.6301,4.6301,4.6301,4.6301,4.6301,4.6301,4.6301,4.6301,4.6301,4.6301,4.6301,4.6301,4.6301,4.6301,4.6301,4.6301,4.6301,4.6301,4.62,4.5874,4.5321,4.5321,4.502,2.292,2.302,2.3528,2.4011,2.3324,0.0,0.0,0.0,2.3594,2.4023,0.0,0.0,0.0,0.0,0.0,0.0,0.0,0.0,0.0,0.0,0.0,0.0,0.0,0.0,0.0,3.5863,3.528,3.5294,3.6023,3.567,3.38,3.5367,3.53,3.3168,3.4075,3.4964,3.5806,3.8201,3.9814,4.0592,4.2263,4.2986,4.2986,4.2986,4.2986,4.2986,4.3263,4.3539,4.3865,4.4694,4.5045,4.5121,4.5673,4.6075,4.6301,4.6301,4.6301,4.6301,4.6301,4.6301,4.6301,4.6301,4.6301,4.6301,4.6301,4.6301,4.6301,4.6301,4.6301,4.6301,4.6301,4.6301,4.6301,4.6301,4.6301,4.6301,4.6301,4.6301,4.6301,4.6301,4.6301,4.6301,4.6301,4.6301,4.6301,4.6301,4.6301,4.6301,4.6301,4.6301,4.6301,4.6301,4.6301,4.6301,4.6301,4.6301,4.6301,4.6301,4.6301,4.6301,4.6301,4.6301,4.6301,4.6301,4.6301,4.6301,4.6301,4.6301,4.6175,4.5899,4.5899,4.5598,2.3888,2.3598,2.3844,2.4979,0.0,2.2929,0.0,0.0,0.0,0.0,0.0,0.0,0.0,0.0,0.0,0.0,0.0,0.0,0.0,0.0,0.0,0.0,0.0,0.0,0.0,3.321,3.2235,3.1839,3.3008,3.3272,3.2133,3.394,3.4348,3.2855,3.3203,3.4007,3.5335,3.6963,3.858,4.0187,4.1785,4.2681,4.2986,4.2986,4.2986,4.3011,4.3564,4.3865,4.4041,4.507,4.5547,4.5698,4.6125,4.6301,4.6301,4.6301,4.6301,4.6301,4.6301,4.6301,4.6301,4.6301,4.6301,4.6301,4.6301,4.6301,4.6301,4.6301,4.6301,4.6301,4.6301,4.6301,4.6301,4.6301,4.6301,4.6301,4.6301,4.6301,4.6301,4.6301,4.6301,4.6301,4.6301,4.6301,4.6301,4.6301,4.6301,4.6301,4.6301,4.6301,4.6301,4.6301,4.6301,4.6301,4.6301,4.6301,4.6301,4.6301,4.6301,4.6301,4.6301,4.6301,4.6301,4.6301,4.6301,4.6301,4.6301,4.6301,4.6301,4.6301,4.6301,4.6075,2.4441,2.4028,0.0,0.0,2.324,0.0,0.0,0.0,2.3101,2.3159,0.0,0.0,0.0,0.0,0.0,0.0,0.0,0.0,0.0,0.0,0.0,0.0,0.0,0.0,0.0,0.0,3.2539,3.2892,3.3105,3.274,3.1622,3.343,3.3959,3.2855,3.3203,3.3481,3.365,3.5273,3.6881,3.8521,4.0105,4.1615,4.2986,4.2986,4.2986,4.3011,4.3564,4.4091,4.4568,4.5221,4.5773,4.6225,4.6276,4.6301,4.6301,4.6301,4.6301,4.6301,4.6301,4.6301,4.6301,4.6301,4.6301,4.6301,4.6301,4.6301,4.6301,4.6301,4.6301,4.6301,4.6301,4.6301,4.6301,4.6301,4.6301,4.6301,4.6301,4.6301,4.6301,4.6301,4.6301,4.6301,4.6301,4.6301,4.6301,4.6301,4.6301,4.6301,4.6301,4.6301,4.6301,4.6301,4.6301,4.6301,4.6301,4.6301,4.6301,4.6301,4.6301,4.6301,4.6301,4.6301,4.6301,4.6301,4.6301,4.6301,4.6301,4.6301,4.6301,4.6301,4.6301,4.6276,0.0,0.0,0.0,0.0,0.0,0.0,2.3991,0.0,2.3101,0.0,0.0,0.0,0.0,0.0,0.0,0.0,2.2871,0.0,0.0,0.0,0.0,0.0,0.0,0.0,0.0,0.0,0.0,0.0,0.0,3.1636,3.1211,3.2415,3.2934,3.2483,3.3066,3.3418,3.3418,3.4964,3.6578,3.8223,3.9814,4.0961,4.1672,4.2569,4.2662,4.2159,4.3614,4.4593,4.5171,4.5723,4.61,4.6301,4.6301,4.6301,4.6301,4.6301,4.6301,4.6301,4.6301,4.6301,4.6301,4.6301,4.6301,4.6301,4.6301,4.6301,4.6301,4.6301,4.6301,4.6301,4.6301,4.6301,4.6301,4.6301,4.6301,4.6301,4.6301,4.6301,4.6301,4.6301,4.6301,4.6301,4.6301,4.6301,4.6301,4.6301,4.6301,4.6301,4.6301,4.6301,4.6301,4.6301,4.6301,4.6301,4.6301,4.6301,4.6301,4.6301,4.6301,4.6301,4.6301,4.6301,4.6301,4.6301,4.6301,4.6301,4.6301,4.6301,4.6301,4.6301,4.6301,4.6301,2.8216,0.0,0.0,0.0,0.0,0.0,0.0,0.0,0.0,0.0,0.0,0.0,0.0,0.0,0.0,0.0,0.0,2.2012,0.0,0.0,0.0,0.0,0.0,0.0,0.0,0.0,0.0,0.0,0.0,0.0,3.0879,3.1699,3.2229,3.2229,3.2988,3.3418,3.3418,3.455,3.5928,3.7566,3.8735,3.9522,3.9989,4.1133,4.1595,4.1518,4.3213,4.4535,4.5522,4.6075,4.6301,4.6301,4.6301,4.6301,4.6301,4.6301,4.6301,4.6301,4.6301,4.6301,4.6301,4.6301,4.6301,4.6301,4.6301,4.6301,4.6301,4.6301,4.6301,4.6301,4.6301,4.6301,4.6301,4.6301,4.6301,4.6301,4.6301,4.6301,4.6301,4.6301,4.6301,4.6301,4.6301,4.6301,4.6301,4.6301,4.6301,4.6301,4.6301,4.6301,4.6301,4.6301,4.6301,4.6301,4.6301,4.6301,4.6301,4.6301,4.6301,4.6301,4.6301,4.6301,4.6301,4.6301,4.6301,4.6301,4.6301,4.6301,4.6301,4.6301,4.6301,4.6301,0.0,0.0,0.0,2.5947,0.0,0.0,0.0,0.0,2.3652,0.0,0.0,0.0,0.0,0.0,0.0,0.0,0.0,0.0,0.0,0.0,0.0,0.0,0.0,0.0,0.0,0.0,0.0,0.0,0.0,0.0,3.0859,3.1699,3.2229,3.2229,3.2988,3.3418,3.3418,3.3481,3.4258,3.5867,3.5928,3.676,3.8283,3.8342,3.9446,4.1459,4.2067,4.3538,4.5522,4.6075,4.6301,4.6301,4.6301,4.6301,4.6301,4.6301,4.6301,4.6301,4.6301,4.6301,4.6301,4.6301,4.6301,4.6301,4.6301,4.6301,4.6301,4.6301,4.6301,4.6301,4.6301,4.6301,4.6301,4.6301,4.6301,4.6301,4.6301,4.6301,4.6301,4.6301,4.6301,4.6301,4.6301,4.6301,4.6301,4.6301,4.6301,4.6301,4.6301,4.6301,4.6301,4.6301,4.6301,4.6301,4.6301,4.6301,4.6301,4.6301,4.6301,4.6301,4.6301,4.6301,4.6301,4.6301,4.6301,4.6301,4.6301,4.6301,4.6301,4.6301,4.6301,4.6301,0.0,0.0,2.8066,2.7226,0.0,0.0,0.0,0.0,0.0,0.0,0.0,0.0,0.0,0.0,0.0,0.0,0.0,0.0,0.0,0.0,0.0,0.0,0.0,0.0,0.0,0.0,0.0,0.0,0.0,0.0,0.0,3.1269,3.1875,3.2209,3.2715,3.3144,3.3418,3.3418,3.4195,3.5806,3.5806,3.6112,3.666,3.8017,3.8659,3.8839,4.1513,4.3299,4.4439,4.5718,4.6301,4.618,4.5013,4.5281,4.6301,4.6301,4.6301,4.6301,4.6301,4.6301,4.6301,4.6301,4.6301,4.6301,4.6301,4.6301,4.6301,4.6301,4.6301,4.6301,4.6301,4.6301,4.6301,4.6301,4.6301,4.6301,4.6301,4.6301,4.6301,4.6301,4.6301,4.6301,4.6301,4.6301,4.6301,4.6301,4.6301,4.6301,4.6301,4.6301,4.6301,4.6301,4.6301,4.6301,4.6301,4.6301,4.6301,4.6301,4.6301,4.6301,4.6301,4.6301,4.6301,4.6301,4.6301,4.6301,4.6301,4.6301,4.6301,4.6301,4.6301,4.6301,3.0781,3.0156,0.0,2.8555,2.8008,0.0,2.63,0.0,0.0,0.0,0.0,0.0,0.0,0.0,0.0,0.0,0.0,0.0,0.0,2.0957,0.0,0.0,0.0,0.0,0.0,0.0,0.0,0.0,0.0,0.0,0.0,0.0,3.1641,3.1934,3.25,3.293,3.3184,3.334,3.3902,3.4964,3.4964,3.4964,3.4984,3.6496,3.719,3.7467,4.0632,4.2676,4.3793,4.489,4.5732,4.6059,4.3731,4.4251,4.624,4.5586,4.5793,4.6301,4.6301,4.6301,4.6301,4.6301,4.6301,4.6301,4.6301,4.6301,4.6276,4.6075,4.615,4.6276,4.6075,4.6175,4.6301,4.6301,4.6301,4.6301,4.6301,4.6301,4.6301,4.6301,4.6301,4.6301,4.6301,4.6301,4.6301,4.6301,4.6301,4.6301,4.6301,4.6301,4.6301,4.6301,4.6301,4.6301,4.6301,4.6301,4.6301,4.6301,4.6301,4.6301,4.6301,4.6301,4.5999,4.5403,4.5403,4.5074,4.4521,4.5074,4.5403,4.5403,4.5999,4.6301]}]]